GEFSGL_500_meanwind_000.txt.gz
Wind_Speed
48 46 43 40 37 34 30 27 26 27 28 30 31 32 33 36 38 39 37 39 47 54 57 64 65 56 59 62 65 69 70 70 73 76 76 75 74 75 75 75 78 77 74
52 51 48 45 42 39 37 34 33 32 33 34 36 36 36 38 38 38 39 42 43 45 53 59 68 61 56 57 60 67 69 63 68 75 76 74 72 74 75 75 76 75 74
53 53 53 51 48 45 43 41 40 40 40 39 39 39 38 38 38 39 40 41 36 31 40 52 61 64 58 48 50 59 65 60 60 67 68 68 67 69 70 71 72 73 72
54 52 51 51 51 50 48 46 45 44 44 42 41 40 39 37 37 36 36 35 32 29 36 45 46 50 58 52 48 50 53 54 49 52 54 57 60 59 61 64 66 67 67
52 52 51 49 48 48 48 48 48 47 46 43 41 40 38 36 33 31 30 25 27 26 23 38 36 44 51 47 46 48 49 47 46 50 53 54 55 56 58 59 62 62 63
52 52 52 51 49 45 43 44 46 47 46 43 41 38 37 35 32 29 25 24 20 19 20 31 33 36 45 47 43 43 44 43 43 45 52 56 55 56 56 56 56 57 60
56 56 56 54 51 48 45 41 40 43 43 41 38 37 36 34 32 30 27 36 31 26 25 31 31 29 37 44 42 40 41 37 38 45 48 54 58 59 57 56 55 54 53
59 60 57 54 52 49 44 41 37 36 38 39 37 36 36 35 33 32 31 34 41 38 35 33 34 30 27 34 38 40 44 44 42 45 45 50 56 56 53 51 49 48 47
58 60 57 55 54 50 44 38 34 31 30 34 37 37 37 36 36 36 36 35 36 39 42 41 39 35 32 34 37 42 43 41 43 46 45 47 50 50 54 55 52 50 49
59 61 60 56 55 50 44 38 32 28 26 26 32 37 39 39 40 40 41 39 38 38 40 43 45 44 43 42 42 44 47 46 45 48 49 48 48 49 49 50 51 51 49
62 61 59 56 52 49 45 41 35 30 26 23 25 33 39 42 43 44 45 43 41 40 39 41 45 47 46 46 47 47 50 51 49 50 51 50 50 51 52 51 50 50 48
65 62 58 55 51 47 44 42 39 33 28 23 22 26 35 42 44 46 48 48 45 43 41 40 41 45 50 51 51 48 49 52 53 54 53 52 52 51 52 51 50 50 50
64 62 59 55 51 48 45 42 39 35 31 26 22 22 27 36 44 47 49 49 48 45 45 44 41 42 45 48 49 47 48 50 51 52 53 53 52 51 51 50 51 51 52
61 61 60 57 53 50 48 45 40 35 31 28 25 22 23 28 36 45 49 49 49 48 48 48 46 44 45 45 47 48 49 48 48 48 49 50 51 50 49 48 48 47 47
60 60 61 60 57 52 48 45 41 36 32 29 26 22 21 22 26 34 44 46 48 50 50 51 50 49 47 46 46 48 51 50 48 47 48 48 48 48 49 49 46 43 42
60 60 61 62 60 55 50 44 41 38 33 29 27 25 21 20 21 24 31 40 47 52 53 52 53 52 51 50 49 50 51 51 51 51 50 50 49 48 48 47 47 45 41
58 61 63 62 62 58 52 46 40 37 34 29 26 24 22 19 19 20 23 28 36 47 52 53 53 55 56 55 54 53 52 52 52 53 51 50 49 48 47 46 45 43 40
56 60 63 63 63 62 56 49 43 36 30 28 23 21 21 19 18 18 19 21 24 33 43 51 54 56 57 58 58 57 56 55 54 53 52 50 48 48 47 46 44 41 39
54 56 59 63 63 65 65 58 50 41 33 27 23 19 17 16 16 17 17 17 18 22 29 39 49 55 58 59 60 60 60 59 58 56 55 53 51 50 49 47 45 43 41
52 55 58 61 64 65 66 65 58 48 39 31 25 20 15 12 11 12 13 14 14 16 19 25 34 45 54 59 61 62 62 62 61 60 59 57 56 55 53 50 48 46 44
53 55 58 60 62 64 66 66 66 58 46 38 30 23 16 12 9 8 8 10 12 12 13 16 21 29 39 50 58 62 64 65 64 64 64 63 63 61 58 56 54 51 49
57 55 56 59 61 62 63 65 66 65 59 48 38 30 22 16 11 8 6 7 10 10 10 11 13 17 23 32 43 53 60 64 66 68 67 67 67 66 64 62 60 58 55
58 57 56 57 59 60 60 60 62 63 62 61 54 44 35 26 19 13 10 10 10 9 7 6 8 10 14 18 25 34 45 55 63 67 69 70 70 69 68 67 65 63 61
57 59 57 56 57 59 60 60 60 60 61 60 59 57 53 46 38 30 24 20 17 14 11 8 6 6 8 11 14 19 26 36 47 58 66 69 71 72 72 71 69 67 65
55 57 58 56 55 57 59 59 59 58 58 57 57 56 55 53 51 49 46 42 38 33 28 21 15 10 5 3 7 10 14 20 27 37 49 60 66 70 71 72 72 71 70
53 54 56 57 56 56 58 59 59 57 56 55 54 54 54 53 52 51 49 47 45 43 40 37 34 29 23 18 11 4 3 7 13 19 27 37 48 59 66 69 71 72 72

GEFSGL_500_meanwind_006.txt.gz
Wind_Speed
48 48 48 48 48 48 48 48 47 46 44 41 40 39 36 35 35 35 34 34 36 37 39 42 46 51 58 66 74 79 82 84 83 83 83 80 77 77 75 74 74 74 74
50 50 50 50 51 52 52 50 48 45 43 41 40 41 42 40 38 37 35 34 35 37 39 40 41 43 47 53 61 70 77 81 83 83 85 84 81 79 78 77 75 74 74
54 54 53 53 53 53 52 49 46 43 40 38 38 39 43 45 43 40 38 36 36 38 41 42 42 42 43 46 51 58 67 75 79 81 82 85 83 80 78 78 79 77 75
56 55 54 53 52 52 51 47 43 40 37 34 34 35 40 46 47 45 43 40 39 40 43 44 44 44 44 45 47 50 55 62 69 73 74 79 82 80 77 75 78 80 78
56 54 53 53 53 52 51 48 43 38 34 30 29 31 34 41 47 47 46 44 43 42 43 44 45 46 45 46 48 50 52 55 59 63 64 68 75 76 76 74 74 76 77
55 53 52 53 54 54 52 49 44 39 34 29 25 26 29 35 42 46 47 45 44 43 43 43 43 44 44 43 44 45 48 52 56 60 62 64 68 69 70 71 71 74 75
55 52 52 54 57 57 55 52 47 41 35 30 25 23 25 30 35 41 44 43 43 42 42 41 40 40 39 38 38 39 43 51 54 53 55 57 60 65 67 67 68 70 71
55 52 54 57 59 59 58 56 52 44 36 30 26 22 22 26 31 35 39 40 40 40 40 40 38 36 35 36 38 41 43 50 54 54 56 56 56 56 60 63 64 65 67
54 53 55 57 59 59 60 60 56 46 37 30 25 21 20 23 28 32 36 39 41 42 42 41 39 37 38 41 42 42 45 50 54 56 56 55 55 57 58 59 61 60 62
54 54 56 58 59 60 62 63 59 47 35 28 23 20 19 21 26 31 34 38 42 43 44 44 43 41 41 43 43 42 44 48 53 54 54 53 53 54 56 58 60 59 58
55 56 57 59 60 62 64 65 59 45 31 25 21 18 17 20 24 28 32 36 41 44 45 46 46 46 44 43 43 43 43 45 47 48 49 50 51 52 52 52 53 55 56
56 57 59 61 62 63 66 66 59 44 29 21 18 17 16 18 22 26 29 33 38 43 46 46 47 48 48 46 44 44 44 44 44 44 45 46 48 51 53 53 53 54 56
56 57 60 62 63 65 68 68 61 45 29 20 16 15 15 16 19 23 26 30 35 40 45 46 46 48 50 50 48 46 44 44 45 46 45 44 46 49 50 52 53 54 55
55 57 60 62 63 66 69 70 65 49 33 21 15 13 14 15 16 18 23 27 32 38 43 46 46 47 48 50 50 50 48 46 47 48 48 47 46 47 49 50 52 53 53
56 58 60 62 63 64 68 71 69 56 40 27 17 11 11 13 15 16 18 23 27 33 39 43 46 47 47 47 48 50 51 51 50 51 51 50 50 49 49 49 50 51 51
56 57 60 61 62 63 66 69 71 64 48 33 23 14 10 10 12 14 16 18 22 27 33 40 44 47 48 49 48 48 49 51 54 56 55 54 53 53 52 51 51 51 51
56 58 60 61 62 63 65 67 70 69 59 43 30 21 13 9 9 11 13 14 16 20 25 33 41 46 48 50 50 50 48 48 51 55 58 58 57 56 55 55 55 56 55
57 58 60 62 63 63 64 66 68 69 67 57 43 30 21 14 9 8 10 11 12 15 18 23 32 41 47 50 51 51 50 49 49 50 54 58 59 58 57 56 58 59 58
56 57 60 62 63 63 63 64 65 66 67 65 58 46 34 24 16 11 8 9 10 12 14 17 22 31 41 48 50 52 52 52 50 49 49 51 54 56 57 57 57 59 58
55 57 59 60 61 61 62 62 63 63 64 64 63 59 51 40 30 21 14 10 9 10 12 14 17 21 30 41 48 51 52 53 53 51 49 47 48 50 51 52 53 54 54
54 55 56 58 59 59 61 61 61 61 61 61 61 60 58 55 48 39 30 20 14 10 9 10 12 15 20 28 40 48 51 53 54 53 51 49 47 47 47 48 49 49 49
53 54 54 56 57 58 59 60 60 60 60 59 59 58 58 56 54 52 47 40 31 21 14 9 6 8 12 17 26 38 47 52 53 54 54 53 51 49 48 48 49 49 48
50 52 53 53 55 56 56 57 58 59 59 59 58 57 56 55 55 54 52 49 46 40 31 21 13 7 3 6 13 23 35 46 52 54 55 55 55 54 52 51 50 50 49
47 48 50 51 52 53 54 55 56 57 58 59 59 58 57 55 54 53 52 51 49 47 44 39 32 22 13 6 2 8 17 29 42 51 56 57 58 58 58 57 55 54 53
44 45 46 48 49 51 52 52 53 54 55 56 57 58 58 57 56 54 52 50 49 48 46 44 41 38 32 24 15 6 3 12 23 35 47 55 58 60 61 61 60 59 58
40 42 43 45 47 49 50 50 50 50 52 53 55 56 57 57 57 57 55 53 50 47 45 44 43 40 37 34 30 24 16 6 5 15 27 40 51 58 62 63 64 64 63

GEFSGL_500_meanwind_012.txt.gz
Wind_Speed
60 58 56 53 52 51 51 51 51 51 50 48 46 44 40 36 35 35 36 38 41 43 41 39 38 38 41 47 60 77 89 94 93 88 85 82 79 76 71 66 67 68 67
59 56 54 54 54 54 55 55 54 53 52 50 48 44 40 35 32 32 32 34 38 40 39 38 36 36 37 40 48 62 77 88 91 90 87 84 82 80 77 71 68 67 65
57 55 55 56 57 58 58 58 57 56 54 53 50 45 38 33 30 29 28 29 34 37 37 37 35 35 35 36 42 51 64 76 85 87 86 85 83 82 79 76 72 69 67
56 55 56 58 59 60 60 60 59 59 58 55 50 42 35 29 27 26 25 25 30 34 36 36 35 34 34 35 38 44 53 64 74 80 82 82 82 82 80 76 74 71 68
55 56 58 60 61 62 62 63 63 63 61 55 45 35 28 24 23 23 22 23 28 33 35 36 36 35 35 35 36 39 46 54 62 69 74 76 78 80 79 76 73 70 67
55 57 60 62 63 63 64 65 66 65 59 48 36 25 19 18 19 19 19 21 26 32 34 35 35 35 35 36 36 37 40 46 53 60 65 69 72 75 76 75 72 70 68
56 58 61 63 64 65 66 68 70 66 55 40 25 14 11 13 15 15 16 18 24 31 34 35 35 36 36 36 36 37 38 40 46 51 57 63 67 70 71 71 71 69 67
56 59 62 64 65 66 68 71 72 65 50 33 19 7 6 10 12 12 14 16 22 29 34 35 35 35 36 37 37 37 38 39 41 45 49 53 58 63 66 68 68 67 65
56 59 62 65 67 68 70 72 72 62 47 31 16 5 4 8 10 11 12 15 21 28 34 36 36 36 36 37 38 38 39 39 40 41 43 47 51 55 59 62 64 64 64
57 59 63 66 68 69 71 74 73 63 48 32 17 6 2 7 9 11 11 15 20 27 34 37 38 37 37 37 37 38 39 39 39 38 38 40 43 48 53 57 59 59 59
58 60 63 66 68 69 71 74 74 65 51 36 21 9 2 4 7 9 9 13 19 26 33 38 40 39 38 38 37 37 37 38 38 37 37 36 37 42 48 52 54 57 58
58 60 62 65 67 69 70 72 73 69 57 41 27 15 6 3 5 7 7 10 16 23 32 38 42 42 41 40 38 37 36 36 36 36 36 35 35 37 43 49 52 55 57
58 59 60 63 66 68 69 70 72 72 64 51 36 22 12 6 5 6 6 7 12 20 29 38 42 44 44 43 41 39 38 37 36 37 37 36 36 38 42 47 52 54 56
58 58 58 61 64 67 69 69 71 72 70 62 48 33 20 12 7 5 5 5 8 14 24 34 41 45 46 45 44 42 40 39 38 39 39 39 40 42 46 48 51 53 54
56 56 56 58 62 65 68 70 70 71 71 69 61 48 33 20 12 8 5 4 5 10 18 28 37 43 46 47 46 45 43 41 41 41 41 42 43 46 48 49 52 52 51
54 55 55 56 59 62 65 68 69 69 69 68 67 61 50 36 23 14 8 5 4 6 13 21 31 40 45 47 48 47 45 44 43 43 43 43 44 46 48 49 49 50 50
53 54 54 55 56 58 61 63 66 68 68 67 67 65 61 53 41 28 17 9 5 5 8 15 24 34 42 46 48 49 48 47 46 45 45 45 44 45 46 47 46 47 48
51 52 53 54 54 55 57 59 62 64 66 67 66 65 64 61 55 47 34 21 11 6 5 9 17 27 36 43 46 48 49 49 48 47 46 46 46 45 45 45 46 46 47
48 50 51 52 52 52 53 55 57 60 63 65 65 65 64 62 60 57 51 40 27 15 7 5 10 18 29 38 44 46 48 49 50 50 49 48 48 48 47 47 47 47 47
46 47 49 50 50 50 50 51 53 55 58 60 62 63 63 63 61 58 56 53 46 35 21 9 4 9 18 29 38 44 47 48 49 51 51 51 50 50 50 49 49 49 49
44 45 46 47 48 48 48 49 50 52 54 56 59 61 62 63 62 60 57 55 53 50 42 29 15 4 7 16 28 38 44 47 48 50 52 52 52 52 52 51 52 51 51
43 43 43 44 45 46 46 47 48 50 51 53 55 56 58 60 61 60 59 56 53 51 49 45 37 24 9 4 13 25 36 44 48 50 50 52 53 54 54 53 53 53 53
42 42 42 42 43 43 44 45 46 48 49 51 52 53 54 55 56 58 58 58 55 52 49 47 44 40 31 18 5 8 20 33 43 49 52 52 53 54 55 56 55 55 55
41 41 41 40 41 41 41 42 44 46 47 49 50 50 51 51 52 53 54 55 55 54 50 47 44 41 39 35 26 13 3 14 28 40 49 53 55 55 55 55 56 56 56
39 40 40 40 39 39 40 40 42 44 45 47 48 49 49 49 49 49 50 51 52 52 51 48 45 42 39 36 33 29 21 9 7 21 35 46 53 57 58 57 57 56 55
37 38 39 39 39 39 39 40 41 42 44 45 46 47 47 47 47 47 47 47 48 49 50 48 46 43 40 37 33 30 27 23 16 6 13 28 42 51 57 59 59 59 57

GEFSGL_500_meanwind_018.txt.gz
Wind_Speed
67 64 61 59 62 65 68 71 72 74 73 67 59 50 43 39 39 38 39 36 33 33 35 37 42 47 53 61 68 71 68 62 60 67 82 97 100 97 93 92 89 86 81
66 64 61 61 64 67 70 73 75 76 70 60 48 36 27 20 20 24 29 29 28 29 31 34 38 43 48 55 63 68 68 64 58 59 71 85 96 95 91 90 89 87 85
65 64 62 62 65 68 72 75 77 74 63 49 36 24 18 10 4 9 15 19 22 24 27 30 34 39 44 49 57 63 65 64 59 56 62 74 86 89 86 85 87 88 86
65 64 62 63 66 70 73 76 77 71 57 40 27 22 20 14 7 2 5 10 15 19 23 27 30 35 39 44 51 57 61 61 60 56 57 66 78 83 82 81 83 86 85
65 64 63 64 67 70 74 77 76 69 53 34 21 17 17 16 11 7 2 4 10 15 19 24 27 31 35 39 45 51 55 56 57 56 56 63 74 81 81 79 79 82 84
64 64 64 65 67 70 74 77 76 68 52 33 18 11 11 12 8 5 2 2 6 11 17 22 25 29 32 35 40 45 49 50 52 53 54 61 72 81 82 80 78 80 82
63 64 64 65 67 70 73 76 75 69 55 37 20 9 4 4 3 4 3 1 5 10 16 21 25 28 31 33 36 39 42 43 45 47 51 58 70 84 84 80 78 79 80
62 63 64 64 66 69 72 74 74 71 61 44 28 16 7 4 5 6 6 3 4 10 16 21 25 28 30 32 33 35 36 37 38 40 44 52 66 83 90 83 77 76 77
61 62 63 64 64 67 70 72 73 72 66 53 36 24 16 11 9 8 7 4 4 10 17 22 26 29 30 31 32 32 32 33 34 35 38 45 58 77 93 92 82 76 76
60 61 62 62 63 65 68 71 72 72 69 61 47 32 23 17 12 9 7 4 4 9 16 22 27 29 30 31 30 29 29 29 30 31 34 39 48 65 86 95 91 82 78
59 60 60 60 62 64 66 69 71 71 70 66 58 45 32 23 17 12 8 5 3 8 15 22 26 29 30 30 29 28 27 26 27 28 31 34 41 53 69 84 91 88 81
58 58 58 59 60 61 63 65 67 69 68 67 64 56 44 31 23 17 11 6 2 6 13 20 25 28 29 29 28 27 26 25 25 27 30 33 37 44 53 65 77 84 83
56 56 56 57 58 59 61 62 64 65 66 66 65 62 55 44 31 22 16 9 4 3 10 17 24 27 28 28 28 27 26 25 25 26 28 30 34 39 46 54 63 73 77
53 53 53 54 56 57 59 60 61 62 64 65 65 63 61 55 44 31 22 15 8 3 5 13 21 27 28 28 28 27 27 26 26 26 26 27 30 35 40 48 55 62 68
52 51 51 51 53 56 58 59 59 60 61 62 63 63 62 60 56 46 32 21 14 7 1 8 17 24 28 29 28 28 27 27 26 26 26 27 28 31 35 42 50 56 61
50 49 49 49 50 53 55 57 58 58 58 59 61 62 62 60 59 56 47 34 22 13 6 3 11 20 26 29 29 29 28 28 28 27 28 28 28 29 33 39 46 52 57
48 48 47 47 48 50 52 54 55 56 57 56 57 58 59 59 58 56 54 48 35 22 12 4 4 14 22 28 30 30 29 29 29 28 29 30 29 30 31 36 43 50 55
47 46 46 46 47 48 49 51 52 53 54 54 54 54 56 57 57 55 53 52 48 37 24 13 4 6 16 24 30 32 32 31 30 30 30 31 31 31 32 34 40 47 53
45 45 45 45 45 46 47 49 50 51 52 52 52 52 52 53 54 54 53 51 49 47 38 26 14 3 7 17 26 32 34 33 32 32 32 33 34 33 34 34 37 42 50
44 43 43 44 44 45 45 46 48 49 50 50 50 50 50 50 51 51 51 50 48 47 45 40 28 16 4 7 18 28 34 36 36 34 34 35 36 36 36 36 37 38 43
43 42 42 42 43 44 44 45 46 47 48 49 49 50 49 49 48 48 49 48 47 46 44 42 39 30 18 5 7 19 29 35 38 38 37 37 38 39 39 39 39 39 41
43 42 41 41 41 42 43 44 45 46 46 47 47 48 48 48 47 46 46 46 45 44 42 41 39 37 31 21 8 6 18 29 36 40 41 40 40 40 41 42 43 43 43
43 42 40 40 40 41 42 43 43 44 45 45 45 45 46 46 46 45 44 44 43 42 41 39 37 35 34 31 23 11 4 17 28 36 41 43 43 42 43 44 45 45 46
43 42 40 40 39 39 40 41 41 42 43 44 44 44 44 44 44 44 43 42 41 40 39 38 36 33 32 30 28 23 14 3 16 28 36 42 45 45 45 46 46 47 48
42 42 41 40 39 38 38 39 39 40 41 42 43 42 42 41 41 41 41 41 40 39 38 37 35 33 30 28 26 24 21 15 5 12 26 36 43 46 48 48 49 49 49
42 42 41 41 40 39 37 37 37 38 39 40 41 41 40 39 39 39 39 40 39 38 37 36 34 33 30 27 25 23 21 18 14 7 9 22 34 43 48 50 51 52 52

GEFSGL_500_meanwind_024.txt.gz
Wind_Speed
74 72 71 70 70 70 71 72 75 77 75 68 56 46 40 36 32 27 22 13 4 6 14 21 27 31 34 37 40 44 49 59 68 75 77 77 83 94 104 105 103 101 98
72 70 69 69 69 69 70 72 75 76 74 66 52 42 37 33 29 24 21 15 7 0 8 15 21 26 29 32 36 40 45 54 64 69 74 74 76 85 96 103 103 100 98
70 68 68 68 68 69 69 71 73 75 73 65 51 39 33 30 27 23 18 13 7 3 7 13 17 20 24 27 31 36 41 49 59 65 71 72 71 76 87 98 102 99 97
69 67 66 66 67 68 69 70 72 74 73 67 55 40 32 28 24 21 18 14 9 6 8 11 14 17 20 23 27 31 37 44 54 61 67 69 68 70 78 90 100 100 97
67 65 64 64 66 67 68 69 71 73 73 69 60 45 34 28 24 21 18 15 11 7 7 8 10 12 15 19 23 28 33 41 49 57 64 66 65 65 69 81 93 99 98
66 64 62 62 64 66 67 68 69 71 72 71 65 53 40 31 26 22 19 16 12 8 6 6 7 9 13 16 19 24 30 37 46 54 61 63 62 61 63 70 83 94 97
65 63 61 61 62 65 66 67 67 69 71 71 68 61 48 37 29 24 19 16 12 8 5 3 5 9 12 15 17 21 27 34 42 51 58 60 60 57 57 62 73 86 93
64 62 60 59 61 63 64 65 66 67 68 70 70 65 56 45 35 28 23 17 13 8 3 2 6 9 12 15 17 21 25 31 39 46 53 57 57 55 54 57 64 75 85
63 60 59 58 59 60 62 64 64 65 66 68 69 68 62 52 42 33 27 21 15 9 4 3 8 11 13 16 18 21 24 29 36 43 50 54 55 53 51 54 59 67 74
62 59 57 57 58 59 60 62 63 63 64 66 67 68 66 59 49 39 31 24 18 11 5 4 9 12 14 17 19 21 24 28 34 40 46 51 53 52 49 50 55 61 68
62 59 56 56 56 57 58 59 61 62 63 64 65 66 66 63 55 45 36 27 20 13 7 5 9 12 15 17 19 21 23 27 32 38 42 46 50 51 48 47 51 56 63
61 58 56 55 54 55 56 57 58 60 60 60 61 63 64 63 60 52 43 33 24 16 9 6 9 12 15 16 18 20 23 26 30 34 39 42 46 48 47 47 49 53 57
61 58 56 54 53 53 54 54 55 57 58 58 59 60 61 62 61 58 50 39 29 20 11 7 9 12 14 16 18 19 21 24 27 31 34 38 42 45 46 47 50 54 57
59 57 55 53 53 52 52 52 53 54 55 56 57 58 59 59 60 60 56 46 35 24 15 8 8 10 13 15 17 18 20 22 24 26 29 33 37 41 44 47 51 54 59
59 56 54 53 52 51 51 52 52 53 55 56 56 56 56 57 59 59 58 53 43 31 20 11 7 9 12 14 16 17 18 20 21 23 25 28 31 35 39 44 49 55 61
58 56 54 52 50 50 50 51 52 52 53 53 54 55 55 55 56 55 55 54 49 39 27 16 8 7 10 13 14 16 17 18 19 20 22 23 26 29 33 38 44 52 60
57 55 53 51 50 48 47 47 48 50 51 51 51 51 52 52 52 52 51 51 50 46 36 24 12 5 7 11 14 15 16 17 18 19 20 20 21 23 26 31 38 47 56
55 54 52 51 50 49 47 46 46 46 47 49 49 49 48 49 49 48 48 48 47 46 42 33 21 10 3 9 13 15 16 17 18 19 19 20 20 20 21 24 30 39 49
54 53 52 50 49 48 47 46 45 45 45 46 46 46 46 46 46 46 45 44 43 43 42 39 32 20 8 4 11 15 16 17 18 19 20 20 20 19 19 20 24 31 40
53 52 51 50 49 48 47 46 44 43 43 44 44 44 43 43 43 43 42 41 40 39 39 39 37 31 20 8 4 12 17 18 20 20 21 21 21 20 19 20 22 27 34
51 51 50 49 48 47 46 45 44 42 41 42 42 43 42 41 41 41 41 40 38 37 36 35 35 34 29 21 8 4 14 19 21 22 22 23 23 22 21 20 22 25 31
50 50 50 49 48 46 46 45 44 42 40 39 40 40 40 39 38 38 39 38 37 36 34 33 32 31 30 27 21 9 4 15 21 23 24 25 25 24 23 23 23 25 29
48 48 48 48 47 46 45 44 43 42 40 38 38 38 38 37 36 36 36 36 36 35 33 31 30 29 28 27 24 19 10 3 14 22 25 27 27 27 26 25 25 26 29
46 47 47 47 47 45 44 44 43 42 40 38 36 36 36 35 34 34 34 34 34 34 33 31 30 28 27 26 24 22 17 9 4 14 23 28 29 30 29 29 28 28 30
44 45 46 46 46 45 44 43 42 42 40 37 36 34 34 34 33 32 32 33 33 33 32 31 30 29 28 27 26 23 19 14 8 5 15 24 30 33 33 33 32 32 32
42 43 44 45 45 44 43 42 42 41 39 37 35 33 33 32 32 31 30 31 31 31 30 30 29 29 29 29 28 27 23 17 11 7 8 17 26 32 36 37 37 37 36

GEFSGL_500_meanwind_030.txt.gz
Wind_Speed
75 78 78 76 72 69 68 68 68 68 68 69 71 70 62 52 40 31 27 23 21 18 15 12 9 8 10 16 25 34 42 48 53 56 59 62 70 80 90 97 105 112 114
75 77 77 75 72 68 67 66 66 66 67 68 70 70 65 55 44 33 28 24 22 19 17 15 12 11 11 15 20 28 35 42 48 52 56 59 65 73 83 91 99 107 113
74 76 77 74 71 68 66 65 65 65 66 67 69 70 67 58 48 37 31 26 23 20 17 14 12 11 12 14 18 23 29 36 42 47 51 55 59 66 75 84 93 102 110
73 76 76 74 70 67 65 64 64 64 65 66 67 69 68 62 53 42 34 29 24 19 16 12 10 9 10 12 16 20 24 30 36 41 46 50 54 61 69 78 87 98 107
73 75 76 74 70 67 64 63 63 63 64 65 66 68 69 65 56 47 37 31 25 19 15 10 7 5 7 8 11 16 21 26 31 36 40 45 50 56 65 74 82 92 102
72 74 75 73 70 66 63 62 62 62 63 64 65 66 68 66 58 50 40 33 26 20 14 10 7 3 1 4 7 12 17 21 26 31 36 40 45 52 60 69 77 87 97
71 73 74 73 70 66 63 61 61 61 61 62 63 65 66 65 60 51 42 34 26 20 15 12 8 5 3 3 5 9 13 18 22 27 31 36 42 49 57 65 73 82 92
70 72 73 72 69 66 62 60 60 60 60 60 61 62 64 64 61 54 44 35 28 21 16 13 11 8 6 5 5 7 10 14 19 24 28 33 40 47 54 61 68 75 85
68 70 72 72 69 65 62 60 58 59 59 59 60 60 62 63 61 55 47 38 30 22 17 14 12 11 9 7 6 6 7 11 16 21 26 32 39 46 53 59 64 70 78
67 69 71 71 69 65 62 59 58 57 58 58 59 59 59 60 60 56 49 41 32 23 18 15 13 12 11 9 8 7 6 9 13 18 25 31 39 46 52 56 60 65 72
66 68 69 70 68 65 62 59 57 56 56 57 56 56 57 57 58 56 51 43 34 25 18 15 13 12 11 10 9 8 7 7 10 16 23 31 39 45 50 54 56 60 66
65 66 68 69 68 65 61 58 56 54 54 53 53 53 54 54 55 55 52 45 36 27 19 15 13 11 11 11 10 9 8 7 9 14 22 30 38 44 48 51 52 54 60
64 64 66 68 68 66 61 58 55 53 52 51 51 51 51 51 51 52 52 48 39 30 21 16 12 11 10 10 10 10 9 8 8 13 21 29 36 42 46 48 48 50 54
62 63 64 66 68 66 62 58 54 51 50 49 49 49 49 49 49 49 49 49 43 34 24 17 12 10 9 9 9 10 10 9 9 13 20 28 35 40 44 45 44 46 49
61 61 62 64 66 66 64 59 55 52 49 49 48 48 47 47 48 48 47 47 46 40 30 21 14 10 9 8 8 9 9 10 11 14 19 26 33 38 41 42 42 42 45
60 60 60 62 64 64 63 60 55 52 50 48 48 47 46 46 46 46 45 44 44 43 37 26 17 11 8 7 7 8 8 10 11 14 19 24 30 35 39 40 40 40 42
59 58 58 60 62 63 61 58 55 52 50 48 46 45 44 43 43 43 42 41 41 41 39 32 22 14 8 6 6 6 8 9 11 14 18 22 28 33 36 38 39 39 40
58 56 56 57 59 61 60 58 54 50 48 47 45 43 42 41 41 41 41 40 38 37 37 35 29 19 11 6 4 5 7 9 11 14 17 21 25 30 33 36 37 37 38
57 55 54 55 57 59 59 58 54 50 47 45 44 42 41 40 39 39 39 38 36 35 35 35 33 26 17 9 3 4 6 8 11 13 16 19 23 26 30 33 35 36 38
56 53 52 53 54 57 58 57 55 51 46 44 42 40 39 38 37 37 37 36 35 34 33 33 33 31 23 14 6 2 5 8 11 13 16 18 20 23 26 30 33 36 38
55 52 51 50 52 54 56 57 55 51 46 42 41 39 38 36 35 35 35 34 33 32 32 32 32 33 29 21 11 3 4 8 11 14 16 18 20 21 23 26 30 33 37
54 51 49 48 50 52 54 55 55 51 47 42 40 39 38 36 35 33 33 33 32 31 30 30 31 32 32 28 19 8 3 8 12 14 17 19 20 21 22 24 27 30 35
53 49 47 46 47 49 52 53 54 52 47 42 39 37 36 35 34 33 32 32 31 30 29 29 30 31 32 31 27 17 6 6 12 16 18 20 21 22 23 23 25 27 31
51 48 46 45 45 47 49 51 52 51 48 42 38 36 35 34 33 32 31 30 30 29 28 27 28 29 31 32 31 27 17 5 9 16 20 22 24 24 24 24 25 26 29
49 46 44 43 43 44 47 49 51 50 48 43 38 35 34 33 33 32 31 30 29 29 27 26 26 27 29 31 32 32 27 15 5 12 20 24 26 27 27 27 26 26 28
47 44 43 41 40 42 44 47 49 49 47 43 38 34 33 32 32 31 30 29 29 29 27 26 25 26 27 29 31 33 32 26 14 5 13 22 27 29 30 30 29 27 28

GEFSGL_500_meanwind_036.txt.gz
Wind_Speed
78 78 77 76 77 79 82 84 82 78 72 69 68 68 68 69 68 66 62 57 49 42 37 33 29 25 21 19 18 17 16 17 23 34 47 58 64 66 65 62 61 66 78
78 79 78 77 77 79 81 83 82 77 72 68 67 67 67 68 67 65 61 55 48 42 37 34 30 26 22 19 17 16 15 16 20 29 40 52 60 63 62 60 58 60 69
78 80 79 78 77 78 80 82 81 76 71 67 66 66 66 67 66 64 60 54 47 42 38 34 31 27 23 20 16 15 14 15 17 24 34 45 54 59 60 59 56 56 62
77 80 80 78 77 78 80 81 80 75 70 66 65 65 65 66 65 63 59 53 46 41 38 35 32 28 24 21 17 14 12 13 15 20 29 39 47 54 57 56 55 53 57
76 79 80 79 77 77 79 80 79 75 69 65 64 64 63 64 64 62 58 54 47 41 38 35 32 29 25 22 19 15 11 10 12 16 24 33 41 48 52 53 52 51 53
74 77 80 79 77 77 78 79 78 74 69 64 63 62 62 62 62 62 58 54 47 41 37 35 32 29 26 24 21 17 13 9 8 12 19 27 35 41 47 49 50 50 51
73 76 79 79 77 76 77 78 78 75 69 64 62 61 60 60 60 60 57 52 47 40 35 33 31 29 27 25 22 19 15 11 6 8 15 22 29 36 41 44 46 46 49
72 74 77 79 77 76 75 76 77 75 69 64 60 59 59 59 58 58 57 52 46 40 34 31 29 28 27 25 23 20 17 12 7 4 10 17 24 31 36 40 42 43 47
71 73 75 77 77 75 74 75 76 74 70 64 60 58 58 58 57 56 55 53 47 40 34 30 28 27 26 25 23 21 18 14 9 3 6 13 21 27 32 36 38 41 46
70 71 73 76 76 75 73 73 74 74 70 64 59 57 56 56 56 55 53 52 47 40 35 31 28 26 26 25 24 22 19 16 11 5 2 9 16 23 29 33 36 41 46
69 70 71 73 75 74 72 72 72 73 70 64 59 56 55 55 55 54 52 51 49 42 36 31 28 25 24 24 23 22 19 17 13 7 1 6 13 20 26 31 36 41 46
68 68 69 71 73 73 71 70 71 71 69 64 59 55 53 53 53 52 51 50 49 44 36 31 27 24 23 23 22 21 20 17 14 9 4 4 11 17 24 31 36 40 46
66 67 67 69 71 71 70 68 68 69 68 65 59 54 52 51 51 51 50 49 48 46 39 33 28 24 23 22 21 20 20 17 14 11 7 5 9 15 22 30 35 40 45
65 66 66 66 68 69 68 66 66 67 67 65 60 54 51 50 49 49 48 47 46 45 42 36 30 25 22 21 20 19 18 17 14 12 9 7 9 15 22 30 36 40 44
64 64 64 64 66 67 66 65 64 65 67 65 61 55 50 48 47 47 47 46 45 44 43 39 33 26 22 19 19 18 17 16 14 12 10 9 11 16 22 30 35 39 42
63 63 63 62 63 65 65 63 62 63 65 65 61 55 50 47 47 46 46 45 44 44 43 41 35 28 22 19 17 16 16 15 13 12 11 11 12 17 23 30 35 39 41
62 62 61 60 60 62 62 61 60 60 63 64 61 55 50 46 45 45 44 44 43 42 41 40 38 31 23 19 16 14 14 13 12 11 11 12 14 18 23 29 34 37 39
61 61 60 57 57 59 60 59 58 58 59 61 60 55 49 45 43 43 43 42 41 40 39 39 38 35 27 19 15 13 11 11 11 10 10 12 14 18 22 27 31 35 38
60 60 58 55 54 56 57 57 55 55 56 58 58 55 49 44 41 41 41 41 40 39 38 37 37 35 31 23 15 11 9 8 8 8 9 11 14 18 21 25 29 33 38
59 58 56 53 51 52 54 54 53 52 53 55 55 53 50 44 41 39 39 39 39 38 36 36 36 35 33 27 18 11 6 5 5 6 8 10 13 16 20 23 27 32 37
57 55 53 50 48 49 51 51 50 49 50 52 53 52 49 44 40 38 37 37 37 37 35 34 34 34 34 30 22 14 6 2 2 5 8 10 13 16 19 22 25 29 34
54 52 50 47 45 46 48 48 47 46 47 49 50 51 48 43 39 36 35 35 36 35 35 33 32 33 33 31 26 19 10 2 3 6 9 11 13 16 19 22 24 27 31
52 50 47 45 42 43 45 45 44 43 44 45 47 48 47 43 38 35 33 33 34 34 34 32 31 31 31 32 30 24 15 6 2 7 11 13 15 17 19 22 25 27 29
51 48 45 42 39 39 41 42 41 40 41 42 44 46 46 43 38 34 32 32 32 33 32 32 31 30 29 30 30 28 22 12 3 6 11 15 17 19 20 22 25 27 29
49 46 42 39 36 37 38 39 38 38 38 39 41 43 44 42 38 33 30 30 30 31 31 31 30 29 28 28 29 30 27 20 10 2 9 15 19 21 22 23 25 27 29
47 44 41 37 34 34 36 36 35 35 35 36 38 41 42 41 37 33 30 28 29 29 30 30 29 28 27 27 28 29 29 25 17 7 4 12 19 22 24 25 26 27 29

GEFSGL_500_meanwind_042.txt.gz
Wind_Speed
57 58 59 61 62 66 69 72 74 76 77 78 78 79 78 75 72 68 65 64 62 60 56 51 47 45 44 43 43 41 40 36 28 20 21 23 23 27 36 50 64 76 85
57 58 59 61 62 65 68 71 74 76 77 78 78 78 77 74 71 67 64 63 61 59 54 49 45 43 42 42 41 40 39 36 31 23 19 20 21 23 31 44 57 68 77
58 58 59 61 62 64 68 71 73 75 76 77 77 77 76 73 70 66 63 62 60 58 54 48 44 41 40 40 40 39 37 35 32 26 19 19 18 20 26 38 51 62 70
59 59 59 61 62 64 67 70 73 74 75 76 76 76 75 72 69 65 63 61 59 57 53 48 43 40 39 39 38 38 36 33 31 27 21 18 17 17 23 34 46 56 63
59 59 59 60 63 64 67 70 72 74 75 75 75 74 74 71 68 64 61 60 58 56 53 48 43 40 38 38 38 37 36 33 30 27 22 17 15 15 21 31 42 52 58
59 59 60 61 63 65 67 69 72 73 74 74 74 73 72 70 66 63 61 60 58 56 53 48 43 39 37 37 37 36 35 33 30 27 23 18 13 13 19 29 39 48 54
59 59 60 62 63 66 67 69 71 72 73 73 72 71 71 69 66 61 59 58 57 56 53 48 42 39 36 35 35 35 34 32 30 26 22 17 12 11 18 27 37 45 51
60 60 61 63 64 66 67 69 70 71 71 71 71 70 69 68 65 60 57 56 56 54 52 48 42 38 36 33 32 33 33 31 29 25 21 16 11 10 16 26 35 43 49
61 62 62 64 66 67 68 69 69 70 69 69 70 68 67 66 64 60 57 55 54 53 51 49 43 38 35 32 31 31 31 30 29 25 21 15 10 9 16 25 34 41 46
64 64 64 65 67 67 68 68 68 68 68 68 68 67 65 64 63 60 57 54 52 51 49 48 44 39 35 32 30 30 30 29 27 24 20 14 8 8 15 24 33 39 44
66 66 66 66 67 68 68 67 67 67 66 65 66 65 64 63 61 59 56 53 51 50 48 47 44 38 34 31 30 29 29 28 26 23 19 13 7 7 14 22 31 37 41
67 67 67 67 67 67 67 66 65 65 64 63 63 63 62 61 60 57 54 52 51 49 48 46 44 39 33 31 29 28 28 27 25 23 18 13 6 5 13 21 30 36 39
67 67 67 67 66 65 64 63 63 62 62 60 61 60 59 59 57 55 53 51 50 48 47 45 44 41 34 30 29 27 26 26 25 22 17 12 6 2 11 19 27 34 37
64 65 65 64 63 63 61 61 60 59 59 58 58 57 56 56 55 53 51 49 47 47 46 45 44 42 37 32 29 27 25 24 23 20 17 12 7 2 9 17 24 31 35
61 61 61 61 60 60 59 58 57 56 55 55 54 54 53 53 52 51 48 46 45 45 44 44 43 41 38 33 28 26 24 23 22 19 16 12 7 4 8 15 21 27 32
58 58 57 56 56 55 54 53 53 53 52 51 51 51 51 51 50 49 47 45 44 43 43 43 41 40 36 33 28 24 22 21 20 18 15 12 8 5 9 15 19 23 27
56 55 55 54 53 52 51 50 49 49 49 48 48 49 48 48 48 48 46 44 42 42 42 42 41 39 36 33 29 24 21 19 18 16 14 11 8 7 11 15 19 21 24
53 53 53 53 52 51 49 47 46 46 46 45 45 46 45 45 46 46 44 43 41 40 40 40 40 38 35 32 29 24 20 17 16 14 12 10 7 8 11 15 19 21 25
52 52 52 51 50 49 47 45 43 43 43 42 43 43 43 43 43 43 42 41 40 39 38 38 38 37 35 32 29 25 20 16 13 12 11 9 7 7 10 13 17 20 24
53 52 51 50 49 47 45 42 41 41 40 40 40 40 40 40 40 40 40 39 38 37 36 36 36 36 35 32 29 25 20 15 11 9 8 7 6 6 9 14 18 22 25
54 53 52 51 49 46 43 40 39 38 37 37 38 37 37 37 37 38 38 37 36 35 34 34 35 35 34 32 29 25 20 15 11 7 6 6 6 7 10 14 18 21 24
54 53 52 50 48 45 41 38 37 36 35 35 35 35 34 34 35 35 36 35 34 33 32 33 33 33 33 32 29 25 21 15 10 6 4 4 6 8 10 14 18 21 24
54 52 50 47 45 42 39 36 34 34 32 32 32 32 31 31 32 33 33 33 32 31 30 31 31 31 32 32 30 26 22 16 10 5 2 4 6 9 12 14 17 21 24
52 49 47 44 43 40 36 33 32 31 30 29 29 28 28 28 29 30 31 31 30 29 29 29 29 30 30 30 30 27 23 17 11 5 2 4 7 11 13 15 17 20 23
49 47 44 42 40 38 34 31 29 28 27 27 26 25 25 26 26 28 29 29 28 27 27 27 28 28 29 29 29 28 24 19 13 7 1 5 8 12 15 16 18 20 23
46 44 41 39 38 36 32 29 26 26 25 24 23 22 22 23 24 25 26 27 26 26 25 26 26 27 28 28 28 28 26 21 14 8 3 4 8 12 15 17 19 20 23

GEFSGL_500_meanwind_048.txt.gz
Wind_Speed
60 61 62 62 63 65 65 66 66 65 66 68 69 70 71 72 73 74 76 78 79 78 77 74 72 71 69 67 65 63 60 59 56 49 48 48 48 47 45 42 37 32 29
61 62 62 63 65 66 66 66 66 66 67 69 69 70 71 72 73 74 76 78 78 77 75 72 70 69 67 65 64 61 58 57 55 51 47 47 46 46 43 41 38 34 29
61 62 62 64 66 66 66 66 67 67 68 69 70 70 71 72 73 74 75 76 76 75 73 70 68 68 65 63 62 60 57 54 53 51 48 46 45 44 42 39 36 33 30
61 62 63 64 66 66 66 67 68 69 69 70 71 70 70 71 72 73 74 74 74 74 71 68 67 66 64 62 60 58 56 53 51 50 48 45 44 43 42 39 34 32 29
60 62 63 65 66 67 67 68 69 70 69 69 69 69 68 68 69 71 72 72 72 71 69 66 64 63 62 61 60 59 55 52 50 50 48 45 44 43 42 39 34 30 27
61 62 65 66 67 67 68 68 69 68 68 68 67 67 65 65 68 69 70 70 70 69 67 64 62 62 61 59 58 57 55 52 50 49 48 46 44 43 41 38 33 29 25
63 64 66 67 67 67 67 68 68 67 66 66 66 63 62 63 65 67 67 67 67 67 65 63 61 60 59 57 56 55 52 50 49 49 47 45 43 41 39 36 31 27 23
64 66 67 67 66 66 66 66 65 64 63 63 61 59 59 61 63 63 64 65 65 64 63 61 59 58 57 56 54 52 50 48 47 46 45 43 42 40 37 33 28 23 20
65 65 65 65 65 64 63 62 61 60 59 58 57 56 57 58 59 60 60 62 62 61 60 59 58 56 55 54 53 51 48 45 44 43 43 42 39 37 34 30 24 20 16
63 63 62 62 61 60 59 58 58 57 56 55 54 54 54 55 57 57 58 59 59 58 58 56 55 54 53 52 51 49 47 43 41 40 40 39 37 35 31 27 21 16 13
58 57 57 57 56 56 56 56 56 55 53 53 53 52 53 53 54 55 55 57 57 56 55 54 53 52 51 50 49 48 46 42 39 39 38 36 34 31 28 23 18 13 9
54 54 54 54 54 55 55 55 54 53 52 51 51 51 51 51 53 53 53 55 55 53 53 52 51 50 49 48 47 45 44 41 38 37 36 34 32 29 25 20 15 10 7
52 53 54 54 54 54 53 53 51 50 49 49 49 49 50 50 51 51 51 52 53 52 51 50 49 48 48 47 45 43 42 39 37 35 33 32 29 26 22 17 12 7 7
52 53 54 53 53 53 53 52 51 50 49 49 48 48 47 47 49 49 49 50 50 50 49 48 48 47 46 46 44 42 41 38 35 33 31 29 27 24 19 14 9 5 7
53 53 53 54 54 55 55 54 53 52 51 49 47 46 45 46 47 47 47 48 48 47 47 46 45 45 44 44 42 41 39 36 34 31 28 27 25 21 17 13 7 3 8
54 55 56 56 56 56 55 54 53 52 50 48 46 44 44 44 45 45 44 45 45 45 44 44 43 42 42 41 40 38 37 34 31 28 26 24 22 19 15 11 6 2 7
56 56 57 57 57 56 56 55 54 53 50 47 44 42 42 42 42 42 42 43 43 42 42 42 41 40 40 40 38 37 35 32 29 26 23 21 19 18 14 10 5 2 6
56 56 58 58 58 57 56 55 54 53 50 46 42 40 39 39 40 40 40 41 40 40 40 40 39 39 39 38 37 35 33 31 27 24 22 19 17 15 13 10 5 2 6
57 58 59 59 58 56 55 54 53 50 47 43 40 37 37 37 37 37 37 38 38 37 38 38 37 37 37 37 36 34 32 29 26 22 20 17 15 13 11 9 6 1 4
58 59 61 59 57 55 54 52 49 46 44 40 36 34 34 34 34 35 35 35 35 35 35 36 35 35 35 35 34 33 31 28 25 22 19 17 14 12 10 8 6 1 4
59 60 59 58 56 54 52 50 47 44 40 36 33 32 32 31 32 32 32 32 32 33 33 34 33 33 34 34 33 32 30 27 24 21 17 15 12 10 9 7 4 1 2
58 58 57 55 54 52 50 46 44 40 36 33 31 31 29 29 29 29 29 29 30 30 31 31 31 32 32 32 32 31 29 26 23 20 17 13 11 9 6 5 4 2 2
56 56 55 55 54 50 46 42 39 35 31 29 29 28 27 26 26 26 26 26 27 28 29 29 30 30 30 31 31 30 28 25 22 19 16 12 9 7 5 3 3 3 3
55 55 56 54 51 47 43 37 33 30 27 26 25 24 24 23 23 23 23 24 24 25 27 27 28 28 29 29 30 29 26 24 21 17 14 11 8 6 3 2 2 2 3
54 54 53 50 45 41 36 31 27 25 24 23 21 21 21 20 20 20 20 21 22 23 25 25 26 27 27 28 28 28 26 23 21 17 13 10 7 4 2 2 2 3 4
52 51 49 45 39 34 29 25 22 20 20 19 18 18 18 17 17 17 17 18 20 21 23 24 25 25 26 26 26 26 26 23 20 16 12 9 6 3 2 3 4 5 5

GEFSGL_500_meanwind_054.txt.gz
Wind_Speed
54 55 57 59 61 62 63 63 64 65 65 65 66 67 68 68 68 67 67 67 66 67 66 67 67 68 69 70 71 71 72 73 74 71 70 70 69 69 67 65 62 60 58
52 53 55 57 58 59 60 62 63 64 64 65 66 67 68 67 67 66 66 66 66 66 66 67 66 67 68 69 70 70 71 72 73 72 70 68 66 65 64 61 59 58 56
50 52 53 54 56 57 59 60 62 63 65 65 66 66 66 66 66 65 65 65 65 65 65 65 65 66 67 68 69 69 70 71 71 72 69 66 63 62 61 59 57 56 54
49 50 51 53 55 57 59 60 61 63 64 64 64 65 64 64 64 64 64 64 63 63 63 63 64 65 66 67 67 68 69 69 69 70 68 65 62 61 60 58 56 54 52
49 50 52 54 56 57 59 60 60 61 61 61 61 62 62 62 62 62 62 61 61 61 61 62 63 64 65 66 66 66 67 67 67 68 66 64 61 60 58 57 55 52 49
51 52 53 54 55 56 56 57 57 57 57 57 59 60 60 59 59 59 59 59 59 60 60 61 62 63 64 64 65 65 65 65 66 66 64 62 60 58 57 55 54 51 47
52 52 53 53 53 54 54 55 55 55 56 57 57 57 56 56 57 58 58 58 57 57 59 59 60 61 62 62 63 62 61 62 63 63 61 60 58 56 55 53 51 49 46
51 51 51 51 52 53 53 53 53 54 55 55 55 55 56 56 57 57 57 57 56 57 57 58 59 60 60 61 60 59 58 58 59 59 58 57 55 54 53 52 49 46 42
50 50 50 51 51 51 52 52 53 54 54 55 55 55 55 56 56 57 57 56 56 56 57 57 57 58 58 59 59 57 56 56 56 55 54 54 53 51 51 50 47 44 40
49 49 49 50 51 51 52 53 53 54 55 55 56 56 56 56 56 57 56 56 56 55 56 55 56 57 57 57 57 55 54 54 53 52 51 50 49 48 48 47 45 41 39
49 49 50 51 51 52 52 52 54 55 56 57 57 57 57 57 57 56 56 55 55 54 54 54 55 55 55 55 54 53 53 52 51 49 48 47 46 45 45 43 41 39 36
49 50 50 51 51 52 53 54 55 56 57 57 58 57 57 57 56 55 55 54 53 53 52 53 53 53 53 53 52 51 50 50 48 47 46 44 43 43 42 40 37 36 34
50 50 50 52 53 54 55 56 56 57 57 58 58 57 57 56 54 53 53 52 52 51 50 51 51 50 50 50 49 48 48 47 45 44 43 41 40 40 39 36 33 33 31
50 51 52 53 54 55 56 56 56 57 57 58 58 57 56 54 52 52 51 50 49 49 48 48 48 47 47 47 46 46 45 44 43 42 40 38 37 36 36 33 31 30 28
51 52 53 53 54 55 55 56 57 57 58 58 57 55 54 53 52 51 50 49 48 46 46 45 45 44 44 44 44 43 43 42 41 40 38 35 34 34 33 31 29 27 24
52 52 53 54 54 55 56 56 57 57 57 56 56 54 53 52 51 49 47 46 44 43 43 42 42 42 41 41 41 41 41 40 39 38 35 33 32 31 30 28 27 25 22
53 54 54 55 55 55 55 55 55 56 56 55 55 53 51 50 48 45 43 41 40 40 39 39 40 39 39 38 38 38 38 38 36 35 33 31 30 29 27 26 24 22 20
53 53 54 55 54 54 54 55 55 56 55 54 53 51 49 47 44 41 39 38 37 37 37 37 37 36 36 36 36 36 36 35 34 32 30 29 29 28 26 25 23 21 17
52 52 53 52 52 53 54 55 55 55 54 53 51 48 46 43 40 37 36 35 34 34 34 33 33 33 33 33 34 34 34 33 31 30 28 28 27 26 23 22 21 18 15
50 51 51 50 51 52 53 53 54 53 52 49 47 44 41 38 36 34 33 32 32 31 30 30 30 30 31 31 32 32 32 30 29 27 26 26 25 23 21 20 18 15 12
49 49 49 49 50 51 51 51 51 50 48 45 42 39 37 35 33 30 29 29 28 27 27 27 27 28 28 29 29 30 29 28 27 25 24 24 22 20 18 17 15 12 10
47 47 47 48 49 49 49 48 48 46 43 42 38 35 33 30 27 25 25 24 23 24 24 24 25 25 26 26 27 27 27 26 25 23 23 22 20 18 16 14 12 10 8
45 45 46 46 47 47 46 46 44 42 40 37 34 30 28 25 24 23 21 20 20 20 21 22 22 23 24 25 25 26 25 24 23 22 22 20 18 16 13 12 10 8 7
43 43 44 44 45 45 44 43 41 38 36 32 29 26 24 22 20 19 18 17 17 18 19 20 20 21 22 23 24 24 24 23 22 21 20 18 16 13 11 9 7 6 5
41 41 42 43 43 42 40 39 36 33 31 27 25 22 20 18 17 16 15 15 15 16 17 18 19 20 21 22 23 23 23 22 21 20 18 16 14 11 8 6 5 5 4
39 40 40 40 39 38 37 35 32 29 26 23 21 18 17 15 14 13 13 13 13 14 16 17 18 19 20 21 22 22 22 22 21 19 17 14 12 8 5 4 4 4 3

GEFSGL_500_meanwind_060.txt.gz
Wind_Speed
51 52 54 55 56 57 57 58 60 61 62 62 63 64 64 65 66 66 66 67 67 66 67 68 68 68 68 69 69 69 69 69 68 66 67 68 68 69 69 69 70 71 72
50 51 52 53 55 56 56 57 58 59 60 61 61 62 63 64 64 65 65 66 67 67 67 68 67 68 67 68 68 67 67 68 68 66 66 67 67 68 68 69 70 71 71
49 49 50 52 53 54 55 56 57 58 59 60 61 61 62 63 64 65 65 66 66 66 66 66 66 66 66 67 67 66 66 67 67 66 65 66 67 68 69 69 70 70 71
49 50 51 52 53 54 55 55 56 57 58 59 60 60 62 63 63 63 64 65 66 65 65 64 64 65 66 66 66 66 66 67 67 67 65 65 66 67 69 69 69 69 68
51 52 52 54 55 56 56 56 57 57 58 59 60 61 62 63 63 63 64 65 64 64 63 63 64 65 65 65 65 66 66 67 66 66 65 66 65 67 68 69 69 67 66
54 54 54 55 56 56 57 58 58 58 59 59 59 60 61 61 62 63 64 64 63 62 62 64 64 64 64 64 65 66 66 66 65 65 65 65 64 66 67 67 67 66 64
56 57 57 57 57 57 58 58 59 59 59 59 59 60 59 59 60 61 62 62 62 62 62 64 64 63 64 65 65 65 64 64 64 64 64 63 63 64 65 65 64 63 61
59 59 59 59 58 58 57 57 57 58 58 59 59 59 58 58 59 61 62 62 62 61 62 62 62 62 62 62 62 62 61 61 61 62 61 61 62 62 63 62 61 60 58
60 60 60 59 58 57 57 57 57 57 57 58 58 58 58 58 60 61 62 62 61 60 60 60 60 59 59 59 59 58 58 57 58 59 59 59 59 59 59 59 58 58 55
61 60 60 59 58 57 57 57 57 57 57 57 56 57 58 58 59 60 61 61 60 60 59 58 57 57 57 57 56 55 54 55 56 56 56 56 56 56 56 56 56 56 53
60 60 59 59 58 57 57 57 57 56 55 55 55 56 57 57 58 58 58 58 57 56 56 55 54 54 54 53 53 53 53 53 53 53 53 53 53 52 52 53 53 53 51
60 59 58 58 58 57 57 56 56 55 55 55 55 55 55 55 55 55 55 55 56 55 53 52 52 51 51 51 51 51 51 51 50 50 50 49 49 49 49 49 49 48 47
59 58 58 57 57 57 56 55 54 54 54 54 54 53 52 52 52 53 54 54 54 53 52 51 50 49 48 48 48 48 48 47 47 47 46 46 47 47 46 46 45 45 44
58 57 57 56 55 54 54 54 53 53 52 52 52 52 51 51 51 51 52 52 52 51 49 48 47 46 45 45 44 45 45 45 44 44 44 44 44 44 43 43 42 42 41
57 56 55 54 53 52 52 51 51 51 51 51 50 50 49 48 49 50 50 50 49 47 46 45 44 44 43 42 42 42 42 42 42 42 42 42 42 41 40 40 40 40 40
55 54 53 52 51 50 49 49 49 49 49 49 48 48 48 47 47 48 49 48 46 45 44 43 42 41 40 40 40 40 39 39 39 39 39 39 39 38 37 37 38 39 39
54 52 51 50 49 48 48 47 45 45 46 46 46 46 47 47 47 47 47 46 44 42 41 39 38 37 37 37 37 36 36 36 36 37 37 37 36 35 35 35 36 38 38
51 50 49 47 47 46 45 44 44 43 43 43 44 45 45 45 44 44 43 42 39 38 37 36 36 35 35 34 33 32 33 33 34 34 35 34 34 33 33 33 35 36 35
48 46 46 45 44 43 42 42 42 42 42 42 42 42 42 42 41 40 39 37 36 35 34 33 33 33 32 30 29 29 30 31 32 32 32 32 31 31 32 33 33 34 32
44 43 42 41 40 39 40 41 41 41 41 40 40 39 39 38 36 35 35 34 33 32 31 31 30 29 27 26 27 27 28 29 30 30 30 30 30 30 31 31 32 30 28
40 38 37 37 37 37 38 39 39 38 37 37 37 37 36 34 33 32 32 30 30 29 29 28 27 25 25 24 25 26 27 28 28 28 28 28 28 29 30 30 29 27 25
36 34 34 35 35 35 36 36 36 35 35 35 35 34 33 31 30 29 27 27 27 27 26 25 24 23 23 23 24 25 25 26 26 27 27 27 28 29 29 28 26 23 21
33 32 33 33 33 33 33 34 34 34 34 34 33 32 30 28 27 25 25 25 25 24 24 23 22 21 21 22 23 23 23 24 25 25 26 26 27 28 27 25 22 19 18
31 31 31 31 31 32 32 33 33 33 32 32 31 29 27 26 24 24 24 24 23 22 22 21 20 20 20 21 21 21 22 23 24 25 26 26 26 25 24 21 18 17 17
30 30 30 30 31 31 32 32 31 31 30 30 29 27 25 24 23 23 22 21 20 20 20 19 19 19 19 20 20 20 22 23 24 25 25 25 24 23 20 18 16 16 16
29 29 29 30 30 30 30 30 30 29 29 29 27 25 23 22 21 20 19 18 18 18 18 19 18 18 19 19 19 21 22 23 24 24 23 23 22 20 17 16 15 16 16

GEFSGL_500_meanwind_066.txt.gz
Wind_Speed
43 44 46 48 50 51 52 53 54 55 56 58 59 60 61 62 63 64 64 65 66 66 67 67 67 68 68 68 69 69 69 70 68 65 66 66 67 67 67 68 67 66 66
47 49 51 52 54 55 56 57 58 59 59 60 61 62 63 64 64 64 65 65 66 66 67 67 66 67 67 67 68 68 69 69 69 67 67 67 66 67 68 67 68 68 67
53 54 56 57 58 59 60 61 62 63 63 64 64 65 65 65 65 65 66 66 66 66 67 67 67 67 66 66 67 68 68 69 69 68 67 67 66 66 67 68 69 69 68
58 59 61 62 63 63 64 65 65 66 67 67 67 67 67 67 67 67 67 67 67 67 67 67 67 67 67 67 67 67 67 67 67 66 65 65 65 66 68 68 68 69 69
63 64 66 67 67 68 68 68 69 69 69 68 68 67 67 67 67 67 67 67 66 66 66 66 66 66 66 66 66 65 65 65 65 65 64 64 64 65 66 67 68 68 68
68 69 70 71 71 71 71 71 71 70 70 69 68 68 67 67 67 67 66 64 64 64 64 64 64 64 64 64 64 64 63 63 63 63 63 63 63 65 66 66 67 67 66
72 73 74 75 74 74 73 73 72 71 70 69 68 68 67 66 66 65 63 62 61 61 60 60 60 60 61 62 62 62 62 62 62 62 62 62 63 63 64 65 65 65 64
76 77 77 77 76 75 74 73 72 71 69 69 68 67 66 64 63 62 61 60 60 59 58 58 58 58 59 60 60 60 60 60 60 61 60 60 60 61 62 63 64 64 63
79 79 78 78 77 75 73 72 70 69 68 67 66 65 63 61 61 60 59 58 57 56 56 57 57 57 57 58 57 56 56 57 58 59 59 58 58 59 60 61 61 62 61
80 79 79 77 76 74 72 70 69 67 65 64 62 61 60 59 58 57 57 56 55 55 55 55 55 55 55 55 55 54 54 55 56 57 56 56 56 57 58 59 60 60 60
80 78 76 75 73 71 69 67 65 63 61 60 58 57 56 56 55 55 54 54 54 53 53 53 52 53 52 52 52 53 53 54 55 55 54 55 55 56 56 57 58 58 58
78 75 72 70 68 66 64 62 60 59 57 56 54 53 53 52 52 52 52 52 52 51 50 49 49 50 50 51 51 52 52 53 53 53 52 52 52 53 53 54 55 55 55
73 70 67 65 63 61 60 58 56 54 53 52 51 50 49 49 49 49 49 49 49 48 47 47 47 48 49 49 50 50 50 51 51 50 49 49 50 51 51 51 51 52 51
68 65 62 60 58 56 55 54 52 51 50 49 48 47 46 45 46 46 46 46 45 45 45 45 45 46 47 47 47 47 48 48 48 48 47 47 48 48 47 48 48 49 48
62 60 57 56 54 53 51 50 48 47 48 46 45 44 43 42 42 43 42 41 40 41 42 42 43 44 44 45 45 45 46 46 46 46 45 45 44 44 44 45 45 46 45
58 55 53 52 50 48 46 45 45 45 44 43 42 41 39 39 39 38 38 37 37 38 38 39 40 40 41 42 43 43 43 42 42 42 42 42 42 42 42 43 44 44 43
54 52 50 48 46 45 44 42 40 39 40 39 39 38 38 38 37 36 36 35 35 36 37 37 37 38 39 40 40 40 39 39 40 40 40 40 40 39 40 40 40 41 40
51 49 48 45 43 42 41 39 38 37 35 35 36 37 36 36 35 35 35 35 35 35 36 36 36 37 37 38 37 37 37 37 38 38 37 37 37 37 36 36 37 37 37
48 47 45 42 41 40 38 37 37 36 35 33 32 34 35 34 34 34 34 34 34 34 34 35 35 35 35 35 35 35 35 35 35 34 34 34 34 33 33 34 34 35 35
45 44 43 40 39 38 37 36 35 34 33 32 32 32 32 32 32 32 33 32 32 32 32 32 32 32 32 33 32 32 32 32 31 31 30 30 31 31 31 32 32 33 34
43 42 41 39 38 36 35 35 34 33 32 31 32 32 32 32 32 31 31 30 30 30 31 30 31 30 30 30 29 29 29 28 28 28 28 29 29 30 30 31 32 33 33
42 41 38 37 35 34 34 33 33 32 31 31 31 31 31 32 31 30 29 29 29 30 30 29 29 29 28 28 27 27 26 26 26 26 27 28 28 29 29 30 31 32 31
41 39 36 34 33 33 32 32 32 31 31 31 31 30 30 31 30 29 28 28 29 28 28 28 27 26 26 26 25 25 25 25 25 26 26 27 28 28 28 29 29 27 26
39 37 34 33 32 32 31 31 30 30 31 30 29 29 30 29 28 27 27 27 26 26 26 25 25 25 24 24 24 24 25 24 24 25 25 26 26 26 26 25 24 23 23
37 34 33 32 31 30 30 30 30 30 29 28 28 29 28 27 26 25 25 24 24 24 24 23 23 23 23 23 24 24 24 23 23 24 24 24 23 23 22 22 22 22 22
34 33 32 30 30 29 29 29 29 28 28 27 27 27 26 24 23 23 22 23 23 22 22 22 22 22 23 23 23 23 22 23 23 23 23 22 21 21 21 21 22 22 22

GEFSGL_500_meanwind_072.txt.gz
Wind_Speed
44 46 48 51 53 55 58 60 62 64 66 68 70 72 73 75 76 77 78 78 79 79 79 79 79 79 80 79 79 79 79 78 76 71 72 73 73 73 73 73 72 71 71
49 51 53 56 58 61 63 65 68 70 72 74 76 77 78 79 80 81 82 82 82 82 81 82 81 82 81 81 80 79 78 78 76 73 72 72 72 72 72 71 70 70 70
54 56 59 61 64 66 68 71 73 75 77 79 80 81 82 83 84 84 85 85 84 84 83 83 82 82 81 80 79 78 77 77 76 74 71 71 71 71 71 71 70 70 70
59 61 64 67 69 71 74 76 78 80 81 82 83 84 85 86 86 86 86 86 85 84 83 82 81 80 79 78 77 75 74 73 72 71 69 68 69 69 69 69 69 69 69
64 66 69 71 73 76 78 80 81 82 84 85 86 86 86 86 85 85 84 83 82 80 78 77 76 74 73 72 71 70 69 69 68 67 65 65 65 66 66 67 68 68 68
68 70 73 75 78 79 81 82 83 85 85 86 86 86 85 84 83 81 80 77 75 72 70 69 68 67 67 67 67 66 66 65 64 63 62 62 62 63 64 65 66 66 65
72 75 77 79 81 82 84 85 85 86 86 85 84 83 81 79 76 73 71 69 67 65 63 62 62 61 62 62 62 62 61 61 61 60 60 59 60 60 62 63 63 63 63
76 78 80 82 83 85 85 86 86 86 85 83 80 77 74 70 67 65 63 61 59 57 56 56 55 55 55 56 56 56 56 57 58 58 57 56 56 57 58 58 59 59 60
79 81 82 84 85 86 86 86 85 84 81 77 73 70 66 62 60 58 57 56 53 51 50 50 50 50 50 51 51 52 52 52 54 55 55 54 54 54 54 55 55 56 56
81 82 84 85 86 86 85 84 82 79 75 70 65 62 59 56 54 53 53 51 48 46 45 46 47 47 46 47 47 47 47 48 49 50 51 51 51 50 51 51 52 54 55
83 84 85 85 85 84 82 79 76 72 67 63 59 56 54 51 50 49 48 46 44 43 42 42 42 43 43 43 43 43 43 44 45 45 46 46 47 48 49 51 52 52 53
84 84 84 83 81 79 76 72 68 65 60 56 54 50 48 47 46 45 43 42 42 41 39 38 38 38 38 38 39 40 40 41 41 42 43 44 45 47 49 50 51 51 51
83 82 81 79 75 72 69 65 61 58 55 52 49 46 44 43 42 41 40 39 39 38 37 36 35 35 36 36 37 37 38 39 40 41 42 43 45 46 48 49 50 50 51
82 79 77 73 69 65 62 59 56 54 51 49 45 43 41 39 38 38 38 37 36 36 35 35 34 34 34 34 35 36 37 38 40 41 41 43 44 45 46 47 48 49 49
78 75 71 67 64 60 56 54 52 50 49 46 44 42 40 37 36 37 36 34 34 34 33 33 33 33 33 34 35 36 37 38 39 40 40 41 42 43 44 45 46 46 46
73 69 65 62 58 55 52 49 47 47 45 44 43 42 40 39 37 35 34 33 33 33 33 32 32 33 33 33 34 35 37 38 38 39 39 40 40 41 42 42 42 43 43
68 64 61 57 55 52 50 47 43 41 42 42 42 41 40 38 36 35 34 33 33 33 33 33 33 32 32 33 33 34 35 36 37 37 37 38 38 38 38 39 39 40 41
63 60 56 54 51 49 47 45 43 40 38 37 38 39 37 36 35 35 34 33 33 33 33 32 31 31 32 32 33 33 34 34 34 34 34 34 34 34 35 36 37 38 38
58 55 52 50 48 46 45 43 41 40 38 36 35 35 36 35 35 34 34 33 32 32 32 31 31 31 32 32 32 32 32 32 32 32 31 31 31 31 32 34 35 35 36
54 51 49 47 46 44 43 41 40 38 37 36 34 34 34 33 33 33 32 32 32 31 31 31 31 31 31 31 31 31 30 30 30 30 30 30 30 31 31 32 33 33 34
50 47 45 44 43 42 40 39 38 37 35 34 34 34 34 33 32 31 31 31 31 30 30 30 30 30 30 30 29 29 29 29 29 29 29 29 30 30 30 30 31 32 32
46 44 42 42 41 39 38 38 37 35 34 33 33 33 33 32 31 31 31 30 29 29 29 30 29 29 29 28 28 28 28 28 28 27 28 28 28 28 28 29 29 31 32
43 41 40 39 39 38 36 36 36 34 33 33 33 32 31 30 29 30 29 28 28 28 28 28 28 27 27 26 26 26 26 26 26 26 27 27 27 27 27 28 29 30 31
39 38 37 37 37 35 34 34 34 33 32 32 31 30 29 28 28 28 28 27 27 27 27 26 26 25 24 24 24 25 25 25 25 26 26 26 26 26 27 28 28 29 30
37 36 36 35 35 33 33 32 31 30 30 30 29 28 28 27 27 27 26 26 26 25 25 24 24 23 23 24 24 24 25 25 25 25 25 25 26 26 27 27 28 29 30
34 34 34 34 33 32 31 31 30 29 29 28 28 27 27 26 26 25 25 25 24 24 23 22 23 23 23 23 24 24 25 25 24 24 25 26 26 27 27 28 29 30 30

GEFSGL_500_meanwind_078.txt.gz
Wind_Speed
40 42 43 45 46 49 51 53 56 58 61 64 66 69 71 74 77 79 80 82 83 84 86 87 88 89 90 90 91 92 93 93 94 90 91 92 93 92 91 89 87 86 85
43 45 46 48 50 52 55 58 60 63 66 68 71 73 76 78 80 82 83 85 86 87 88 88 88 89 89 88 88 88 87 87 87 85 82 83 84 85 84 83 82 81 80
46 47 49 52 54 56 59 62 65 67 70 73 76 78 80 82 83 85 86 87 88 88 87 87 86 85 83 81 80 79 77 76 76 75 72 71 73 73 75 75 74 74 74
49 51 53 55 58 60 63 66 69 72 75 77 79 81 83 84 86 87 88 87 87 86 85 83 81 78 75 73 71 69 68 67 67 66 64 63 64 65 66 66 67 67 68
52 54 56 59 62 65 67 70 73 76 78 80 82 83 85 86 87 87 86 85 83 81 78 75 72 69 66 64 63 61 61 62 61 61 59 57 57 58 58 59 60 61 62
55 57 60 63 66 68 71 74 76 79 81 82 84 85 86 86 85 84 83 81 78 74 70 66 62 60 58 57 57 57 57 56 56 55 54 52 51 52 53 53 55 56 56
58 60 63 66 69 72 74 77 79 81 82 83 85 85 84 83 81 79 77 74 70 66 61 57 55 53 52 52 52 53 52 52 52 51 49 47 46 47 48 49 50 50 51
61 64 67 70 72 75 77 79 81 82 83 84 84 83 81 78 76 73 70 66 62 57 54 52 49 48 48 48 48 48 47 47 47 47 46 44 43 43 44 45 47 48 48
64 66 69 72 75 77 79 81 82 83 83 83 81 79 76 73 70 67 63 59 54 51 48 46 45 44 44 45 45 43 42 42 43 42 42 41 40 41 42 42 43 45 45
66 69 72 75 77 79 80 82 82 83 82 80 77 75 71 67 64 61 58 53 50 47 45 44 43 42 42 43 42 41 40 39 38 38 38 38 38 38 39 39 40 41 42
69 71 74 76 78 80 81 82 82 82 80 77 74 70 66 63 59 56 52 49 46 44 42 41 41 41 41 41 40 39 37 36 36 35 35 36 37 37 37 38 39 39 40
71 73 75 77 79 80 81 81 81 79 76 72 68 64 61 58 54 51 48 47 45 44 42 40 39 39 39 38 38 37 37 36 35 35 34 34 35 36 36 37 38 39 39
72 74 76 77 79 80 81 80 78 75 72 68 63 59 56 52 49 47 46 44 44 43 41 39 38 37 37 36 36 36 36 35 35 34 34 34 35 35 36 37 38 39 40
74 75 77 78 79 79 79 77 74 70 66 63 59 55 51 47 45 44 43 42 41 40 39 37 36 36 36 36 35 35 35 35 35 35 35 35 35 35 36 37 37 38 39
75 77 78 79 79 78 76 73 69 65 62 59 55 52 48 44 42 42 40 39 38 37 36 35 35 35 35 35 34 33 33 34 34 34 34 34 34 35 35 36 37 37 38
77 78 79 79 78 76 72 67 63 60 57 54 52 49 46 43 41 40 38 38 37 36 35 34 33 33 33 32 32 32 32 33 34 34 33 33 34 34 35 35 35 35 36
78 79 79 78 76 73 68 63 58 54 52 49 47 46 44 42 40 39 38 37 36 36 34 33 32 32 31 31 32 32 32 32 32 32 32 33 33 33 32 33 33 33 34
79 79 78 76 72 68 63 58 54 50 46 43 42 42 42 40 39 39 37 36 35 34 33 32 31 31 31 31 31 31 31 31 32 32 32 32 31 31 31 32 32 33 33
78 77 75 71 67 62 57 53 49 46 43 40 39 39 39 38 38 37 36 35 34 32 31 31 31 30 31 31 30 30 31 31 31 31 31 31 31 31 31 32 32 32 32
76 73 70 66 61 56 51 48 45 42 40 38 38 38 37 36 35 34 34 33 32 31 30 30 30 30 31 30 30 31 31 31 31 31 30 30 30 30 30 30 31 31 31
72 68 64 59 54 49 46 44 41 39 37 37 37 37 36 34 32 31 31 31 30 29 29 30 30 30 30 30 30 30 30 30 30 30 30 30 30 29 29 29 30 30 30
67 62 57 52 48 44 42 40 38 37 36 36 36 35 35 33 32 31 30 30 29 28 28 29 29 29 29 29 29 29 28 28 29 29 29 29 29 29 29 29 29 29 30
61 56 51 46 43 40 39 37 37 36 36 36 36 34 34 32 31 30 30 29 28 28 28 28 28 28 28 27 27 27 27 27 28 28 28 28 28 28 28 29 29 29 30
54 50 45 41 39 37 36 35 35 35 35 35 34 34 32 31 30 29 28 27 27 27 27 27 28 27 26 26 26 26 26 26 27 27 27 27 27 28 28 29 29 30 31
48 44 41 38 36 35 35 34 34 34 34 34 33 32 31 29 29 28 27 26 26 26 26 26 27 26 26 26 26 26 26 26 27 27 28 28 28 28 29 29 30 31 32
43 40 37 35 34 34 34 33 33 33 33 32 32 30 29 28 27 27 26 25 25 25 26 26 25 25 25 25 26 26 26 27 28 29 29 29 29 30 30 30 31 31 32

GEFSGL_500_meanwind_084.txt.gz
Wind_Speed
42 42 42 42 42 43 44 46 47 49 51 52 54 56 58 60 62 65 67 70 72 74 76 78 79 81 82 84 85 85 86 86 87 83 81 81 82 81 80 79 77 76 75
43 43 43 44 44 46 47 48 49 51 53 55 56 59 61 63 66 68 70 72 75 76 78 80 81 82 83 83 83 83 82 82 83 81 76 74 73 73 71 69 67 66 64
44 45 45 46 47 48 49 51 52 54 55 57 59 62 64 66 69 71 73 75 77 78 80 81 82 83 82 81 80 79 78 78 77 75 70 67 65 63 62 60 58 58 57
46 46 47 48 49 50 52 53 55 56 58 60 62 65 67 69 72 74 76 77 78 79 80 81 82 82 80 79 77 75 73 71 69 67 64 59 57 55 55 53 52 52 52
47 48 49 50 51 52 54 55 57 59 61 63 65 67 70 72 75 76 78 78 79 80 80 81 80 79 77 74 72 69 67 65 62 59 56 52 50 49 49 49 48 47 47
48 49 50 51 53 54 56 57 59 61 64 66 68 70 72 74 76 78 79 80 80 81 80 79 76 74 71 69 67 64 62 59 56 53 50 48 46 46 45 45 45 44 43
49 50 51 53 55 56 58 60 62 64 66 68 71 73 75 76 78 79 80 81 81 81 79 75 72 69 66 64 61 58 55 53 51 49 47 46 44 44 43 43 43 42 40
50 51 53 55 57 58 60 63 65 67 69 71 73 75 76 77 79 80 81 81 80 78 74 71 68 64 62 59 56 53 50 48 47 47 46 44 43 42 42 41 40 39 37
52 54 55 57 59 61 63 65 67 69 71 73 75 77 77 78 80 80 81 80 77 73 69 66 63 59 56 54 52 49 46 45 45 44 43 42 41 41 40 40 39 38 36
53 55 57 59 61 63 66 68 70 72 73 75 76 78 79 79 80 80 80 78 73 69 64 60 57 55 52 50 48 46 44 42 42 41 40 40 39 39 38 38 38 38 36
55 57 59 61 64 66 68 70 72 74 75 77 78 79 80 80 80 78 76 73 69 64 59 55 52 49 47 46 45 43 42 41 40 38 38 37 37 37 37 37 37 37 36
57 59 61 64 66 68 70 72 74 76 77 79 80 79 79 79 77 75 71 67 63 58 54 50 47 45 44 43 42 42 41 40 39 37 36 35 35 35 35 35 35 35 35
59 61 63 66 68 70 72 74 76 78 80 80 81 80 78 76 73 69 65 60 56 53 49 46 44 43 42 41 41 40 40 39 37 36 35 35 34 33 33 33 34 35 35
61 63 66 68 70 72 74 76 78 80 81 81 81 79 76 72 67 62 57 53 49 47 45 43 42 41 41 40 39 39 38 36 35 35 34 33 33 33 33 33 34 34 35
64 66 68 71 73 75 76 78 80 81 82 81 79 76 72 66 60 55 51 48 45 43 42 40 39 38 37 37 37 36 35 35 34 34 33 33 33 33 33 34 34 34 34
66 69 71 73 75 78 79 79 80 80 79 77 74 70 65 60 53 49 46 44 42 41 40 39 37 36 36 35 34 33 33 33 33 33 33 33 32 33 33 33 33 34 33
69 72 74 76 78 80 81 82 80 77 74 71 67 63 58 53 48 45 43 41 40 40 39 38 36 35 34 33 33 32 32 32 31 32 32 32 32 32 33 33 33 33 32
72 75 77 79 81 82 82 82 80 76 70 64 59 55 51 47 44 42 41 39 38 38 38 37 35 34 33 32 32 31 31 31 31 31 32 32 32 32 32 32 32 31 31
76 78 80 82 82 82 81 79 75 70 65 59 52 48 46 42 40 40 39 38 37 37 36 35 34 33 32 32 31 31 30 30 31 31 31 31 31 31 31 31 30 30 30
79 81 82 83 82 81 78 74 69 64 58 53 47 44 41 38 37 36 36 37 36 36 35 34 33 32 31 31 31 30 30 30 30 30 30 29 29 30 30 30 30 30 30
82 82 83 82 80 77 73 68 62 57 53 47 43 40 38 36 35 34 34 35 35 34 33 32 31 31 30 30 30 29 29 29 29 28 27 27 27 28 28 29 29 30 30
83 82 81 78 75 71 66 62 56 52 47 43 39 36 36 35 34 34 34 33 33 33 32 31 30 30 30 29 29 29 29 28 27 27 26 26 27 27 28 29 29 29 29
81 79 76 73 70 65 60 55 51 47 43 39 36 34 34 33 33 33 33 32 32 31 31 30 29 29 28 28 28 28 27 27 26 26 26 26 27 28 28 29 29 29 30
78 75 71 68 64 59 54 49 45 42 39 36 34 33 33 32 31 31 31 31 30 30 29 29 28 27 27 27 27 26 26 26 26 26 26 27 27 28 29 29 30 30 31
73 69 65 61 57 52 47 43 40 37 35 34 32 32 32 31 31 30 30 30 30 29 28 27 27 26 26 26 26 26 27 26 27 27 27 28 28 29 30 30 31 32 32
66 63 59 54 49 45 42 39 36 34 33 32 31 31 31 30 30 29 29 29 28 27 27 27 27 26 26 26 26 27 27 27 28 29 29 29 30 30 31 31 32 32 33

GEFSGL_500_meanwind_090.txt.gz
Wind_Speed
40 42 43 44 45 46 47 47 47 48 49 49 50 50 51 52 54 55 56 57 59 61 62 64 66 68 70 72 74 75 77 78 80 78 79 81 83 83 83 82 82 80 79
42 44 45 46 47 47 48 48 49 49 50 50 51 52 53 54 55 57 58 59 61 63 64 66 68 70 72 74 75 76 77 79 81 81 80 81 82 82 82 80 78 76 74
44 46 47 47 48 49 49 50 50 50 51 52 53 54 55 56 57 59 60 62 63 65 67 69 70 72 74 75 76 77 79 81 82 83 82 81 80 79 77 75 73 71 69
46 47 48 49 49 50 50 50 51 52 52 53 54 56 57 58 59 61 62 64 65 67 69 71 72 74 75 76 77 79 81 82 83 83 82 79 76 73 72 70 67 64 61
47 48 49 49 50 50 51 51 52 53 54 55 56 57 59 60 62 63 65 66 67 69 70 72 74 75 77 78 80 81 82 83 82 81 78 74 70 68 66 63 60 57 55
48 49 49 50 51 51 52 53 54 55 56 57 58 59 61 62 64 65 67 68 70 71 73 74 76 77 79 81 82 83 83 82 80 77 73 69 65 62 60 57 54 51 48
48 49 50 51 51 52 53 54 55 56 57 58 60 61 62 64 66 67 69 71 72 74 76 77 78 80 82 82 82 81 80 78 75 72 67 62 58 55 53 50 48 46 43
49 50 50 51 52 53 54 55 56 57 58 60 61 62 64 66 68 70 72 73 75 77 79 80 82 82 82 82 80 78 74 70 67 64 60 55 52 49 47 46 44 42 40
49 50 51 52 53 54 55 56 57 58 59 61 62 64 66 68 71 73 75 77 78 80 81 83 83 82 81 79 76 72 66 62 59 56 52 49 47 45 44 43 41 39 36
49 50 51 52 53 55 56 57 58 60 61 63 64 67 69 71 74 77 80 81 82 83 83 82 82 79 76 72 68 63 58 54 51 49 46 45 43 42 41 40 38 36 34
49 50 51 53 54 56 57 58 60 62 63 65 67 69 72 76 79 81 84 85 85 84 82 80 76 73 68 64 60 56 52 49 46 44 42 41 40 39 38 38 36 35 33
50 51 52 54 56 57 58 60 62 64 66 68 71 73 76 80 83 84 86 86 85 83 79 74 70 65 60 56 53 50 48 45 43 41 39 37 37 36 35 35 34 33 32
51 52 54 55 57 58 60 62 64 67 70 72 75 78 80 83 85 86 86 84 82 78 73 68 62 57 53 50 48 46 44 42 41 39 37 36 35 34 33 32 32 31 31
52 53 55 56 58 60 62 65 68 71 74 78 81 83 84 85 86 85 83 80 76 71 66 61 55 51 48 46 43 42 41 40 38 37 35 33 32 31 30 30 30 29 29
53 55 56 58 60 62 65 68 72 75 80 83 85 87 88 87 85 83 80 75 70 65 59 53 49 45 43 41 40 39 38 37 36 35 33 31 30 29 29 28 28 28 27
54 56 58 60 63 66 69 72 76 80 83 86 87 88 88 86 83 78 74 69 63 57 53 47 43 41 39 38 37 36 35 35 34 32 31 29 28 28 28 27 27 27 27
57 59 62 65 68 71 75 78 80 82 84 86 87 86 85 82 77 72 67 61 55 50 46 43 40 38 36 35 34 34 33 33 32 30 29 28 28 27 27 27 27 27 27
60 63 66 70 73 77 80 83 85 86 86 84 84 83 80 76 70 65 60 54 48 45 42 39 37 35 34 33 33 33 32 31 30 29 28 28 27 27 27 27 27 26 26
65 68 71 75 78 81 84 86 87 88 87 84 81 76 72 67 62 57 53 48 43 40 37 36 34 33 33 33 32 31 30 29 29 28 27 27 26 26 26 26 26 25 25
69 73 76 79 82 84 86 87 87 86 84 79 74 68 63 59 54 50 46 43 40 37 35 33 32 32 32 32 31 30 29 28 27 27 26 26 25 25 25 25 25 25 24
74 77 80 82 84 86 87 86 84 81 76 71 65 60 57 53 48 43 40 37 36 34 33 31 31 31 31 30 29 28 27 26 26 25 25 25 25 25 25 25 25 24 24
78 80 82 84 86 86 84 82 78 73 68 64 58 53 50 47 43 39 36 34 33 32 31 30 29 29 29 29 28 27 26 25 25 24 24 24 24 24 24 24 24 25 25
81 83 84 84 84 82 79 75 70 66 61 57 53 48 45 42 39 36 34 32 31 30 30 29 29 28 28 27 26 26 25 25 24 24 24 24 24 24 25 25 25 25 26
83 83 83 82 80 77 73 68 63 59 55 51 48 44 41 38 36 33 32 30 30 29 29 29 28 27 27 27 26 25 25 24 24 24 24 24 24 25 25 25 26 26 26
82 82 81 79 75 70 65 61 57 53 50 47 43 41 38 36 33 31 30 29 29 28 28 28 27 27 26 26 25 25 25 25 25 25 25 25 25 25 26 26 26 27 27
80 79 76 72 67 63 59 55 52 48 45 42 40 38 36 33 31 30 29 29 28 27 27 27 27 26 26 25 25 25 25 26 26 26 25 25 25 25 26 26 27 27 28

GEFSGL_500_meanwind_096.txt.gz
Wind_Speed
39 40 41 42 44 45 46 47 48 49 50 51 52 52 52 52 52 52 53 53 54 55 56 57 58 59 60 61 63 64 65 67 68 68 70 71 72 73 73 73 73 74 75
40 41 42 44 45 46 47 48 49 51 52 52 52 52 52 53 53 53 54 55 56 56 57 58 59 60 61 62 63 65 66 69 71 71 72 73 75 76 77 77 78 79 79
41 42 44 45 46 47 48 49 51 52 52 53 53 53 53 53 54 55 55 56 57 57 58 59 60 61 62 63 65 67 69 71 73 75 75 76 77 79 80 81 82 82 82
42 43 44 46 47 48 49 50 51 52 53 53 53 53 54 54 55 56 56 57 57 58 59 60 61 62 64 66 68 70 72 74 76 78 78 79 80 81 83 83 82 80 79
42 44 45 46 48 49 50 51 52 52 53 53 53 54 55 55 56 57 57 57 58 59 60 61 63 65 67 69 72 74 76 79 80 81 81 81 81 82 82 81 79 76 73
43 44 46 47 49 50 50 51 52 52 52 53 53 54 55 56 57 58 59 59 60 61 62 64 66 69 71 73 76 78 81 83 84 84 83 82 81 80 78 75 72 69 64
44 45 47 48 49 50 50 51 51 52 52 53 55 56 56 57 58 59 60 61 63 64 66 68 70 73 75 78 80 82 83 85 85 85 83 80 77 74 71 67 64 60 55
44 46 47 49 49 49 50 50 51 53 54 55 55 56 57 59 60 62 63 64 66 67 70 72 75 77 80 83 84 85 84 83 82 81 78 74 70 67 63 60 56 52 48
46 47 47 48 48 49 50 51 53 54 54 55 56 58 59 60 62 64 66 67 69 71 73 76 80 82 84 87 87 86 83 79 77 75 72 67 63 60 57 53 50 47 43
46 46 47 47 48 49 51 52 53 55 56 57 58 60 61 63 65 67 70 72 74 75 78 81 84 87 87 87 86 83 79 74 71 67 63 59 56 53 50 48 45 43 40
46 46 47 48 49 50 52 53 55 56 57 59 60 61 63 66 68 71 74 77 79 81 83 84 86 87 86 83 81 78 74 70 65 60 55 51 49 46 44 43 41 40 37
46 46 47 49 50 51 53 55 56 58 59 60 62 63 66 69 71 74 77 81 83 85 86 86 86 84 81 78 75 72 68 63 58 53 48 45 42 41 39 38 37 36 35
46 47 48 50 51 53 55 56 58 60 61 63 65 67 69 72 75 78 81 83 85 87 87 86 83 79 76 72 68 64 60 55 50 46 42 39 38 37 35 34 34 33 32
47 48 49 51 53 55 56 58 60 62 64 66 69 72 74 76 78 81 83 84 86 86 85 81 76 72 68 63 59 55 51 47 44 40 37 35 34 34 33 32 31 30 29
48 49 51 53 54 56 58 60 62 64 68 71 73 76 78 80 81 84 85 86 86 84 80 74 69 64 59 54 51 47 44 41 38 36 34 32 31 31 30 29 28 27 26
49 51 53 55 57 59 60 62 65 68 71 74 77 80 82 83 84 85 85 84 82 78 73 67 62 57 53 48 44 41 38 36 34 33 32 31 29 29 28 28 27 26 25
51 53 55 57 59 61 64 66 68 71 74 77 80 82 84 85 85 84 82 79 75 70 65 60 56 52 48 43 40 36 33 32 31 30 29 29 28 27 26 26 25 24 23
53 55 57 60 62 65 68 71 74 76 77 78 81 83 84 83 82 81 78 73 67 62 59 56 52 47 43 40 36 33 30 29 29 29 28 27 27 25 24 24 23 23 22
56 58 60 63 66 69 72 75 78 80 82 82 81 81 81 81 79 75 71 67 61 57 54 51 47 43 40 36 33 30 28 28 28 28 27 26 25 24 23 23 22 22 21
58 61 64 67 70 74 77 79 81 83 83 82 80 79 78 77 73 68 63 60 56 53 50 46 42 39 36 33 31 28 27 27 27 27 26 25 24 22 22 21 21 20 20
62 65 68 72 75 78 80 82 82 82 81 80 78 77 76 72 67 61 57 54 51 49 45 41 38 35 33 31 29 28 27 27 26 26 25 24 23 22 21 20 20 20 20
66 69 73 76 79 81 82 82 82 81 80 79 76 73 70 65 60 55 52 49 47 44 41 38 35 33 31 30 28 27 27 26 26 25 24 23 22 21 21 20 20 20 20
71 74 77 80 81 82 81 81 81 80 78 75 71 67 62 57 53 51 48 45 43 40 38 35 32 30 30 29 28 27 26 25 25 24 23 22 21 21 20 20 20 20 20
76 78 80 81 81 81 81 80 78 76 73 69 64 60 56 52 50 47 44 42 40 37 35 33 31 30 29 28 27 26 25 25 24 23 23 22 21 21 21 22 21 21 21
78 80 81 81 81 80 79 76 73 69 66 62 58 55 52 49 46 43 41 39 37 35 33 31 30 29 28 27 26 25 24 24 23 23 22 22 22 22 22 22 22 22 22
80 80 80 80 79 76 73 70 66 63 60 57 53 50 47 44 42 40 38 36 34 32 31 30 29 28 27 26 25 25 24 23 23 23 23 22 23 23 23 23 23 23 23

GEFSGL_500_meanwind_102.txt.gz
Wind_Speed
33 34 34 35 37 38 38 39 40 41 42 44 45 46 47 48 49 49 50 50 50 51 51 52 52 52 53 54 54 55 56 58 58 58 60 61 63 64 65 67 68 70 71
34 35 36 36 37 37 38 39 41 43 44 45 46 47 47 48 49 50 50 50 51 51 52 52 52 53 54 55 56 57 58 60 61 61 63 65 66 68 70 71 73 75 77
34 34 35 36 37 38 40 42 43 44 45 45 46 47 48 49 50 50 51 51 51 52 52 53 54 55 55 56 58 59 61 62 64 65 67 69 71 73 75 76 78 79 81
34 35 35 37 39 40 41 42 43 44 44 45 47 48 49 50 50 51 51 51 52 52 53 54 55 56 57 59 60 62 64 65 67 69 71 73 75 77 79 80 81 81 81
35 35 36 38 39 40 41 42 43 44 45 46 47 49 49 50 51 51 52 52 53 54 55 56 57 58 60 62 63 65 67 69 71 74 75 77 78 80 82 83 83 81 80
35 36 37 39 40 41 42 42 43 44 45 47 48 49 50 51 52 52 53 53 54 55 56 58 59 61 63 64 66 69 71 74 76 79 80 81 82 83 83 83 82 79 75
36 37 38 39 40 41 42 43 44 45 47 48 49 49 50 52 52 53 54 55 56 58 59 61 62 64 66 68 70 72 74 77 80 82 83 83 83 83 83 80 77 74 70
35 36 38 39 40 41 42 44 45 46 47 48 49 51 52 53 54 55 56 58 59 60 62 64 65 67 70 72 74 76 78 80 81 83 83 83 82 80 78 75 71 67 62
36 36 38 39 41 42 44 45 45 46 47 49 50 52 53 54 56 57 59 60 61 63 65 67 69 71 73 76 78 79 80 81 81 81 81 80 77 74 71 67 62 58 53
36 37 39 40 42 43 44 45 46 47 48 50 51 53 55 56 58 59 61 63 65 66 68 70 72 73 76 78 80 81 81 80 79 78 76 72 69 65 61 57 54 50 46
37 38 39 41 42 43 44 45 46 48 49 51 53 55 56 58 60 62 64 67 68 70 71 72 74 76 78 79 80 80 79 78 76 73 69 65 61 56 52 49 47 44 39
37 39 40 41 42 43 44 46 47 49 51 53 54 56 58 60 62 65 67 69 72 73 74 75 77 78 78 78 78 77 76 74 71 67 62 58 53 48 45 43 40 37 34
38 39 40 41 42 44 45 47 48 50 52 54 56 58 60 63 65 68 70 72 74 76 77 78 78 78 78 76 75 74 72 69 65 60 55 50 46 43 41 38 35 33 30
38 39 41 42 43 44 46 48 50 52 55 57 59 61 64 66 68 71 73 74 76 78 79 79 78 77 75 73 71 69 66 62 57 53 48 45 42 39 36 34 31 29 27
39 40 41 43 44 46 48 50 52 55 57 60 62 65 67 69 71 74 76 78 79 80 80 79 77 74 72 69 66 62 59 55 51 47 44 41 38 35 32 30 28 26 24
40 41 43 44 46 48 50 52 54 57 60 63 65 68 71 73 75 77 78 80 80 80 79 76 73 70 67 63 59 55 52 49 46 43 40 37 33 30 28 27 25 24 22
41 43 44 46 48 50 53 55 57 59 62 65 68 71 74 76 78 79 80 80 79 77 75 71 68 64 60 56 53 50 47 44 42 39 36 32 29 27 25 24 23 22 20
43 44 46 49 51 53 56 58 61 63 66 68 71 74 76 78 79 80 80 79 76 73 70 66 62 59 55 52 49 46 43 40 38 34 31 28 26 25 23 22 21 20 19
45 47 49 52 54 56 59 62 64 67 70 72 74 76 78 79 79 78 78 76 72 68 64 61 58 54 51 48 45 41 38 36 33 30 28 26 25 23 22 21 20 18 18
47 50 52 54 57 60 63 66 69 71 73 75 77 78 78 78 77 75 73 70 66 63 60 56 53 50 47 43 40 37 34 32 30 28 26 24 23 22 20 19 18 17 17
50 53 55 58 61 63 67 70 72 74 76 77 77 77 78 76 74 70 67 64 61 58 55 51 48 45 42 39 36 33 32 30 28 26 25 23 22 21 19 18 18 17 16
53 56 58 61 64 67 70 73 75 76 77 77 76 75 74 71 68 64 62 59 56 53 50 47 43 40 38 35 32 31 29 27 26 25 23 22 21 20 19 18 17 17 16
56 59 62 65 68 70 73 75 76 77 76 75 73 71 68 65 62 60 57 54 51 48 45 42 39 36 33 31 29 28 27 25 24 23 22 21 20 19 18 17 17 16 16
60 63 65 68 71 73 75 76 76 75 73 71 69 66 63 60 58 56 53 50 47 44 41 37 34 31 30 28 26 25 25 24 23 22 20 20 19 18 18 17 17 17 16
63 66 68 71 73 74 75 74 73 71 69 66 63 61 59 56 54 50 47 44 41 38 35 32 29 27 26 25 24 24 23 22 21 20 19 19 18 18 18 17 17 17 17
66 68 71 72 73 73 72 71 68 66 63 60 58 56 53 51 47 44 41 39 35 32 29 27 26 25 24 23 22 22 21 20 20 19 18 18 18 18 18 18 18 18 18

GEFSGL_500_meanwind_108.txt.gz
Wind_Speed
33 34 35 35 36 36 37 37 37 38 39 39 40 41 41 42 43 43 44 45 46 47 47 48 48 48 48 49 49 50 51 51 51 51 53 54 55 57 58 60 61 62 64
32 33 33 34 34 35 35 36 37 38 39 39 40 41 42 43 43 44 45 46 47 48 48 48 48 49 50 50 51 51 52 54 55 55 56 57 59 61 62 63 64 66 68
31 31 32 32 33 34 35 36 37 38 38 40 41 41 42 43 44 45 46 47 48 48 48 49 50 50 51 52 53 54 55 57 58 58 59 60 62 64 65 67 69 71 73
30 31 32 32 33 34 35 36 37 38 39 40 41 42 43 44 45 46 47 47 48 48 49 50 51 52 53 54 55 57 58 59 60 61 62 63 65 67 70 72 73 74 76
30 31 32 32 33 34 35 36 37 38 40 41 42 42 43 44 46 47 47 48 49 50 51 52 53 54 55 57 58 59 60 62 63 65 66 67 69 71 74 75 76 76 76
30 30 31 32 33 33 35 36 38 39 40 41 42 42 44 45 46 47 48 49 50 51 52 54 55 56 57 59 60 62 64 65 67 68 69 71 73 75 76 76 77 76 75
30 30 31 32 33 34 35 37 38 40 41 42 42 44 45 46 47 48 49 50 51 53 54 55 56 58 60 62 63 65 66 67 70 72 73 74 75 75 76 76 76 75 73
29 30 31 32 34 35 37 38 39 40 41 42 43 44 46 47 48 49 51 52 53 54 56 57 59 61 63 65 66 67 68 70 72 74 75 75 75 76 76 75 74 72 68
29 30 31 33 34 35 37 38 39 40 41 42 44 45 47 48 50 51 52 54 55 56 58 60 62 64 66 68 69 70 71 72 74 75 76 76 75 75 73 72 70 67 63
30 32 33 34 35 36 37 38 40 41 42 44 45 47 48 49 51 53 54 56 57 58 60 63 65 67 69 70 72 74 75 75 75 75 75 74 73 70 68 67 65 62 58
32 33 34 35 36 37 38 39 40 42 43 45 46 47 49 50 52 54 56 58 59 61 63 66 68 70 71 73 75 76 77 76 75 74 72 70 67 65 63 60 58 55 51
33 34 35 36 37 37 39 40 42 43 45 46 47 48 50 52 54 56 58 61 63 65 67 69 71 72 73 74 75 76 76 75 73 71 68 65 62 59 56 54 52 49 45
34 35 36 36 37 38 40 41 42 44 45 46 48 50 51 53 56 58 61 63 66 68 70 72 73 74 74 75 75 74 73 72 70 67 63 60 57 54 51 49 46 43 40
34 35 36 37 38 39 40 42 43 44 46 48 49 51 53 55 58 61 64 67 69 71 73 74 74 74 74 74 73 72 70 68 65 61 58 55 53 50 47 44 41 38 35
35 36 36 37 39 40 41 42 44 45 47 49 51 54 56 58 61 65 68 70 72 74 75 75 74 74 73 72 70 68 66 62 59 56 54 51 48 45 42 39 36 34 31
36 36 37 38 39 40 42 43 45 47 49 51 54 56 59 62 65 67 70 72 74 75 75 75 74 72 70 69 67 63 60 57 54 52 49 46 43 40 37 35 32 30 27
36 37 38 39 40 41 43 45 47 49 51 53 56 59 62 65 67 69 72 73 74 74 74 73 71 69 67 65 61 58 55 52 50 47 44 42 39 36 33 31 29 26 24
37 38 39 40 41 43 45 47 49 51 53 56 59 62 64 67 69 71 72 73 73 72 72 70 67 65 63 60 56 54 51 49 46 43 40 37 35 32 29 27 25 23 22
38 39 40 42 44 45 47 49 52 54 57 59 62 64 67 69 71 72 73 73 71 69 67 65 63 61 58 55 53 51 48 45 42 39 36 33 31 28 26 24 22 21 20
39 40 42 44 45 47 49 52 55 57 60 62 64 66 69 70 71 72 72 70 68 66 63 61 59 57 54 51 49 47 44 40 37 34 32 29 27 24 22 21 20 19 18
40 42 44 45 47 50 52 55 57 60 62 64 67 69 71 72 72 71 68 66 64 61 59 57 54 51 49 47 45 41 38 35 32 30 27 25 23 21 20 19 18 17 16
42 44 46 47 50 53 55 58 60 63 65 67 69 71 72 71 69 67 64 61 58 56 54 52 49 47 45 43 39 36 33 30 28 26 24 22 21 20 18 17 16 15 14
44 46 48 50 53 55 58 60 63 65 67 68 70 71 70 67 64 61 58 56 54 52 50 48 45 43 41 38 34 31 29 27 25 23 21 20 19 18 17 16 15 14 13
46 48 50 53 56 58 61 63 65 66 68 69 70 68 65 62 59 56 54 52 50 48 46 44 42 40 37 33 30 28 26 24 22 20 19 18 18 17 16 15 14 13 13
48 50 53 56 58 61 63 64 66 67 69 69 67 64 60 57 54 52 50 48 46 44 42 40 38 36 33 30 27 25 24 22 21 19 18 17 16 16 15 14 14 13 12
51 53 56 59 61 62 64 65 67 67 67 65 62 58 55 52 50 47 45 44 42 40 38 36 34 31 28 26 25 24 22 21 20 18 17 16 15 15 14 14 13 13 13

GEFSGL_500_meanwind_114.txt.gz
Wind_Speed
32 33 33 33 33 33 34 34 35 35 36 36 36 37 37 37 37 38 39 40 41 42 43 43 44 46 47 48 48 48 48 49 49 49 50 52 53 54 55 57 58 59 60
31 31 31 32 32 32 33 34 34 35 35 35 36 36 37 37 38 39 40 40 41 42 43 44 46 47 47 48 49 49 50 50 51 51 53 54 55 57 58 59 60 62 64
29 29 30 30 30 31 32 33 33 33 34 35 36 36 37 37 38 39 40 41 42 43 44 45 46 47 48 49 50 50 51 53 54 55 55 57 58 59 60 62 64 66 67
28 28 29 29 30 30 31 32 32 33 34 34 35 36 37 38 39 40 40 41 42 44 45 46 47 49 50 50 51 52 54 55 56 57 58 59 61 63 65 66 67 69 70
27 27 28 28 29 30 31 31 32 32 33 34 35 36 37 38 39 39 40 42 43 44 46 47 49 50 51 52 53 54 56 57 59 60 61 63 65 67 69 70 71 71 71
26 26 27 28 28 29 30 31 32 32 33 34 35 36 37 38 39 40 41 43 44 45 47 49 50 52 52 54 55 56 58 60 61 63 65 67 69 71 72 72 73 73 73
26 26 27 27 28 29 30 31 32 32 33 34 36 37 38 39 40 41 42 44 45 47 49 50 52 53 54 55 57 59 61 63 66 68 69 71 73 73 74 74 75 75 75
26 26 27 27 28 29 30 31 32 33 34 35 36 38 39 40 41 42 43 44 46 48 50 52 53 54 56 58 59 61 63 66 68 71 72 73 74 74 75 75 75 74 72
26 26 27 28 28 29 30 31 33 34 35 36 37 38 39 40 41 43 44 46 47 49 51 53 54 56 59 61 63 64 66 68 70 72 73 74 74 75 75 75 73 72 68
26 27 27 28 29 30 31 32 33 34 35 36 38 39 40 41 43 44 45 46 48 50 52 54 57 59 61 63 65 67 69 70 71 72 73 74 74 74 73 72 71 68 65
26 27 28 29 30 31 32 33 34 35 36 37 38 39 41 42 43 45 47 48 50 52 54 56 59 61 63 66 68 70 71 72 73 73 73 73 71 70 69 68 65 63 59
27 28 29 30 31 31 33 34 35 36 37 38 39 40 41 43 44 46 48 50 52 54 56 59 61 64 66 68 70 71 73 73 73 73 71 69 67 65 64 62 59 57 54
28 29 30 30 31 32 33 34 35 36 37 38 39 40 42 43 45 47 50 52 54 56 59 61 63 66 68 70 71 72 73 73 73 71 67 64 63 61 59 57 54 51 48
29 30 31 31 32 33 34 35 36 37 38 38 39 41 42 44 47 49 52 54 56 59 61 63 65 68 70 71 71 72 73 72 69 66 63 61 59 57 54 52 49 46 43
30 31 31 32 32 33 34 35 36 37 38 39 40 42 44 46 49 52 54 56 58 60 63 65 67 69 69 70 71 71 70 67 64 62 60 58 55 53 50 48 44 41 38
30 30 31 32 33 34 35 35 36 37 38 40 42 44 46 49 51 54 56 58 60 62 65 67 68 69 69 70 69 67 64 61 60 58 56 53 50 48 46 43 39 36 34
29 30 31 32 33 34 35 35 36 38 40 42 44 46 48 51 53 55 57 60 62 65 67 68 69 69 68 67 64 61 58 57 55 53 51 48 46 43 40 37 34 32 30
30 31 32 32 33 34 35 36 38 39 41 43 46 48 50 52 55 57 59 62 65 67 67 67 67 66 64 61 58 56 54 52 51 48 46 44 42 39 35 33 31 28 26
30 31 32 33 34 35 36 37 39 41 43 45 47 50 52 54 56 59 61 64 65 66 66 65 63 61 58 55 54 53 50 48 46 44 42 40 37 34 32 29 27 24 21
31 31 32 33 34 35 37 38 40 43 45 47 49 52 54 56 58 61 63 64 65 64 63 61 58 56 54 52 51 49 46 44 42 41 39 36 33 31 28 25 23 20 18
31 32 33 34 35 37 38 40 42 45 47 49 51 54 56 58 60 62 63 64 63 61 59 57 54 52 51 49 47 44 42 41 39 37 35 32 30 27 24 21 19 17 15
31 32 33 35 36 38 40 42 45 46 48 51 53 55 57 59 61 62 63 62 61 58 55 53 51 49 47 46 44 41 39 38 36 34 32 29 26 23 21 18 16 15 14
32 33 35 36 38 40 42 44 46 48 50 52 55 56 58 60 61 61 60 59 56 53 52 50 48 47 45 43 41 39 37 35 33 31 28 26 23 20 17 15 14 13 13
33 35 36 38 40 42 43 45 47 49 52 54 56 58 59 60 60 59 57 55 52 50 49 47 45 43 42 39 38 36 34 32 30 27 25 22 20 17 15 14 13 12 11
35 36 38 40 41 43 44 46 48 51 54 56 57 58 59 58 58 56 55 53 50 47 45 43 41 40 37 36 34 33 31 28 25 23 21 19 17 15 14 13 12 11 10
36 38 39 40 42 44 46 48 51 54 56 57 58 58 57 56 55 54 53 50 46 44 41 40 38 36 34 32 30 28 26 24 22 20 18 16 15 14 12 11 11 10 10

GEFSGL_500_meanwind_120.txt.gz
Wind_Speed
37 37 37 37 36 36 36 37 37 36 36 36 35 35 36 36 36 37 38 38 39 39 40 41 42 43 44 45 46 47 48 48 48 48 49 50 51 52 52 53 54 55 56
36 35 35 35 35 35 35 35 35 35 34 34 34 35 35 35 36 37 38 38 39 40 41 41 42 44 45 46 47 48 49 50 50 50 51 52 53 54 55 56 57 58 60
34 34 34 33 34 34 34 33 33 33 33 33 33 33 34 35 36 37 38 39 39 40 41 42 43 44 45 47 48 49 51 51 52 52 53 54 56 57 58 59 61 62 63
33 33 32 32 32 32 31 32 32 32 32 32 32 32 33 34 35 37 38 39 40 41 41 43 44 45 46 48 49 50 51 52 53 54 56 57 58 60 62 63 63 64 64
31 31 30 30 30 30 30 30 30 30 31 31 31 32 33 34 35 36 37 39 40 41 42 44 45 46 47 49 50 51 53 54 55 57 58 60 62 63 64 65 65 65 66
29 29 29 29 29 29 29 29 29 30 30 31 31 32 33 34 35 36 38 39 40 41 43 44 46 47 48 50 51 53 54 56 58 59 61 63 64 65 66 67 68 69 69
28 28 28 28 28 28 28 28 29 29 30 30 31 32 33 34 35 37 38 40 41 42 43 45 47 48 49 51 52 54 56 58 60 62 63 65 66 67 69 69 70 71 71
28 28 28 27 27 27 28 28 29 29 30 31 32 33 34 35 37 38 39 41 42 43 45 46 47 49 50 52 54 56 58 60 62 64 66 68 69 70 71 72 72 72 72
28 28 27 27 27 27 28 28 29 30 30 31 32 33 35 36 37 38 40 41 42 44 45 47 48 50 52 54 56 58 60 62 64 66 68 69 70 72 72 73 73 73 71
28 27 27 27 27 27 27 28 29 30 31 32 32 34 35 36 37 39 40 41 43 44 46 47 49 51 53 56 58 59 61 63 66 68 69 70 71 72 72 72 72 70 67
28 27 27 27 27 27 28 29 29 30 31 32 33 34 35 37 38 39 40 41 43 45 46 48 50 52 55 57 59 61 63 65 67 69 70 71 71 71 70 69 67 65 62
28 28 28 28 27 28 29 29 30 31 32 32 33 34 36 37 38 39 41 42 44 45 47 49 51 53 56 58 60 62 64 66 68 68 69 69 68 67 65 64 62 60 58
28 28 28 28 28 28 29 29 30 31 32 33 34 35 36 37 39 40 41 43 45 46 48 51 53 54 57 59 61 63 65 67 67 67 66 66 64 62 61 60 59 57 55
28 28 28 28 28 29 29 30 30 31 32 33 34 35 36 37 39 40 42 44 45 47 50 52 53 56 58 60 62 64 66 66 65 65 64 62 60 59 58 57 55 53 50
28 28 28 29 29 29 29 30 31 32 32 33 35 36 37 38 39 40 43 44 46 49 51 53 55 57 59 61 63 65 65 64 64 63 61 59 58 56 54 52 50 48 45
28 28 29 29 29 29 30 31 31 32 33 34 35 36 37 38 39 41 43 45 48 50 52 54 56 58 60 62 63 63 63 62 61 60 58 56 54 51 49 48 46 44 41
28 28 28 29 29 30 30 31 32 33 34 35 36 36 37 39 41 43 45 47 49 51 53 55 58 60 61 62 62 62 61 60 59 57 54 52 50 48 47 45 43 41 38
28 28 28 29 29 30 30 31 32 33 34 35 36 37 39 40 42 44 46 48 50 53 55 57 59 60 61 61 61 61 59 57 55 52 50 48 47 46 45 43 40 37 34
28 28 28 29 29 30 31 32 33 33 34 36 37 38 40 41 42 44 47 49 52 54 56 58 59 60 60 60 60 58 56 53 51 49 47 46 45 44 41 38 35 33 31
28 28 28 29 29 30 31 32 32 33 35 36 37 38 39 41 43 46 49 51 54 55 57 58 59 59 58 57 56 55 52 49 47 45 44 43 41 39 36 34 32 30 27
27 27 28 29 30 30 31 31 33 34 35 36 37 39 41 43 45 48 50 53 55 57 58 58 58 57 56 55 53 51 48 45 43 42 40 39 37 35 33 30 28 26 23
27 27 28 28 29 30 31 32 33 34 35 36 38 40 42 44 47 50 52 55 57 58 57 57 56 55 54 52 50 47 44 42 40 39 37 35 33 31 29 27 24 21 19
26 27 27 28 29 30 31 32 33 34 36 37 39 42 44 46 49 51 54 56 57 57 56 55 54 53 51 49 47 43 41 38 37 36 34 32 31 28 26 23 20 18 15
26 27 27 28 29 30 32 33 34 36 37 39 41 43 46 48 50 53 55 57 57 56 54 53 52 50 48 45 41 39 37 35 34 33 31 30 28 25 22 20 18 15 13
26 27 28 29 30 31 33 34 35 37 39 40 42 45 47 49 52 55 56 57 55 54 52 50 49 47 44 40 38 37 35 33 32 31 29 28 25 23 20 18 16 13 12
26 27 28 30 31 32 33 35 36 38 40 41 44 46 49 51 54 56 56 55 53 51 49 47 45 43 40 38 36 34 33 31 30 28 27 26 23 21 18 16 14 12 10

GEFSGL_500_meanwind_126.txt.gz
Wind_Speed
44 43 42 42 41 40 39 39 38 38 37 37 36 36 36 36 36 36 36 36 36 36 36 36 36 37 37 38 40 41 43 44 45 46 48 49 50 52 52 53 54 55 56
42 42 42 41 40 40 39 38 37 37 36 36 36 35 35 35 36 36 36 36 36 36 36 36 36 37 38 39 41 43 44 45 47 48 50 51 52 54 55 56 57 58 59
42 42 41 40 39 38 37 37 36 36 35 35 35 35 35 36 36 36 36 35 36 36 36 36 37 38 39 41 42 44 45 47 48 50 51 53 54 56 57 58 59 61 61
41 40 39 38 37 36 36 35 35 35 34 34 34 35 35 35 35 35 35 35 35 35 36 37 38 39 41 42 43 45 47 48 50 51 53 54 56 58 59 60 61 63 63
39 39 38 37 36 36 35 35 34 35 34 34 34 34 34 34 34 34 34 35 35 36 37 37 38 40 41 43 44 46 48 50 51 53 55 57 58 60 61 63 64 65 65
37 37 36 35 35 34 34 34 34 34 33 33 33 33 33 33 33 33 34 34 35 36 37 38 39 40 42 44 46 48 49 51 53 55 57 58 60 62 64 65 65 66 66
35 35 34 34 33 33 33 33 33 32 32 32 32 32 32 32 32 33 33 34 35 36 37 38 39 41 43 45 47 49 51 53 55 56 58 60 62 63 65 65 65 65 66
34 34 33 33 32 32 32 32 32 31 31 31 31 31 31 32 32 33 34 34 35 36 37 39 40 42 44 46 47 49 52 54 55 58 60 62 63 64 65 65 65 66 67
33 33 32 32 31 31 31 31 30 30 30 30 30 30 31 31 32 33 34 34 35 36 38 39 41 42 44 46 48 50 53 54 57 59 61 62 63 64 65 65 66 66 65
32 32 31 31 30 30 30 30 30 30 30 30 30 30 30 31 32 33 33 34 35 37 38 40 41 43 45 47 49 52 53 56 58 60 61 63 64 65 65 65 65 65 64
32 31 30 30 29 29 29 29 29 29 29 29 29 30 30 31 32 32 33 34 35 37 39 40 42 44 46 49 51 52 55 57 59 61 62 63 64 64 64 64 63 63 62
31 30 30 29 29 29 29 28 28 28 28 29 29 30 30 31 32 33 34 35 36 38 39 41 43 45 47 49 51 54 56 59 60 62 63 63 64 63 62 62 61 60 59
31 30 29 29 28 28 28 28 28 28 28 29 29 29 30 31 32 33 34 35 37 38 40 42 44 46 48 50 52 55 57 59 61 61 62 63 63 62 60 59 58 58 56
31 30 29 28 28 27 27 27 27 28 28 28 29 29 30 31 32 33 34 36 37 38 40 43 45 47 49 51 53 56 57 59 60 61 62 62 61 59 58 57 56 54 52
30 30 29 28 28 28 27 27 27 28 27 28 29 30 30 31 32 33 34 36 37 39 41 43 45 47 49 52 54 56 58 59 60 60 60 60 58 56 55 54 53 50 49
30 29 29 28 28 27 27 27 28 28 28 28 29 30 30 31 32 33 35 36 38 39 41 44 46 48 50 52 55 58 59 59 59 59 58 56 55 53 53 52 50 47 45
30 29 29 28 27 27 27 28 28 28 28 29 29 30 30 31 33 34 35 37 38 40 42 44 46 49 51 54 57 59 58 57 57 56 55 54 53 51 50 48 45 43 41
30 29 28 28 27 27 27 28 28 28 28 29 29 30 31 32 33 34 36 37 38 40 42 44 47 51 53 56 58 58 57 56 55 54 53 51 49 47 46 43 40 38 36
30 29 29 28 27 27 27 27 27 28 28 29 29 30 31 32 33 34 36 37 39 41 44 47 50 52 54 57 58 57 55 53 53 52 50 48 45 43 41 39 37 35 34
29 29 29 28 27 27 27 27 27 27 28 28 29 30 31 32 33 34 36 38 40 43 46 49 51 53 55 57 57 55 53 51 50 49 47 44 42 40 38 36 35 33 32
28 28 28 27 27 27 27 27 27 27 28 28 29 30 30 31 33 35 37 39 42 45 47 50 52 54 55 56 55 53 50 49 48 46 43 41 38 37 36 34 33 31 29
27 27 27 27 27 26 26 26 27 27 27 28 29 29 30 32 34 36 39 41 44 46 49 51 53 54 55 55 53 50 48 47 45 41 39 37 36 35 34 32 31 28 25
26 26 26 26 25 25 25 26 26 26 26 27 29 30 32 34 36 38 40 42 45 47 49 51 53 54 54 53 51 48 46 44 41 38 36 35 34 33 32 30 28 25 22
25 25 24 24 24 24 24 25 25 26 26 28 30 31 33 35 36 38 40 43 45 48 50 51 52 53 53 50 47 45 43 40 37 35 35 34 33 31 30 28 25 22 19
24 23 23 23 23 23 24 24 25 26 27 29 30 31 33 35 36 39 41 43 46 48 50 51 51 51 49 47 44 41 39 37 35 34 33 32 30 29 28 25 22 20 17
23 22 22 23 23 23 24 24 25 26 28 29 30 31 33 35 37 39 42 44 47 48 49 49 49 47 45 43 40 38 37 35 34 32 31 30 29 27 25 23 20 17 15

GEFSGL_500_meanwind_132.txt.gz
Wind_Speed
50 49 48 47 45 44 43 42 41 41 40 39 38 37 37 36 36 36 36 36 36 36 37 37 38 38 39 39 40 40 41 42 42 43 44 45 47 49 51 52 54 55 57
50 49 48 47 46 45 44 42 42 41 39 38 38 38 38 37 36 36 36 36 36 36 37 38 38 38 39 39 40 40 41 42 43 44 45 47 49 51 53 54 56 58 60
51 50 49 48 47 46 45 44 42 41 40 39 39 39 38 37 36 36 36 36 36 37 37 37 38 38 38 39 40 40 41 43 44 45 47 49 51 53 55 57 59 61 62
50 49 48 48 46 45 44 43 42 40 40 39 39 38 37 36 36 36 35 35 36 36 36 37 37 37 38 38 39 40 42 43 45 46 48 51 53 55 57 59 61 62 64
49 48 47 46 45 44 43 41 40 39 38 38 37 36 36 36 36 35 35 35 35 35 36 36 37 37 37 38 40 41 43 44 46 48 50 52 55 57 59 61 62 63 64
48 47 45 45 45 44 42 41 40 39 37 37 36 35 35 35 34 34 35 34 35 35 35 35 36 37 38 39 40 41 43 45 47 49 51 54 56 58 61 63 64 65 64
45 45 44 42 42 42 41 40 39 37 36 35 34 34 34 33 34 34 34 34 34 34 34 35 36 37 38 39 41 42 44 46 48 51 53 55 58 60 63 64 65 64 63
42 42 41 40 39 38 38 37 37 36 35 34 34 33 33 33 32 33 33 33 33 33 34 35 36 37 38 40 41 43 45 48 50 52 55 57 59 62 63 64 64 62 62
40 39 38 38 37 37 36 35 35 35 34 34 33 33 32 32 31 31 32 32 32 33 34 35 36 37 39 40 42 44 46 49 51 53 55 58 60 62 63 62 62 61 61
38 37 37 36 36 35 35 34 34 33 32 32 32 31 31 30 30 30 31 31 32 33 34 35 36 38 39 41 43 45 47 49 52 54 57 59 61 62 62 62 62 61 61
36 36 35 35 34 34 33 33 32 31 31 31 30 30 29 29 29 29 30 31 32 33 34 35 37 38 40 42 44 46 48 50 52 55 58 61 61 61 61 61 61 60 59
35 34 34 33 33 32 32 31 30 29 29 29 28 28 28 28 28 29 30 31 32 33 34 35 37 39 41 43 45 47 48 51 54 57 59 61 61 60 60 60 59 58 58
33 32 32 31 31 30 30 29 28 28 28 27 27 27 27 27 28 29 30 31 31 33 34 36 38 40 41 43 45 47 49 53 56 58 59 59 59 58 58 58 57 56 56
31 31 30 30 29 28 27 27 27 26 26 26 26 26 26 27 28 29 30 30 31 33 35 37 38 40 41 43 46 48 51 54 56 57 57 57 58 57 57 56 55 54 53
30 30 29 28 27 26 26 26 25 25 25 25 25 25 26 27 28 29 29 30 32 33 35 37 38 40 42 44 46 49 52 54 56 56 56 57 57 56 55 55 54 52 50
30 29 28 27 26 26 25 25 24 24 24 24 24 25 25 26 27 28 29 31 32 34 35 37 38 40 42 44 47 50 53 54 55 55 56 56 56 54 55 54 52 50 48
30 29 28 27 26 25 25 24 23 23 23 23 24 25 25 26 27 28 29 31 32 34 35 36 38 40 42 45 48 51 53 55 55 55 55 55 54 53 54 52 49 46 45
30 29 28 27 25 25 24 24 24 23 24 24 24 25 26 26 27 28 29 30 32 33 35 36 38 41 43 47 49 52 53 54 54 54 54 53 53 52 52 49 46 43 42
30 29 28 26 25 25 24 24 24 24 24 24 24 25 25 26 27 28 29 30 31 33 35 37 39 41 44 47 49 51 52 53 53 52 52 52 51 51 49 46 43 41 39
30 29 28 27 25 25 25 24 24 24 23 23 23 24 24 25 26 27 28 30 32 34 35 37 39 42 44 47 49 50 52 52 52 51 51 50 49 48 45 43 41 38 37
30 29 27 26 25 25 25 24 23 23 22 22 23 23 23 24 25 26 28 30 32 33 35 37 39 42 44 47 49 50 51 51 50 50 49 47 46 44 42 40 39 37 36
30 28 27 25 24 24 24 23 23 22 22 22 22 22 23 24 25 27 28 29 31 33 35 37 40 42 45 47 48 49 50 49 48 47 46 44 42 41 40 39 38 36 35
30 28 26 25 24 24 23 23 22 22 22 22 22 22 23 24 25 26 28 29 31 33 35 37 40 42 44 46 48 48 48 48 47 45 43 42 41 40 39 38 37 35 33
29 27 26 25 24 23 23 23 22 22 22 21 21 22 23 24 25 26 28 29 31 33 36 38 40 43 44 46 47 47 47 46 45 43 42 41 40 39 38 37 35 32 30
29 28 27 25 24 23 23 22 22 22 21 21 21 22 23 24 25 26 28 30 32 34 36 38 41 43 45 46 47 47 46 45 44 42 41 40 39 37 36 35 32 29 27
28 27 26 25 24 23 22 22 22 21 21 21 21 22 23 25 25 27 28 31 33 35 37 39 41 43 45 46 46 46 46 45 43 41 40 38 37 35 34 32 29 27 25

GEFSGL_500_meanwind_138.txt.gz
Wind_Speed
50 48 46 44 43 42 41 39 38 36 36 35 35 35 36 36 36 36 36 36 36 36 36 36 36 37 37 38 38 39 39 39 40 40 42 42 43 45 47 49 51 53 55
51 50 48 46 45 43 41 40 39 38 37 37 36 36 36 36 36 36 36 36 36 36 36 37 37 37 37 37 38 39 39 40 41 41 42 43 44 46 48 50 52 55 57
51 50 49 47 45 44 42 41 40 39 38 37 37 37 36 36 36 36 36 36 36 36 37 36 36 37 37 37 38 38 39 41 41 42 42 44 45 47 49 51 54 57 60
52 51 50 48 46 45 44 43 42 42 40 39 38 38 37 37 37 36 36 36 36 36 37 36 36 36 37 38 37 37 39 40 41 42 43 45 47 49 51 53 56 59 61
51 51 49 47 46 46 46 44 44 43 41 40 40 40 39 38 37 36 37 36 36 37 36 35 35 36 36 37 37 37 39 40 41 43 44 46 48 50 52 55 57 60 61
51 50 49 47 46 46 46 45 44 43 42 42 41 40 39 38 37 37 36 37 36 36 35 35 35 35 36 37 37 37 38 40 42 43 45 47 49 52 54 57 58 60 61
52 51 50 48 47 46 46 45 44 44 43 41 40 39 39 38 37 36 36 35 35 35 34 35 35 36 36 36 36 37 39 41 42 44 46 48 51 53 56 58 59 61 61
51 50 50 49 47 46 46 45 43 43 42 41 40 39 39 38 37 36 35 35 34 34 34 34 34 35 36 36 37 38 40 42 43 45 48 50 52 55 57 59 60 60 60
50 50 49 49 48 47 46 45 43 42 41 40 39 39 38 37 36 35 34 34 34 34 34 34 34 35 35 36 37 39 41 42 44 46 49 51 54 56 58 58 58 58 58
48 48 47 47 47 45 43 43 42 41 40 39 38 37 36 35 34 33 33 33 33 34 33 33 33 34 35 36 38 39 41 43 45 47 50 52 54 57 58 58 57 57 58
45 45 44 44 43 43 42 41 41 41 40 39 37 36 35 34 33 32 32 33 32 32 32 33 34 34 35 36 37 39 41 43 45 47 50 52 55 56 57 56 55 56 57
43 43 43 42 42 41 41 40 39 39 38 37 35 35 34 33 32 31 31 31 32 32 32 33 33 34 35 36 37 39 42 43 45 48 50 53 55 55 55 55 55 56 56
42 41 41 41 40 39 39 39 38 37 36 35 34 33 32 31 31 31 31 31 31 32 32 32 33 34 35 36 37 39 41 44 46 48 51 53 54 53 54 54 55 55 55
40 39 39 39 38 38 37 36 35 34 34 33 32 31 30 30 30 30 30 30 31 31 31 31 32 34 35 36 38 39 41 44 46 49 50 52 52 53 53 53 54 54 55
38 37 37 36 36 35 35 34 33 31 31 31 30 30 29 29 29 29 29 29 30 30 31 31 33 33 35 36 37 39 42 44 46 48 50 51 52 52 52 52 52 53 54
38 37 35 35 35 33 32 31 31 30 29 29 28 28 27 27 27 27 28 28 29 30 30 31 31 33 34 35 37 40 42 44 46 48 49 50 51 51 50 51 52 53 53
36 36 35 34 33 32 31 30 29 28 28 27 26 26 26 26 26 26 27 28 28 28 29 29 30 32 33 35 37 39 41 43 45 47 48 50 50 50 50 51 52 53 52
36 35 34 33 32 31 29 29 28 27 26 26 26 25 25 25 25 26 26 26 26 27 27 28 30 31 33 34 36 38 40 42 45 47 48 49 50 50 50 51 51 51 50
36 35 34 32 32 31 29 28 27 26 26 26 25 25 24 24 24 24 24 25 25 25 26 28 29 30 32 34 35 38 40 43 45 47 48 49 49 49 49 50 50 49 47
35 35 34 33 32 30 29 28 26 26 25 25 25 23 23 23 23 23 23 23 24 25 26 27 28 30 31 33 35 38 41 43 46 47 48 48 48 48 48 49 48 46 44
34 34 33 33 31 30 29 27 26 25 25 25 24 23 22 21 21 21 22 22 23 24 25 26 28 29 31 33 36 38 41 44 46 47 48 48 48 47 47 47 45 43 41
34 34 32 31 30 29 28 27 26 25 24 24 23 22 21 20 20 21 21 21 22 23 24 26 27 29 31 34 36 39 42 44 46 47 48 47 46 46 45 44 43 42 40
33 33 32 31 29 28 27 26 25 24 23 22 21 20 20 20 20 20 20 20 21 23 24 25 28 30 32 34 37 40 42 44 46 47 47 46 45 44 43 43 42 41 39
32 31 30 29 29 27 26 25 24 23 22 21 20 19 19 19 19 19 20 20 21 23 24 26 28 30 32 35 38 40 42 44 46 47 46 44 43 43 42 42 40 38 36
31 31 30 29 28 27 26 26 24 23 22 21 20 19 19 19 19 19 19 20 22 23 24 26 28 31 33 36 38 40 42 44 45 45 44 43 43 42 41 39 38 36 35
31 30 30 30 28 27 26 25 24 22 21 20 19 19 19 18 18 19 19 21 22 24 25 27 29 31 33 36 38 41 42 44 44 44 43 42 42 40 39 37 36 35 34

GEFSGL_500_meanwind_144.txt.gz
Wind_Speed
56 55 53 52 50 48 47 44 43 42 41 41 41 40 39 38 37 36 36 36 37 36 36 36 36 36 37 37 38 39 40 41 42 42 43 43 44 45 45 47 49 51 54
55 54 53 52 52 49 47 45 44 42 41 41 41 40 39 38 37 36 36 36 37 37 37 36 36 37 37 38 38 39 40 41 42 42 43 43 44 45 46 48 50 53 55
55 54 53 52 52 50 48 46 45 43 42 41 41 40 38 37 36 36 36 36 36 37 36 36 36 37 37 38 39 40 40 42 42 42 43 43 44 46 47 49 52 54 56
56 55 53 53 52 51 49 47 45 44 43 41 40 39 38 37 37 36 36 36 36 36 36 36 37 37 37 38 39 40 41 41 41 42 42 43 46 47 49 50 52 55 56
57 55 54 52 52 52 51 48 46 45 43 41 40 39 38 38 37 36 36 36 36 37 37 37 37 37 37 38 39 39 40 40 41 42 43 45 46 47 49 51 53 55 56
56 54 53 52 52 52 51 49 47 45 45 43 40 40 40 39 38 37 37 36 37 37 36 35 36 37 37 37 38 39 39 40 40 41 43 45 46 48 50 52 54 55 56
55 54 53 52 52 52 51 49 48 46 44 44 43 41 41 39 38 37 37 38 37 37 36 35 35 36 36 37 38 38 39 40 41 42 43 45 47 49 51 53 54 55 56
54 54 54 53 52 51 51 49 48 46 45 45 45 43 42 41 40 40 39 38 37 36 36 35 35 35 36 37 37 38 39 40 41 42 44 46 47 50 51 53 54 56 57
54 54 53 53 53 52 51 50 48 47 46 45 44 44 43 43 42 41 39 37 37 36 35 34 34 35 35 36 37 38 38 39 41 42 44 45 47 49 51 53 54 55 57
54 54 53 53 53 52 51 50 50 48 46 46 45 43 43 42 41 40 39 38 37 36 35 34 34 35 35 36 37 37 38 39 41 42 43 45 47 49 51 52 54 55 56
52 53 53 52 52 52 51 50 49 48 47 46 44 43 43 42 41 40 39 38 36 35 34 34 34 35 35 36 36 37 37 39 41 42 44 45 47 48 50 52 53 55 56
50 51 51 51 51 51 51 50 48 47 47 45 44 43 42 41 40 39 37 36 35 34 33 34 34 34 35 36 35 36 37 38 40 42 43 45 46 48 50 52 53 54 55
48 49 49 49 49 49 49 49 48 47 46 44 42 41 40 39 39 38 36 35 34 33 33 33 33 34 34 33 34 35 37 38 40 41 43 44 46 48 51 52 53 54 55
47 47 48 48 46 46 47 47 46 45 44 42 40 39 38 37 36 35 34 33 32 31 32 32 32 32 32 32 33 35 36 38 40 41 42 44 46 49 50 51 53 53 55
45 46 46 46 46 44 44 44 44 43 41 41 39 38 37 35 33 32 31 30 30 30 30 30 30 30 30 32 33 34 36 37 38 39 41 44 46 48 50 51 52 53 54
44 44 45 45 44 43 43 43 42 41 40 39 38 36 34 32 31 30 29 28 28 28 28 28 28 28 29 30 32 33 35 36 37 39 42 44 46 49 50 51 52 53 53
43 43 43 43 42 41 41 41 40 39 38 37 35 33 31 30 29 29 27 26 26 26 26 26 27 28 29 30 31 32 34 35 37 39 41 44 46 48 50 50 52 52 52
41 41 41 41 41 40 40 39 38 37 35 34 32 31 30 29 28 27 26 25 25 25 25 26 26 27 28 29 30 31 33 35 37 39 41 44 46 48 49 50 51 51 51
39 39 40 40 39 39 39 37 36 35 33 32 31 30 29 28 27 25 24 24 24 24 24 24 25 26 27 28 29 30 32 34 37 39 41 44 46 48 49 50 50 51 51
40 40 41 40 38 37 36 36 35 33 32 31 29 28 28 26 25 24 24 23 23 23 23 23 24 24 25 27 28 30 33 35 37 39 41 43 46 48 48 49 50 50 49
40 40 40 39 37 36 34 33 32 32 30 29 28 27 26 25 23 23 22 22 22 22 22 22 22 24 25 27 28 31 33 35 37 39 41 43 46 47 47 48 49 49 46
38 38 38 37 36 34 32 31 31 30 29 28 26 25 24 23 22 22 21 21 20 20 20 21 22 23 25 26 29 31 33 35 37 39 41 43 45 46 47 48 48 46 44
36 37 37 36 35 34 32 31 29 28 27 26 24 24 23 22 21 20 19 19 18 18 19 19 21 22 24 26 29 31 33 35 37 39 41 43 44 45 47 47 46 44 42
35 35 35 34 33 32 31 30 29 27 26 25 24 23 22 21 20 18 18 18 17 17 18 19 20 22 24 27 29 31 33 34 37 39 41 42 43 45 46 46 44 42 41
33 33 32 32 31 31 30 29 28 26 25 23 22 21 20 20 18 17 17 17 16 17 18 19 20 22 25 27 29 30 32 34 37 39 40 41 43 45 45 44 42 40 40
32 31 31 30 29 29 28 27 26 25 24 22 21 20 20 18 18 17 17 17 17 17 18 19 21 22 25 27 28 30 32 34 36 38 40 41 43 44 43 42 40 39 39

GEFSGL_500_meanwind_150.txt.gz
Wind_Speed
61 62 60 59 57 54 52 51 50 49 49 47 46 45 43 42 41 40 40 39 38 37 36 36 35 35 36 36 36 36 37 38 38 39 40 40 41 43 44 45 45 46 48
61 61 61 59 58 55 52 50 51 50 49 48 47 46 45 43 42 41 40 39 38 37 36 36 36 36 36 36 36 36 37 38 38 39 39 40 42 43 44 44 46 47 49
60 61 61 60 59 56 53 51 51 51 49 49 48 46 44 42 42 41 40 39 38 37 36 36 36 36 35 36 37 37 38 38 38 39 40 41 42 43 44 45 46 48 49
57 60 60 60 59 57 54 52 50 50 50 49 48 46 44 42 41 41 40 39 38 37 37 35 35 35 36 36 37 38 38 38 39 40 40 41 42 43 44 45 47 48 49
55 56 57 58 59 59 56 53 51 50 50 49 47 46 44 42 40 39 39 38 38 37 36 35 35 35 36 37 37 37 38 38 39 40 40 41 42 43 44 45 46 48 50
53 53 53 54 56 57 56 55 52 50 49 49 48 46 44 42 40 38 37 37 37 36 35 35 36 37 36 36 37 37 38 38 38 40 40 40 41 42 43 45 47 49 51
52 53 53 54 54 56 56 54 51 50 50 49 47 46 44 41 40 39 36 36 36 35 35 36 36 36 36 36 36 37 37 37 38 39 39 40 41 42 44 46 47 49 51
51 54 54 53 53 53 54 53 51 50 50 48 46 45 44 42 40 39 38 37 36 36 36 36 36 36 35 36 36 36 36 36 37 37 38 39 40 42 44 46 47 49 50
50 52 53 52 52 52 53 52 52 50 49 47 46 45 44 42 41 39 38 37 37 36 36 36 36 35 34 35 35 35 35 36 37 37 38 39 40 42 43 45 47 48 50
49 49 51 51 51 51 51 49 48 48 47 46 44 43 43 42 41 40 39 38 37 36 36 35 34 34 34 34 34 35 36 36 36 36 38 39 40 41 42 44 46 48 51
47 48 48 47 47 48 49 48 46 46 46 46 45 43 42 41 41 40 39 38 37 36 36 35 34 34 34 33 34 35 35 35 36 37 38 39 40 40 42 44 47 49 52
45 46 46 45 46 46 47 47 45 43 43 43 43 43 42 41 39 39 39 38 37 36 34 33 34 34 33 33 33 34 34 35 36 36 37 38 39 40 42 45 47 51 53
44 45 46 46 46 45 46 46 45 42 40 40 41 42 41 39 38 38 37 37 35 34 33 33 33 33 32 32 33 33 33 34 35 36 36 37 39 41 43 45 48 51 53
44 45 45 46 45 45 45 45 43 41 39 38 38 38 39 38 38 38 37 36 34 33 33 33 32 32 32 32 32 32 33 33 33 34 35 37 39 42 44 46 49 51 52
44 44 45 45 45 44 44 44 42 41 40 38 37 36 36 36 36 37 36 35 33 33 32 31 30 30 31 31 32 31 31 31 32 33 34 36 39 42 44 47 48 50 50
43 43 43 44 44 44 44 43 42 40 39 39 38 37 37 37 37 37 35 35 33 31 30 29 29 29 29 30 30 30 30 31 31 32 35 38 40 42 44 46 47 48 49
43 43 43 43 42 43 43 43 42 40 38 38 38 38 37 37 36 35 34 32 31 29 28 28 28 28 28 28 28 28 29 29 31 33 36 38 40 42 44 45 46 47 48
42 43 43 43 42 41 42 42 41 40 38 37 37 37 36 35 34 33 33 31 30 28 28 27 27 26 26 26 26 27 28 29 32 34 36 38 40 41 43 44 45 45 46
41 41 41 42 43 42 42 42 41 40 38 37 37 36 34 33 33 33 32 30 29 27 26 25 24 24 24 25 26 26 27 29 31 33 36 38 39 41 42 43 43 44 45
39 40 40 41 42 42 42 42 40 39 38 37 35 34 33 32 32 30 29 28 27 26 25 24 23 23 24 24 25 26 27 29 31 33 35 37 38 40 41 41 42 43 44
38 39 39 39 40 41 41 41 40 38 37 36 35 33 33 32 30 28 26 26 26 25 24 23 23 23 23 24 25 26 27 29 31 33 34 36 37 38 39 40 41 42 43
38 38 38 38 39 41 40 39 39 38 37 36 35 34 32 31 29 27 26 25 24 23 23 22 22 22 23 23 24 25 27 29 30 32 33 35 36 36 38 39 40 42 42
38 38 39 38 39 38 39 39 37 36 36 35 35 34 32 30 28 26 25 24 23 22 21 21 21 21 22 23 24 26 27 27 29 30 32 34 35 35 37 38 39 41 42
37 37 38 38 39 38 37 37 37 37 37 35 34 32 30 29 27 25 24 23 21 20 20 20 20 20 21 22 23 24 25 26 27 29 31 33 34 34 36 37 39 40 41
37 37 37 38 38 37 37 36 36 35 34 33 31 30 29 28 26 24 23 22 20 19 19 19 19 20 21 22 22 23 24 26 27 29 30 32 33 33 34 36 38 40 41
36 37 38 38 38 37 36 35 34 33 32 31 30 29 28 26 24 23 22 20 20 19 19 19 19 19 20 21 22 23 24 25 27 28 30 31 31 32 34 36 38 40 40

GEFSGL_500_meanwind_156.txt.gz
Wind_Speed
49 49 48 50 54 55 54 55 55 55 55 53 50 47 46 44 44 43 42 40 39 38 37 36 36 35 35 34 34 34 34 34 34 35 36 37 38 39 40 41 43 45 46
50 49 47 48 50 53 54 53 54 54 53 52 50 48 46 44 44 42 41 40 38 37 37 37 36 35 35 35 34 33 34 34 34 35 36 37 38 39 40 42 44 45 45
49 48 47 49 50 52 53 52 53 53 52 51 49 47 45 44 44 43 41 40 38 37 37 36 36 35 34 34 33 33 34 34 35 36 37 37 38 39 41 42 44 44 45
47 47 47 48 50 52 51 51 51 52 52 51 49 47 43 43 43 43 41 40 38 37 36 35 35 34 33 33 33 33 32 33 35 35 36 37 38 40 41 43 43 44 45
45 47 48 47 48 49 51 50 50 50 50 50 49 47 44 42 41 40 40 39 37 36 35 34 33 33 33 33 32 32 32 33 35 35 35 37 39 41 42 42 43 44 45
44 46 47 46 47 49 50 51 50 50 49 48 47 47 44 41 39 38 39 38 36 35 34 33 33 33 32 32 31 31 32 34 34 35 35 37 39 40 41 42 43 44 45
43 45 46 46 46 48 49 50 51 50 49 48 47 45 43 41 39 39 39 38 37 36 34 33 33 33 32 31 31 32 33 34 34 35 36 37 38 39 41 41 42 44 45
41 46 46 44 45 48 49 50 49 49 48 47 46 43 41 41 41 40 39 39 39 37 35 34 33 31 31 31 32 32 32 32 33 34 36 37 38 38 39 41 42 43 45
40 43 45 44 44 46 47 49 50 49 47 46 45 43 42 41 40 39 38 38 38 36 34 33 32 31 30 31 32 32 31 32 33 34 35 36 37 38 39 41 42 43 44
40 42 43 42 43 45 46 46 47 48 47 46 45 43 41 40 40 39 38 38 37 35 35 34 32 31 31 31 31 31 30 31 33 34 35 36 37 38 40 41 42 43 45
41 42 42 41 43 44 45 45 46 47 47 47 45 44 41 40 40 39 38 37 36 35 34 33 32 32 32 30 30 30 30 32 32 33 34 35 36 37 39 40 41 43 45
40 41 41 41 43 44 45 45 45 46 46 45 43 43 42 40 39 38 38 37 35 34 34 33 33 32 31 30 29 30 30 31 31 32 33 34 36 38 39 40 41 43 45
38 40 41 41 43 44 44 44 45 44 44 43 42 41 40 38 38 38 37 36 35 34 33 32 32 31 30 29 29 29 30 30 31 31 33 34 36 37 39 40 41 44 45
38 40 40 40 42 43 44 44 43 44 44 42 41 39 38 37 37 37 36 35 35 34 33 32 30 29 29 29 29 29 29 30 30 32 32 33 35 37 38 39 41 43 44
38 39 41 39 40 42 43 44 43 42 43 42 40 38 36 34 33 34 35 34 33 32 31 30 28 27 27 29 29 28 28 29 30 31 32 33 35 36 37 39 40 42 43
37 38 39 40 41 42 43 43 42 42 42 42 40 39 37 34 33 33 33 32 30 29 29 29 28 27 27 27 27 27 27 29 29 30 31 32 34 36 37 38 39 41 43
35 36 36 38 40 41 43 43 42 42 43 43 41 40 38 36 34 32 32 31 30 28 27 26 25 25 25 25 25 27 28 28 28 29 30 32 33 35 36 37 39 40 42
35 35 36 37 38 39 40 41 41 41 41 42 41 40 39 37 35 33 32 31 29 28 27 26 25 25 24 24 25 26 27 27 28 29 30 31 32 34 36 37 38 40 41
35 35 35 37 38 39 39 40 41 41 40 40 39 38 38 36 35 34 33 31 29 28 27 26 25 24 23 24 26 26 26 27 28 28 29 30 32 34 36 37 38 39 40
34 35 36 37 37 38 39 40 41 41 41 40 39 38 37 36 34 33 31 30 29 27 26 25 25 25 25 25 25 25 26 26 27 27 28 30 32 34 35 36 37 38 39
33 34 35 36 37 38 40 40 40 39 40 39 38 38 37 36 34 33 31 29 28 27 26 25 25 24 25 25 25 26 25 25 26 27 28 30 32 34 35 35 36 37 38
31 32 34 36 36 38 39 39 40 39 39 39 38 38 37 35 34 32 30 29 27 27 26 25 24 24 25 25 25 24 23 24 25 26 28 31 32 33 34 34 35 36 37
31 31 32 35 36 37 38 39 39 39 38 38 38 37 36 35 34 31 30 28 26 25 24 24 24 24 23 23 22 21 22 23 24 26 28 30 31 32 33 33 34 35 36
30 31 32 33 35 37 37 38 39 39 38 38 37 36 36 35 33 31 29 28 26 24 23 23 23 22 21 20 20 20 21 22 23 25 27 29 30 31 31 31 32 33 35
29 31 32 33 34 35 37 38 38 38 38 37 36 35 34 33 32 30 28 27 25 23 22 22 21 19 18 18 18 18 19 21 23 25 26 28 28 29 29 30 31 33 35
27 29 31 33 34 35 36 37 37 37 38 36 35 34 34 32 30 28 27 25 23 22 20 19 18 17 17 16 16 17 19 21 23 24 25 26 27 27 28 30 31 32 34

GEFSGL_500_meanwind_162.txt.gz
Wind_Speed
35 38 42 43 45 49 51 52 51 48 50 51 53 54 54 55 53 51 50 50 48 44 42 41 40 38 37 36 35 34 33 33 33 33 33 34 34 35 35 36 37 37 39
35 37 41 42 44 46 49 50 49 48 49 50 51 53 52 51 51 50 48 48 47 43 41 40 38 37 36 35 34 33 32 32 32 32 33 33 34 34 34 36 36 38 39
34 35 38 41 43 44 47 47 47 48 48 48 50 52 51 49 49 48 47 45 44 43 41 39 37 36 35 34 32 32 31 32 32 32 32 33 33 34 35 36 37 38 39
32 34 34 38 41 42 44 46 47 47 46 45 46 48 50 49 47 46 44 42 42 40 39 38 36 35 34 32 31 31 31 31 32 32 33 33 33 34 34 35 36 38 40
33 35 34 34 39 40 41 43 45 46 46 45 43 44 47 47 46 45 43 41 40 39 37 36 35 34 32 32 31 31 30 31 31 31 32 33 33 33 34 35 36 38 40
31 34 36 36 37 38 40 42 44 44 45 45 42 41 44 45 45 45 44 40 38 37 36 35 35 34 32 32 31 30 30 31 31 31 31 32 33 33 33 34 36 38 40
30 33 35 36 37 38 40 41 43 44 45 45 43 42 43 44 45 44 42 39 38 37 36 35 34 33 32 31 30 30 30 31 30 31 32 32 32 32 33 34 36 38 41
31 33 36 37 37 38 40 42 43 43 43 45 43 42 42 43 44 42 43 40 38 37 36 35 34 33 32 31 30 30 31 30 30 31 31 32 31 31 33 34 36 39 41
29 32 35 36 37 38 40 42 42 41 42 44 43 42 42 42 43 43 42 41 39 37 36 35 34 34 33 31 30 30 30 30 30 30 30 30 31 32 33 35 37 39 40
28 31 33 35 36 37 39 41 41 40 40 43 43 43 43 42 42 43 42 39 38 37 37 36 35 35 34 32 31 30 29 29 29 29 30 31 31 32 34 35 37 39 40
29 31 33 34 35 37 38 39 41 40 41 42 43 44 44 42 42 43 41 39 38 38 36 35 35 35 34 32 31 29 28 29 29 30 30 30 31 33 34 35 38 39 40
29 31 33 33 34 35 37 38 40 40 40 42 43 43 43 42 41 41 41 40 38 37 37 36 35 36 35 32 31 31 30 30 29 30 30 30 31 32 34 36 37 38 40
29 31 32 33 34 35 36 37 38 39 40 40 41 42 41 42 41 39 39 39 39 37 37 35 34 34 34 33 32 31 30 29 29 30 29 30 31 32 34 35 36 38 40
28 30 32 34 35 36 36 36 38 38 39 39 40 40 40 40 40 38 37 38 40 39 37 35 34 33 33 33 33 32 30 29 28 28 29 30 31 32 33 34 36 37 39
27 28 30 33 34 34 35 35 36 37 37 39 40 39 39 39 39 38 37 36 37 37 37 36 34 32 32 33 33 32 30 28 28 28 29 30 30 31 33 34 35 37 39
27 28 30 32 33 34 35 36 36 36 37 38 38 38 38 39 39 38 37 36 35 35 36 34 33 32 31 30 30 30 30 29 28 28 28 29 30 32 34 35 36 37 38
27 28 29 31 33 34 36 36 36 34 36 37 38 38 38 39 39 38 37 35 34 34 34 32 32 31 31 30 29 29 29 27 27 27 27 28 30 32 33 34 35 36 36
26 27 28 30 32 34 36 36 35 34 35 37 39 39 38 38 38 37 36 35 34 34 33 32 31 30 29 28 28 27 27 26 25 25 26 28 30 31 32 33 34 34 35
24 26 28 29 31 33 35 36 35 35 35 36 38 39 38 37 37 37 36 34 34 34 32 31 30 28 27 26 26 25 25 24 24 24 26 28 28 29 30 31 32 33 35
23 24 26 28 30 32 33 34 35 36 37 37 37 37 37 37 37 37 36 34 33 33 32 30 29 27 25 25 24 23 23 23 23 24 26 27 27 27 29 30 32 33 34
24 24 25 27 29 32 32 32 34 36 37 37 37 37 37 37 37 36 35 34 32 31 30 29 28 27 26 25 24 23 23 23 23 23 24 25 26 27 28 30 31 32 33
24 25 26 27 29 30 31 31 32 35 36 36 37 37 36 37 37 36 35 33 31 31 30 28 27 26 25 24 23 23 22 22 22 23 23 24 25 27 28 29 30 30 31
24 25 26 27 29 30 30 31 31 33 35 36 36 36 36 36 36 36 35 33 31 31 30 28 27 26 25 24 22 21 21 21 22 22 23 24 25 26 27 27 28 29 30
23 25 26 27 28 28 29 29 31 32 33 34 36 37 36 35 35 35 34 33 31 30 28 27 26 25 24 23 22 21 20 20 21 21 22 23 24 24 25 26 27 28 29
24 25 26 27 28 28 29 29 30 32 33 33 34 36 35 34 35 35 34 33 31 29 28 26 25 25 24 22 21 20 20 19 20 20 21 21 22 23 24 25 26 26 26
24 25 26 26 27 28 28 29 30 32 32 32 33 34 34 34 34 34 33 32 30 29 27 26 25 24 23 22 21 20 20 19 19 20 20 20 21 22 23 23 24 24 25

GEFSGL_500_meanwind_168.txt.gz
Wind_Speed
31 32 32 34 35 36 38 42 44 48 51 50 49 49 52 54 53 52 55 55 55 54 53 52 52 50 46 45 44 42 41 40 38 37 36 36 35 35 34 34 36 37 38
28 29 31 32 33 33 35 40 41 44 47 48 48 48 51 52 50 50 53 54 54 53 51 51 50 49 47 45 43 42 41 40 38 37 36 35 34 33 34 35 35 36 37
26 27 29 30 30 30 33 37 38 41 44 46 46 46 48 50 49 49 52 53 52 51 51 51 50 49 47 45 43 41 40 38 37 36 36 34 33 32 33 34 35 36 37
25 26 27 28 28 29 31 33 35 38 42 43 43 45 47 46 46 48 49 51 50 49 50 50 49 49 47 44 42 40 39 38 36 35 35 34 33 32 33 34 35 36 37
24 25 25 27 27 28 30 31 34 37 40 41 41 44 44 42 43 45 47 47 48 47 48 49 48 46 44 42 41 40 39 36 35 34 34 33 32 32 32 32 34 35 36
22 23 25 26 27 28 28 30 33 36 38 39 40 43 42 40 41 43 44 44 44 45 45 46 46 46 44 42 41 39 36 35 34 34 33 32 31 31 31 32 33 34 35
21 23 24 25 26 27 29 30 32 34 36 38 39 40 42 41 40 40 43 43 43 43 43 44 44 44 44 41 38 36 35 35 35 33 31 30 31 31 32 32 33 34 36
21 22 23 24 24 25 27 29 30 32 34 35 36 38 40 40 39 40 41 41 41 41 41 41 42 43 42 39 37 36 36 35 34 33 32 30 31 32 32 32 33 35 37
23 22 23 22 23 25 27 30 31 32 31 32 35 37 39 40 40 40 40 41 40 39 38 38 40 41 39 38 37 36 35 34 34 33 32 31 30 31 32 32 33 35 37
23 23 23 23 24 26 26 29 32 32 32 33 35 35 37 39 40 40 39 39 39 38 38 38 38 37 36 37 37 36 35 33 33 33 31 30 31 31 31 32 33 35 37
23 22 22 23 24 25 26 29 30 31 32 33 34 36 37 39 39 38 38 37 37 37 38 37 36 36 36 37 36 35 34 33 32 31 30 30 30 31 32 33 34 35 37
23 23 23 24 25 26 26 28 29 29 30 32 34 35 36 37 38 38 38 36 36 36 36 37 36 36 37 36 36 34 33 32 32 31 30 30 30 31 31 32 33 35 37
24 23 23 23 24 25 26 28 29 30 31 32 32 33 34 35 36 37 37 36 35 35 35 35 36 36 36 35 34 34 33 33 32 30 29 29 30 30 30 31 32 34 35
23 24 24 24 24 25 26 27 29 30 30 31 31 32 33 33 33 34 35 35 34 34 34 35 35 35 35 34 33 33 32 32 30 30 29 29 30 30 30 30 32 33 34
22 23 24 24 24 26 27 28 28 29 31 31 30 29 31 32 33 33 33 34 34 33 34 34 34 33 33 33 32 33 32 31 30 30 30 30 30 30 29 30 32 32 33
22 23 24 24 24 25 27 28 28 28 30 30 31 30 30 31 32 32 32 32 32 32 32 33 33 32 31 31 31 31 30 29 29 28 28 28 28 28 29 30 31 32 32
21 22 23 23 23 23 25 27 27 28 29 31 32 32 31 31 31 31 31 31 31 31 31 31 31 30 30 30 30 29 28 28 27 27 27 27 27 27 28 29 30 30 31
21 21 22 22 22 23 23 24 26 27 29 30 31 33 32 31 32 32 32 31 32 32 31 31 30 29 29 29 29 28 27 27 27 26 26 26 25 26 27 28 29 29 30
21 21 21 21 21 22 22 24 25 26 28 30 31 32 33 32 32 32 32 32 32 32 31 30 30 29 28 28 28 28 27 26 26 26 25 25 24 25 26 27 27 28 29
21 21 22 22 22 23 23 24 26 27 28 29 31 32 33 33 33 32 32 32 32 31 29 29 29 28 27 27 27 26 25 25 25 24 23 23 24 24 25 26 26 27 27
20 21 22 22 23 23 23 24 26 27 28 28 30 31 32 34 33 32 32 32 31 30 28 28 28 27 26 25 25 25 24 24 23 23 23 23 23 23 24 24 25 25 26
19 19 21 22 22 23 24 24 26 27 28 28 29 30 31 32 32 32 32 31 30 29 28 28 27 26 25 24 24 23 23 22 22 22 22 21 21 22 22 23 23 23 25
19 19 20 21 22 23 25 26 25 26 27 28 29 30 30 29 30 32 31 30 30 29 28 27 27 26 24 23 22 23 22 21 21 20 20 20 20 21 21 22 23 23 24
19 20 20 22 22 23 24 25 26 26 27 28 29 29 28 28 30 30 30 30 29 29 28 27 26 25 24 22 21 21 21 19 19 18 18 18 19 20 21 22 22 22 23
19 20 21 21 22 22 23 24 25 26 26 28 29 28 28 28 29 30 29 29 29 29 27 27 26 25 24 22 21 20 19 18 17 17 17 17 18 19 20 20 20 20 21
19 20 20 20 20 21 22 23 24 25 26 26 27 28 27 27 28 29 29 28 29 29 28 27 26 25 24 22 21 19 18 17 17 17 17 17 18 18 18 18 18 18 20

GEFSGL_500_meanwind_174.txt.gz
Wind_Speed
40 40 39 38 38 37 37 39 40 42 43 45 49 51 51 53 55 56 54 53 53 53 53 53 52 54 55 53 51 50 50 50 49 47 45 43 42 40 40 39 38 37 37
37 36 36 35 35 35 35 36 37 38 40 42 46 47 48 50 52 53 53 52 51 52 51 51 52 54 53 51 50 50 50 50 50 48 45 43 42 41 41 40 38 38 38
35 34 34 34 34 34 34 35 35 36 37 39 41 43 45 47 49 49 51 51 50 50 51 51 51 52 51 50 49 49 49 50 50 49 46 43 41 40 40 39 37 38 37
33 32 32 32 32 32 33 32 33 34 36 36 37 40 42 44 46 47 49 49 49 49 50 50 50 50 49 49 49 48 48 49 49 47 45 43 40 39 39 38 37 37 36
31 31 31 30 30 30 30 30 30 31 32 33 34 36 38 40 43 45 47 46 45 46 47 48 49 49 49 49 48 47 47 48 47 45 44 43 40 39 38 37 37 36 36
31 31 30 29 28 28 28 28 30 31 30 31 32 33 36 39 42 43 44 43 42 43 45 47 48 49 50 49 47 46 46 46 44 45 44 41 39 38 37 37 36 36 35
32 30 29 28 27 25 25 26 27 29 29 29 30 33 36 37 39 40 41 41 41 41 42 44 46 46 49 47 45 44 44 43 42 43 41 39 39 38 36 36 36 35 35
31 29 27 26 24 23 24 25 26 26 27 28 29 29 33 35 37 39 40 40 42 40 40 42 44 44 45 44 43 42 41 40 40 40 39 39 38 37 36 34 35 36 35
28 26 25 24 23 22 22 22 23 25 25 27 28 29 31 32 34 35 36 38 40 40 41 41 42 42 42 42 41 40 39 40 39 39 37 37 36 35 35 34 34 35 34
27 25 24 23 22 21 21 21 22 23 25 26 28 29 31 31 31 31 33 35 37 39 40 40 40 39 39 40 40 39 39 38 38 37 37 36 34 34 34 33 33 33 33
26 26 25 24 22 21 21 21 21 22 24 25 26 28 30 30 30 30 30 32 34 36 38 38 37 37 38 39 39 38 37 37 36 35 35 34 33 33 32 32 33 32 32
26 25 24 24 24 23 22 21 21 21 22 24 25 27 29 28 29 29 29 30 32 32 34 35 35 35 37 37 36 37 37 36 35 34 34 33 32 32 32 32 32 32 32
26 25 24 23 24 23 22 22 21 21 23 24 25 26 27 28 29 29 28 29 30 30 32 33 33 34 35 34 34 34 35 35 34 33 32 31 31 31 31 31 31 30 30
25 24 23 22 22 21 21 20 20 20 21 22 24 26 27 28 29 29 28 29 29 29 31 33 33 33 32 32 32 33 34 34 33 32 31 31 30 30 30 30 30 30 30
24 23 22 20 20 20 20 20 19 19 19 21 23 26 27 27 27 28 28 28 28 29 31 32 31 31 30 30 31 32 32 32 31 30 30 30 29 29 29 29 28 28 28
23 22 21 19 19 18 18 19 19 18 18 20 23 25 26 26 26 27 27 28 27 28 30 30 29 29 29 29 30 30 31 30 29 29 28 28 28 28 27 27 27 26 26
21 20 18 17 17 17 17 19 20 20 20 21 22 24 25 26 26 26 27 28 28 28 29 29 29 28 27 28 28 29 29 29 28 27 26 26 26 26 25 25 25 24 24
18 16 15 15 15 16 17 18 19 20 20 21 23 24 25 26 26 26 27 27 27 27 27 28 29 28 27 27 27 28 28 28 27 26 25 25 24 24 24 23 23 23 23
17 15 14 13 14 15 17 18 19 21 21 21 23 23 24 25 25 25 25 25 25 25 26 27 28 27 27 27 27 27 27 26 26 25 23 23 23 22 22 21 21 21 21
15 14 13 13 14 15 17 18 19 20 21 21 22 24 25 25 25 25 25 25 25 24 24 26 26 26 26 26 26 26 25 25 24 23 22 22 21 20 20 20 20 21 21
13 13 13 13 14 15 17 18 20 20 20 21 22 24 26 26 26 25 25 25 25 25 25 24 23 24 24 26 25 24 24 24 22 21 20 20 19 19 19 19 20 20 21
12 12 13 13 14 15 17 18 20 20 20 21 23 24 25 25 25 26 25 26 25 25 25 24 23 23 23 24 24 23 22 22 22 21 20 20 19 18 18 18 19 19 19
12 12 13 14 15 17 18 19 20 20 21 21 23 25 25 24 25 25 25 26 26 25 25 24 23 23 23 23 22 21 21 21 20 20 20 19 18 17 17 17 17 17 18
12 12 14 15 16 17 17 18 19 20 21 21 23 25 26 26 26 25 25 26 26 26 25 24 23 23 22 21 21 21 21 20 20 20 19 18 17 16 16 16 16 16 16
12 13 14 15 16 16 16 17 18 19 20 21 22 24 26 26 26 26 25 25 26 25 24 24 23 22 21 20 20 20 20 20 20 20 19 18 17 16 16 15 15 14 14
13 13 14 15 16 16 16 16 17 19 20 21 23 25 26 26 26 26 26 26 26 25 24 24 24 22 21 20 19 19 19 19 19 19 18 17 16 15 15 15 14 13 13

GEFSGL_500_meanwind_180.txt.gz
Wind_Speed
47 47 47 47 46 45 45 45 46 47 47 49 49 49 49 49 48 48 48 49 51 53 53 51 49 49 50 51 52 51 50 50 49 47 47 46 45 46 45 45 46 46 44
48 47 46 46 44 44 44 44 44 45 45 46 46 47 47 47 47 47 47 47 49 51 52 50 48 48 49 50 51 50 49 48 47 46 46 45 45 45 44 44 44 45 45
47 46 45 44 43 43 42 42 42 42 42 42 43 43 44 44 44 44 46 46 47 48 48 47 46 47 47 49 50 49 47 47 46 45 46 45 44 43 43 44 43 43 42
47 46 45 43 42 42 41 41 40 40 40 40 40 40 40 41 41 41 43 44 45 46 45 45 45 45 46 47 47 47 46 44 45 45 45 44 43 42 42 42 41 41 40
47 46 44 42 41 40 40 39 39 38 38 37 36 35 36 37 38 39 40 41 42 44 44 43 43 42 43 44 44 45 45 43 43 45 45 43 42 42 42 40 40 39 40
46 44 42 40 39 38 37 37 37 36 35 34 33 33 33 34 35 35 36 37 40 42 42 40 40 40 41 43 43 43 43 41 41 44 44 42 40 40 39 38 38 38 39
45 42 40 38 37 35 34 34 34 33 32 31 30 29 29 30 31 33 34 36 38 39 40 38 38 40 40 40 40 41 41 40 40 42 43 42 41 39 38 37 36 37 37
43 40 38 36 34 33 33 32 31 30 28 28 26 27 27 27 29 30 32 34 35 36 37 36 37 38 38 38 39 40 40 39 40 40 40 40 41 40 38 36 35 35 34
41 38 35 34 32 31 30 29 29 27 25 24 24 24 24 25 27 28 30 31 33 34 34 35 37 36 36 36 37 38 38 38 38 37 38 39 40 39 36 35 34 33 31
39 36 34 32 31 30 29 28 27 25 23 22 21 20 21 21 23 26 28 30 31 31 32 33 34 34 34 35 35 35 35 36 36 36 37 37 38 37 35 34 33 31 30
37 34 32 31 30 28 28 27 25 24 22 21 20 20 19 20 23 25 26 27 28 29 30 31 32 33 32 32 33 33 33 34 34 35 36 36 36 35 34 33 31 29 28
34 32 31 29 28 28 26 24 23 22 22 20 18 18 18 18 18 22 24 24 27 28 29 29 29 30 30 31 32 32 32 33 33 34 34 33 33 32 32 31 29 27 26
33 31 29 27 26 26 24 22 21 21 20 19 18 16 16 17 18 19 21 23 24 26 28 28 28 28 29 30 31 31 31 31 31 31 30 29 29 29 29 29 28 27 27
32 31 30 27 25 24 23 21 20 19 18 17 16 14 14 14 15 18 20 22 23 25 25 27 27 26 27 28 29 29 29 27 27 27 26 27 27 28 27 26 26 26 26
33 32 30 27 26 24 22 21 20 19 18 16 14 12 11 12 14 16 19 21 23 24 25 25 25 24 25 26 26 25 25 25 25 25 25 26 26 26 25 24 24 24 24
33 31 29 27 25 23 21 19 17 16 14 13 12 11 12 13 15 15 18 19 21 22 23 23 24 23 24 24 24 23 24 22 22 23 24 24 24 24 23 23 23 22 22
31 29 27 25 22 20 17 15 14 13 12 11 11 11 12 13 14 14 16 18 20 21 22 22 22 21 21 21 22 22 22 22 22 22 22 23 23 22 22 22 21 21 21
28 27 25 20 17 15 14 13 12 11 11 11 12 12 13 14 15 16 17 18 19 20 20 21 21 20 19 19 20 21 21 21 21 21 21 22 21 21 21 20 20 20 19
25 24 21 17 15 13 12 12 12 11 10 10 12 13 13 14 16 16 17 18 19 20 20 20 21 20 20 19 19 20 20 21 21 21 21 20 20 19 19 19 19 19 19
23 21 19 16 14 13 12 11 11 10 10 10 11 12 13 14 15 16 17 17 19 19 19 19 20 20 19 19 19 19 20 21 21 21 20 19 18 18 18 18 18 18 17
21 19 17 15 14 13 12 11 11 10 10 10 10 11 13 14 15 17 17 18 19 18 18 18 19 19 18 18 18 18 18 19 20 19 18 17 17 17 16 16 16 16 15
19 17 16 14 13 13 12 11 10 9 9 10 10 12 13 14 15 16 16 18 18 18 17 18 18 18 18 17 17 17 17 18 18 18 17 16 16 16 15 14 14 13 12
18 16 14 13 12 12 11 11 10 10 10 10 11 12 13 14 15 15 15 16 17 17 16 16 17 18 18 17 17 16 16 16 16 16 16 15 15 15 14 14 12 11 10
16 14 13 12 11 11 10 10 10 10 10 11 11 12 14 14 15 15 16 15 15 16 17 17 17 18 18 17 17 16 16 16 15 15 14 14 14 14 14 13 11 10 10
14 12 11 11 10 9 10 10 11 11 11 11 12 13 14 16 16 16 16 15 15 15 16 18 18 17 17 17 16 16 15 14 14 14 13 13 13 13 13 12 11 10 10
12 11 10 9 9 9 9 10 11 12 12 12 12 14 15 16 16 17 17 16 15 15 15 16 18 18 17 17 16 15 15 14 14 13 13 13 13 13 12 11 10 9 9

GEFSGL_500_meanwind_186.txt.gz
Wind_Speed
42 43 44 44 45 45 46 47 47 47 46 47 47 49 49 50 51 51 51 51 51 50 50 50 49 50 50 50 51 51 49 48 47 47 47 47 48 49 50 50 50 49 48
43 44 45 44 44 45 45 45 45 46 46 46 46 46 47 48 50 51 50 49 49 48 48 48 47 48 49 49 48 49 47 46 47 47 46 46 46 47 47 48 47 47 47
43 44 44 44 44 44 45 45 45 45 45 45 44 45 46 47 47 47 47 47 47 47 47 45 44 46 46 46 47 47 46 45 45 46 45 45 44 45 45 46 47 48 46
44 44 43 43 43 44 43 43 43 43 43 44 43 44 45 44 44 43 44 45 44 43 44 43 43 44 44 44 45 46 45 43 43 43 43 43 43 43 43 44 45 45 45
43 43 42 42 42 42 42 42 43 43 43 43 42 42 42 42 42 42 42 42 40 39 40 40 40 41 41 42 44 44 44 42 42 42 42 41 41 41 41 42 43 43 43
42 42 41 41 42 42 42 42 43 42 42 42 41 40 40 40 40 39 39 38 37 36 37 38 38 39 40 41 43 43 43 41 40 41 41 41 40 40 40 40 40 41 41
42 41 41 41 42 42 42 43 42 41 41 40 39 38 37 37 36 36 35 35 34 34 34 35 35 36 38 40 40 40 40 40 39 40 39 39 39 39 38 37 38 39 38
41 40 41 41 41 42 41 41 40 39 39 38 37 36 35 34 32 32 32 31 31 31 32 33 33 33 35 36 37 37 37 38 37 37 37 38 38 38 38 36 36 36 36
40 40 40 41 41 40 40 39 38 37 36 35 33 32 31 29 28 28 27 27 28 28 29 30 29 31 33 35 35 35 36 37 36 35 34 35 35 35 36 35 35 35 33
38 39 39 40 39 39 38 37 35 34 33 32 32 30 27 25 24 24 25 25 24 25 26 27 26 28 30 32 34 35 35 36 35 34 34 33 34 34 34 33 33 33 32
37 37 38 38 37 37 36 35 33 33 31 30 29 26 24 22 21 21 22 22 21 22 24 24 24 27 29 30 31 32 32 34 34 33 32 32 32 32 32 32 32 32 32
36 36 36 35 35 34 34 32 32 31 29 27 25 23 22 22 20 19 18 19 19 20 21 22 23 24 26 27 28 29 30 32 31 31 31 31 31 31 32 32 31 31 31
34 34 33 32 32 31 31 30 30 29 26 24 22 21 20 19 18 16 15 16 17 17 18 19 19 21 23 24 25 26 28 29 30 30 30 29 29 29 30 30 30 29 29
33 32 32 31 31 30 29 29 28 26 24 22 21 19 16 14 13 12 11 11 12 13 15 16 16 18 20 20 21 23 25 26 27 28 28 28 28 27 27 28 28 28 28
31 31 30 30 29 29 28 27 25 24 23 22 19 17 14 12 12 11 10 10 9 11 14 15 16 18 19 20 21 22 24 25 26 26 27 27 26 26 25 25 25 26 25
30 30 29 29 29 29 28 25 24 23 22 20 18 16 13 12 11 11 10 10 10 11 13 14 16 18 19 21 22 23 24 24 25 25 25 26 26 24 23 23 23 24 24
29 30 30 30 29 28 25 23 22 21 20 19 16 15 12 11 11 10 10 10 11 12 12 13 15 17 19 20 21 22 23 23 24 24 24 25 25 24 23 23 23 23 22
30 30 29 28 26 24 23 22 21 20 18 17 15 13 11 10 10 10 9 9 10 11 11 13 15 17 18 19 20 21 21 22 22 22 23 24 24 23 22 22 23 23 21
29 28 26 25 23 23 22 21 20 19 16 14 13 11 10 10 10 10 9 10 10 10 11 11 13 16 17 18 19 19 20 20 20 21 21 23 22 22 21 21 21 21 20
26 24 23 22 21 21 21 20 18 16 14 12 11 11 10 10 10 10 11 10 10 10 10 10 11 14 16 17 18 18 19 19 19 20 20 20 20 20 20 19 19 18 17
24 22 21 20 20 20 19 17 15 13 11 10 10 10 10 9 9 10 10 10 11 10 10 9 10 11 13 15 16 17 19 19 19 19 19 19 18 18 19 19 18 17 16
22 21 20 20 19 18 17 15 12 11 10 9 8 9 9 9 9 10 10 11 11 11 11 10 9 10 12 14 16 17 18 18 18 19 19 19 18 18 18 18 17 15 14
20 20 19 19 17 16 14 13 10 9 8 8 8 8 8 9 9 9 10 11 12 11 10 10 10 11 12 14 16 16 18 18 18 18 18 18 18 18 17 17 16 15 14
20 19 18 16 14 13 11 9 8 7 7 7 7 7 8 8 9 10 10 11 12 11 11 11 11 11 13 14 15 16 17 17 17 18 19 18 17 16 16 16 15 15 14
19 18 15 13 12 11 10 9 8 7 7 6 7 7 8 8 9 10 11 11 11 11 11 12 11 12 14 15 15 16 17 17 17 17 18 18 17 16 15 15 15 14 13
17 16 14 13 12 11 10 9 8 8 7 7 7 7 8 8 9 10 10 11 11 12 12 12 13 14 14 15 16 16 16 16 17 17 17 17 16 15 14 14 14 13 12

GEFSGL_500_meanwind_192.txt.gz
Wind_Speed
42 43 44 44 45 45 45 46 47 47 47 47 46 47 48 48 49 49 49 50 50 50 50 49 49 49 49 48 48 47 46 46 46 43 44 46 48 48 48 49 48 49 49
41 42 44 44 44 44 45 45 46 47 47 47 47 47 47 47 48 48 49 49 49 50 49 49 48 48 47 47 47 46 45 44 44 42 41 42 44 45 46 47 47 47 46
42 43 43 43 43 44 44 45 47 47 46 47 47 47 47 47 47 48 49 49 49 49 49 48 47 47 46 46 45 44 43 42 41 41 40 41 42 43 44 44 45 44 45
42 42 41 42 43 43 43 44 45 45 45 46 46 46 46 46 47 48 49 48 48 47 47 46 46 45 45 45 44 43 42 41 40 40 39 40 40 39 40 41 42 43 43
41 40 40 40 42 42 43 44 44 44 44 45 45 45 46 47 48 48 48 47 46 44 44 44 44 44 43 43 42 41 40 40 39 38 38 39 38 37 39 40 41 42 41
40 39 39 39 40 40 41 43 43 43 42 43 44 45 45 46 46 47 47 45 43 42 41 40 40 40 39 39 40 39 39 38 37 36 36 37 36 36 37 39 40 40 39
38 38 38 38 38 39 40 41 41 41 41 42 42 43 43 44 45 44 43 42 40 39 37 36 35 35 36 36 37 37 36 35 35 34 34 34 33 33 34 36 36 36 37
38 37 38 38 38 39 39 40 40 40 40 41 41 42 42 42 42 41 40 38 36 34 32 32 32 32 32 32 33 33 33 33 33 33 33 32 32 32 32 32 33 32 33
38 38 38 38 38 38 39 40 39 40 40 40 40 40 39 38 38 38 37 35 32 30 29 28 29 29 29 29 29 30 30 31 31 31 31 31 30 30 30 30 30 30 32
37 37 38 38 38 38 38 39 38 38 37 37 37 37 37 37 37 35 34 32 30 28 27 27 27 27 28 28 28 29 29 28 28 30 30 30 29 28 28 28 27 27 27
37 37 37 37 37 36 37 37 37 37 36 35 35 36 36 36 34 32 31 30 29 27 26 24 25 26 25 25 25 26 26 25 25 27 27 28 28 27 26 27 26 26 25
36 36 35 35 35 36 36 36 36 36 34 34 34 34 34 32 31 30 29 28 27 25 22 21 21 20 20 20 20 21 22 23 23 23 24 25 25 24 24 25 25 26 25
34 34 34 33 34 34 35 34 34 34 34 33 33 33 31 30 29 28 26 26 24 22 21 19 18 17 16 17 17 18 19 20 21 21 22 23 23 22 23 23 24 24 24
34 34 33 32 32 33 33 33 33 33 33 33 33 32 29 27 27 26 25 24 23 21 19 17 16 15 14 15 16 17 18 19 20 20 21 21 21 21 21 21 22 22 22
33 33 32 32 31 32 32 32 33 33 32 31 31 30 28 26 25 25 24 22 21 19 17 15 13 13 13 14 16 17 18 18 19 19 19 19 20 19 19 20 20 20 20
32 31 31 31 30 30 31 31 32 32 31 31 30 28 26 25 23 22 21 19 17 16 16 14 12 11 12 13 14 15 17 17 17 17 18 18 18 18 18 18 18 18 18
31 30 29 29 29 29 29 29 29 29 29 28 27 26 24 24 22 21 18 17 17 16 14 12 11 10 11 12 13 13 15 15 15 15 15 16 17 18 18 18 18 18 19
28 28 27 27 27 28 28 28 28 28 28 27 26 25 24 22 21 19 17 16 14 14 12 11 10 11 11 11 12 13 14 14 14 14 14 15 15 16 16 16 16 16 16
26 26 25 26 27 27 27 27 28 27 27 25 23 23 23 21 19 17 16 14 13 12 10 10 10 10 11 11 11 12 14 14 14 13 13 14 14 14 14 14 15 15 15
24 24 25 26 26 26 26 27 27 26 25 23 22 21 21 19 16 14 13 12 11 10 10 9 9 9 10 10 11 11 12 13 13 12 12 12 12 12 13 13 13 13 14
24 24 25 25 26 26 25 25 25 24 23 23 21 20 18 16 13 12 11 10 9 9 9 8 8 8 8 9 10 10 10 11 11 12 12 12 11 12 12 13 13 14 14
25 25 25 26 25 25 24 23 23 22 21 21 19 16 14 12 9 8 7 7 7 6 6 6 6 6 6 6 7 8 9 9 9 10 11 10 10 11 12 13 14 14 14
24 24 24 24 24 23 22 21 20 20 19 18 15 12 11 9 8 7 7 6 5 4 4 5 4 4 4 5 7 8 9 9 10 11 11 11 11 11 12 12 13 13 14
22 22 22 22 22 21 20 19 18 17 16 14 12 10 9 8 7 7 7 7 6 5 5 5 5 4 4 5 6 7 8 9 10 11 11 11 12 13 13 13 13 14 14
20 21 21 20 20 19 18 16 15 14 13 12 11 9 8 8 7 7 8 8 7 6 6 6 5 5 5 5 6 8 9 10 10 11 11 11 12 13 14 14 13 13 13
19 19 19 19 19 18 16 14 13 13 12 11 10 9 8 7 7 6 7 6 6 6 6 6 6 6 6 6 7 8 10 11 11 11 11 11 12 14 14 14 13 13 12

GEFSGL_500_meanwind_198.txt.gz
Wind_Speed
37 38 39 41 42 42 43 44 44 45 45 46 46 46 46 46 47 48 49 51 52 52 51 51 51 52 52 52 51 51 50 49 47 45 45 46 47 47 47 46 46 47 49
38 39 39 40 42 42 43 43 43 44 44 45 45 45 45 46 47 48 49 50 50 50 50 50 50 51 50 49 49 49 48 46 46 43 42 43 44 44 44 42 42 43 45
38 39 40 41 41 41 42 42 42 43 43 44 44 45 45 46 47 48 49 48 48 49 50 50 50 49 48 47 47 46 46 44 44 42 41 41 41 41 40 39 39 40 40
39 39 40 40 41 40 40 41 42 42 42 43 44 44 45 46 46 47 47 47 47 48 49 49 48 46 45 44 44 43 43 42 41 39 39 38 39 39 39 38 37 37 37
39 40 40 40 40 40 40 40 41 41 42 42 43 44 45 45 46 46 46 46 46 47 46 46 44 43 42 41 41 41 40 39 38 38 37 36 36 36 36 36 36 34 33
39 39 39 39 39 39 39 40 40 41 41 42 42 43 43 44 44 44 45 44 44 43 42 41 40 39 39 39 39 38 37 37 36 35 35 34 34 35 35 35 34 34 32
37 37 38 38 39 39 39 39 40 40 40 41 41 41 41 41 41 42 42 42 41 40 39 37 37 37 38 38 37 35 34 34 34 33 33 32 32 32 32 33 34 33 33
36 36 37 38 38 38 38 38 39 39 39 39 39 39 39 38 38 39 38 38 38 38 37 36 36 36 36 36 35 33 32 33 33 32 31 31 30 30 30 31 31 31 31
36 36 37 37 37 37 37 37 37 37 37 37 37 36 36 35 36 37 37 37 36 36 35 35 35 34 33 33 31 30 30 30 31 29 28 28 28 28 29 29 29 29 29
34 35 35 36 36 36 36 36 36 36 35 35 34 34 34 34 35 35 35 35 34 33 32 32 31 31 30 29 28 28 28 28 28 27 27 26 26 26 26 26 26 27 27
35 35 35 35 35 35 35 34 34 34 34 33 33 33 33 32 33 32 33 33 32 31 30 29 29 28 27 26 26 26 25 25 26 26 27 27 26 25 24 24 26 26 25
34 34 34 34 35 34 34 34 34 34 32 32 32 32 31 31 31 31 32 32 31 30 28 27 27 26 25 25 24 24 23 23 24 25 26 26 25 24 24 23 24 24 23
34 33 33 33 33 32 33 33 33 32 31 30 30 28 29 29 30 31 31 30 30 29 28 26 25 24 23 23 22 21 21 21 22 23 23 23 23 22 22 22 22 22 21
33 33 33 32 31 31 31 30 30 29 28 28 27 28 28 28 29 29 30 29 29 28 26 25 24 23 22 21 20 18 18 19 18 18 18 19 20 20 21 21 21 20 20
33 33 33 32 31 30 29 28 28 27 27 27 27 27 27 26 27 28 28 28 28 26 25 23 22 21 21 19 18 17 16 15 16 15 14 15 16 17 17 18 18 18 18
31 31 30 29 29 28 27 26 26 26 26 26 26 26 26 26 26 27 27 26 25 23 22 21 20 20 19 18 17 16 14 13 14 13 12 13 15 16 16 16 17 17 17
29 28 27 26 26 25 25 24 25 25 25 25 25 25 25 25 25 25 25 24 23 22 21 20 19 19 18 16 15 13 12 11 12 12 11 12 13 14 15 15 16 15 16
25 25 24 24 23 22 22 23 23 23 23 24 24 24 25 25 25 25 25 23 22 21 20 19 18 17 15 13 12 10 9 9 9 10 11 11 12 13 14 15 14 13 13
23 22 22 21 21 20 21 21 21 22 22 23 23 24 25 25 25 24 24 22 20 19 18 17 16 15 13 12 10 8 7 7 7 8 10 10 11 12 13 13 13 13 12
22 21 20 20 20 20 20 20 21 21 22 22 22 23 23 23 23 22 22 20 18 17 16 16 15 14 12 10 8 6 6 7 7 8 9 9 10 10 11 11 11 11 10
21 20 19 19 19 20 20 21 22 22 22 22 22 22 22 21 21 20 19 17 16 15 14 14 13 12 10 8 7 7 7 7 7 7 8 9 9 9 9 9 10 10 9
19 19 19 19 20 20 21 21 21 22 22 22 22 23 22 21 20 19 17 15 13 13 12 11 10 9 8 7 7 7 7 7 7 7 7 8 9 9 9 9 10 9 10
19 19 19 20 20 21 21 22 21 22 22 22 22 22 21 19 19 18 15 13 12 11 10 9 9 8 7 5 6 6 6 6 7 7 7 7 9 9 9 9 10 10 9
19 19 19 20 20 21 21 21 22 22 22 21 21 20 19 18 17 16 14 13 11 10 9 8 8 7 6 5 5 6 6 7 7 7 6 7 9 9 9 9 9 10 10
18 19 19 20 21 21 22 22 22 22 21 21 20 19 17 16 15 13 12 11 10 9 8 7 6 6 5 5 6 7 7 7 7 7 6 7 8 8 8 9 10 10 11
18 19 19 20 21 21 22 22 21 21 20 19 18 17 16 15 13 12 10 8 7 7 6 6 5 5 4 5 6 7 8 8 7 7 7 8 8 8 9 9 10 11 11

GEFSGL_500_meanwind_204.txt.gz
Wind_Speed
36 36 37 38 39 40 40 41 41 40 41 41 41 42 42 43 44 46 46 47 47 48 48 48 49 50 51 53 53 53 54 55 54 51 51 50 50 48 47 46 45 44 43
37 38 38 39 39 40 40 40 40 41 41 42 42 42 43 44 45 45 46 47 48 48 48 49 50 51 51 52 52 52 52 53 53 51 49 48 47 45 44 43 42 41 40
37 38 39 39 40 40 40 40 41 42 42 43 43 43 44 45 46 46 46 47 47 48 48 49 50 51 51 51 51 50 50 49 49 48 46 44 42 42 41 39 38 38 38
38 39 39 40 40 40 40 41 41 42 43 43 43 44 44 45 45 46 46 47 47 47 48 48 49 50 49 49 48 47 47 46 45 44 43 40 38 38 38 37 36 36 36
38 39 39 39 40 40 40 41 41 42 43 44 44 44 44 45 45 45 46 46 46 46 47 47 47 46 46 45 44 44 43 42 41 40 39 38 36 34 35 34 34 33 33
37 38 38 39 39 40 40 41 42 43 44 44 44 43 43 44 45 45 46 46 46 46 45 45 44 43 43 42 41 41 41 40 39 37 36 35 34 31 31 32 32 30 30
37 38 38 38 38 39 40 40 41 42 43 43 42 42 42 43 44 45 45 45 44 44 43 43 42 42 41 40 38 37 37 36 36 35 34 32 32 31 30 29 29 29 28
36 37 37 38 38 39 39 40 40 41 41 41 41 41 42 43 43 43 43 42 41 41 40 40 40 39 39 38 37 36 35 35 35 34 33 32 31 30 28 28 27 27 26
36 36 36 37 37 38 38 38 39 39 39 39 40 40 40 40 40 40 39 38 37 37 37 37 37 37 37 37 36 35 34 33 32 31 31 30 28 28 27 26 25 25 24
35 35 36 36 36 36 36 37 38 39 39 38 38 38 38 38 38 37 36 35 34 34 34 34 35 35 35 35 34 33 32 31 30 29 29 27 26 26 25 24 23 23 23
33 34 35 35 36 36 36 36 37 36 36 36 36 36 36 36 35 34 33 33 32 32 32 33 33 34 34 34 33 32 31 30 28 27 25 24 23 22 22 21 20 20 20
32 33 33 34 34 35 35 35 35 35 34 34 34 34 33 33 32 32 31 31 31 31 31 32 32 33 33 32 31 30 29 28 25 24 22 21 20 20 20 20 19 18 18
32 32 33 33 33 33 34 34 34 34 33 33 33 32 31 30 30 29 29 30 30 31 31 32 32 32 31 29 28 28 28 26 24 22 21 20 19 18 18 17 17 16 16
31 31 32 32 32 33 33 33 33 32 31 31 30 28 27 28 28 29 29 29 30 31 31 31 31 31 29 27 27 26 25 23 21 20 19 17 16 16 15 15 15 15 14
31 31 31 31 32 32 32 31 30 30 29 28 27 27 27 26 27 28 28 29 30 30 30 30 30 28 27 25 24 23 22 20 19 17 16 16 15 16 15 15 15 15 13
30 31 31 31 31 31 30 29 29 28 28 27 26 26 26 27 27 27 28 28 29 30 29 29 28 26 24 23 22 21 19 19 18 17 16 16 16 15 14 13 12 12 11
30 30 30 30 29 29 28 27 27 26 26 26 26 26 27 27 27 27 27 28 28 28 28 27 26 24 22 21 20 19 18 17 16 16 15 15 15 13 12 11 10 10 9
28 28 28 28 28 27 26 26 25 25 24 24 25 26 26 26 26 26 26 27 27 27 26 25 23 20 19 19 17 16 16 15 15 15 14 13 12 11 10 10 10 10 9
26 26 26 26 26 25 24 24 24 23 23 23 23 23 24 25 25 25 25 25 25 25 24 22 19 18 17 16 15 14 14 15 14 13 12 11 9 9 8 9 9 9 9
24 24 24 24 23 23 22 22 22 22 21 21 21 22 24 24 25 25 24 24 24 23 21 19 18 16 15 14 13 13 14 14 12 10 9 8 7 6 5 6 7 8 7
23 23 22 22 21 21 21 21 21 21 21 21 22 23 24 25 25 24 23 23 23 22 20 18 17 15 14 13 12 13 13 12 10 8 7 6 5 5 4 5 6 6 6
21 21 20 20 20 20 20 20 20 20 21 21 22 24 25 25 24 23 22 22 23 21 18 17 16 14 13 12 12 12 11 10 9 7 7 6 6 5 5 5 5 6 5
20 19 19 19 19 20 20 20 20 21 22 22 23 24 24 24 24 23 22 22 21 19 16 15 14 13 12 12 11 11 11 10 9 9 7 6 6 6 6 5 6 6 5
20 19 19 19 20 20 20 20 21 22 22 22 23 24 23 23 22 22 21 21 19 17 16 14 13 12 12 11 11 11 10 9 8 7 6 6 5 5 5 5 5 5 5
20 20 21 20 20 20 21 21 22 22 22 22 22 23 22 21 20 20 19 19 17 15 15 14 13 12 12 11 10 9 8 7 5 5 4 4 3 3 4 4 3 4 5
20 20 20 21 21 20 20 21 21 21 21 22 22 22 21 20 20 19 18 17 15 14 13 12 12 11 10 9 8 6 5 3 3 3 3 2 3 3 3 3 4 4 5

GEFSGL_500_meanwind_210.txt.gz
Wind_Speed
35 36 36 36 37 37 37 38 38 38 39 39 39 40 40 41 42 43 44 45 45 45 46 46 47 48 49 50 51 52 53 54 54 51 51 51 51 51 50 51 51 50 49
35 36 36 37 37 37 38 38 39 39 40 40 40 41 41 42 42 43 44 45 45 45 46 47 47 49 49 50 51 52 52 53 52 50 49 48 48 47 47 47 47 46 44
35 36 36 37 37 38 38 39 39 40 40 40 40 40 41 42 42 43 44 44 44 45 46 47 48 49 49 50 50 51 51 51 50 49 47 46 45 45 44 43 43 42 41
35 35 36 36 37 37 38 39 39 39 39 40 40 41 41 42 42 43 43 44 44 45 46 47 47 48 48 48 48 48 48 48 47 46 44 43 42 41 41 40 39 38 37
34 35 35 36 36 37 37 38 38 38 39 39 40 40 41 41 42 43 43 44 44 45 46 46 46 46 46 46 46 46 46 46 45 43 42 41 40 38 37 37 36 34 33
35 35 35 35 35 36 36 36 37 37 37 38 39 40 41 42 43 44 44 44 45 45 45 44 44 44 44 45 45 45 44 44 43 41 40 39 37 36 35 34 32 31 31
34 35 35 34 35 35 35 35 36 36 37 38 39 41 42 43 44 44 44 44 44 44 43 42 42 42 43 43 43 43 42 42 41 39 38 38 35 33 33 32 30 29 28
33 34 34 34 34 35 35 35 35 37 38 38 39 41 42 43 43 43 42 42 42 42 41 41 41 42 42 41 40 40 39 38 38 37 37 35 34 32 31 30 28 27 25
32 33 33 34 34 34 34 35 35 36 37 38 40 41 42 42 41 41 40 40 40 40 40 40 40 40 40 40 39 38 37 36 36 36 35 33 32 32 31 28 26 25 22
31 32 33 34 34 34 35 35 35 36 37 38 39 40 40 39 38 38 39 39 39 38 38 37 37 38 38 38 37 36 35 34 34 33 31 30 31 30 28 26 24 22 21
32 32 33 34 34 35 35 36 36 37 38 38 39 38 37 37 37 38 38 37 36 35 35 34 35 35 35 35 35 35 34 34 33 31 29 29 28 26 24 23 21 21 19
32 33 33 33 34 35 35 36 36 36 37 37 36 36 35 35 35 35 35 34 34 34 33 32 32 32 32 32 32 32 32 32 30 28 27 27 25 23 22 21 20 20 18
33 33 32 33 33 33 34 35 35 35 35 35 35 34 33 33 33 32 32 31 31 32 31 31 31 31 31 31 31 30 30 29 28 26 25 23 22 21 20 19 18 17 16
33 33 33 32 32 33 33 34 33 33 33 32 32 31 31 31 31 31 31 30 30 30 30 30 30 31 30 30 29 29 28 27 25 23 22 20 20 19 18 17 15 14 14
33 33 33 33 32 32 32 31 31 31 31 31 30 29 30 30 30 29 29 29 29 30 30 29 30 29 29 28 27 26 25 24 22 20 19 19 18 17 16 15 13 12 12
33 33 33 32 32 31 30 29 29 29 29 28 28 28 28 28 28 28 27 28 28 29 29 28 28 27 27 26 24 23 23 22 20 18 17 16 16 15 14 12 12 11 11
31 31 31 30 29 29 28 29 28 27 27 26 27 27 27 27 27 26 26 27 28 28 27 27 26 26 26 24 23 22 21 19 18 17 15 14 14 13 12 11 10 10 10
29 29 28 27 27 27 27 27 26 26 26 26 26 26 26 25 25 25 26 26 26 27 26 26 25 25 24 23 21 20 19 18 16 15 14 13 13 12 11 10 10 10 10
27 27 26 26 26 26 26 26 25 25 25 26 26 25 24 24 24 25 25 26 26 26 26 26 25 24 23 21 20 19 18 16 14 13 12 12 12 11 10 9 9 9 9
25 25 24 25 25 25 25 25 25 24 24 24 24 24 23 23 23 24 25 26 26 26 25 24 23 22 21 20 18 17 15 13 13 12 12 12 11 10 10 9 9 9 9
23 23 24 24 24 24 23 23 23 23 23 23 23 22 22 22 23 24 25 26 26 25 24 23 22 20 19 18 16 14 13 12 12 12 12 12 12 11 10 9 8 8 7
22 22 22 23 23 22 22 22 22 22 22 21 21 21 21 22 23 24 25 26 25 24 22 21 20 19 18 17 15 14 13 12 12 12 12 12 11 11 10 8 8 8 7
21 21 21 22 22 21 20 20 20 20 20 20 20 21 21 22 23 24 25 25 23 22 20 19 18 17 16 15 14 13 12 12 12 11 11 11 11 10 9 8 8 8 7
20 21 21 21 21 20 20 20 20 20 19 20 20 20 21 22 23 24 24 23 22 21 19 18 17 16 15 14 13 12 11 11 11 11 10 10 9 9 8 7 7 7 6
20 20 21 21 20 20 20 19 19 19 20 20 20 21 22 23 23 23 23 22 21 19 17 17 16 15 13 12 12 11 11 11 10 9 8 8 7 7 6 6 6 6 5
20 20 20 20 19 19 19 19 19 19 19 20 21 22 23 23 23 23 22 20 19 18 17 17 15 13 12 11 11 10 9 8 8 7 7 7 6 6 6 6 5 5 4

GEFSGL_500_meanwind_216.txt.gz
Wind_Speed
36 36 36 36 35 35 34 34 34 35 35 36 37 37 38 38 39 40 41 42 42 43 44 45 46 46 46 48 49 50 50 51 51 49 49 50 51 50 49 49 49 49 48
37 36 36 35 35 35 34 34 34 35 35 36 36 37 38 38 39 40 40 41 43 43 44 45 45 46 47 48 49 49 50 50 51 50 49 49 49 48 47 47 47 47 46
37 37 36 36 35 35 36 36 35 35 36 36 37 37 38 38 39 39 40 41 42 43 44 45 45 46 47 48 48 49 49 50 50 51 49 48 48 47 46 45 45 44 43
37 37 36 36 36 36 36 36 36 36 36 37 37 38 39 39 39 40 40 41 42 43 44 45 46 47 46 46 47 48 49 49 49 49 48 47 46 45 44 43 42 41 41
37 36 36 36 36 36 36 36 36 36 36 37 37 38 38 38 39 39 40 42 42 43 44 46 46 45 45 46 46 47 48 48 47 47 46 45 44 43 43 42 40 39 37
37 36 36 36 36 36 37 37 37 37 37 37 37 37 38 38 39 40 41 42 43 44 45 45 44 44 44 45 46 47 47 46 46 46 45 44 43 42 41 40 39 37 35
37 36 36 37 37 37 36 36 36 37 37 37 37 37 38 39 40 41 42 42 43 44 44 43 42 43 44 44 45 44 44 44 44 44 43 42 42 41 40 38 37 36 34
36 37 37 37 37 37 37 37 37 37 38 38 38 38 39 40 41 42 42 43 44 43 42 42 42 43 43 43 42 42 42 42 41 41 40 40 40 40 39 37 36 33 33
36 36 37 36 36 36 36 37 37 38 38 38 38 39 40 40 41 42 43 43 42 42 42 42 43 43 42 42 42 41 41 39 39 39 39 39 38 38 37 35 33 32 30
35 36 36 36 36 36 36 37 37 38 38 38 39 39 40 40 41 41 42 42 41 41 41 42 42 41 41 41 41 40 39 37 37 37 36 37 37 36 35 34 32 30 28
35 36 36 36 36 36 36 36 37 37 38 38 38 39 39 40 40 41 41 40 40 40 39 39 39 39 39 39 39 38 37 36 35 35 36 36 35 34 33 31 29 27 25
35 35 35 35 35 35 36 36 36 37 37 38 38 38 38 39 39 39 39 38 38 38 38 38 37 37 37 37 36 36 35 34 33 34 34 34 32 31 29 28 26 24 23
34 34 34 34 34 35 35 36 36 37 37 37 37 37 38 38 38 37 37 37 36 36 36 36 35 35 35 34 34 34 33 32 33 32 31 30 29 27 25 24 23 22 20
34 34 33 33 34 34 34 35 35 36 36 36 36 37 37 36 36 36 35 35 35 35 34 33 32 33 33 33 32 32 31 31 31 30 28 27 26 24 23 22 21 20 19
34 34 34 34 33 34 34 34 34 34 34 34 35 35 34 34 34 34 34 33 33 33 32 31 31 32 32 31 31 30 29 29 28 27 26 25 24 23 21 21 19 18 18
34 34 34 34 34 34 34 34 33 33 32 32 32 32 32 32 32 32 32 31 31 30 30 30 31 31 31 29 28 27 28 27 26 25 25 23 22 20 20 19 19 18 17
34 33 33 34 34 33 33 32 32 30 29 29 30 30 30 30 31 30 30 30 29 29 29 29 30 30 28 27 26 25 25 25 24 24 23 21 21 20 19 18 18 17 15
33 33 33 32 32 32 31 30 29 28 28 28 28 28 28 28 28 28 28 27 27 28 28 28 28 27 25 24 24 24 24 24 24 23 22 20 19 18 17 17 17 15 14
31 31 30 30 30 29 29 28 28 28 28 27 26 26 26 26 26 26 26 26 26 27 27 26 25 23 22 22 22 23 23 23 22 22 20 18 17 16 16 16 15 14 13
28 28 28 27 27 27 27 26 26 26 26 26 26 26 26 25 25 25 24 25 26 26 26 24 23 22 22 22 22 22 22 22 21 20 18 17 16 15 15 15 15 13 12
26 26 25 25 25 25 25 25 24 24 24 25 25 25 25 25 24 24 25 25 25 24 24 23 22 21 21 21 21 21 21 21 20 18 17 16 15 14 14 14 13 12 12
24 24 24 24 23 23 23 23 23 24 23 23 24 24 24 24 24 25 24 24 24 24 23 22 21 20 20 20 21 20 20 19 18 17 16 15 14 13 13 12 12 12 11
22 22 22 22 21 22 22 22 22 22 22 23 23 23 23 24 24 24 23 23 22 22 22 21 20 19 19 20 20 20 19 18 17 16 15 14 13 12 11 11 10 10 9
20 20 20 21 21 21 21 21 22 22 23 23 23 23 23 24 23 23 22 22 22 21 20 19 19 18 19 20 20 19 18 17 16 15 14 12 11 10 10 9 9 8 8
19 20 20 20 20 20 20 20 21 22 23 23 22 22 22 22 22 21 21 21 21 20 19 19 19 19 19 19 19 19 18 16 15 14 12 11 10 9 8 8 7 7 6
20 20 20 20 20 20 19 20 21 21 21 21 21 21 21 20 20 20 21 20 20 19 19 18 18 18 19 19 19 18 16 15 13 12 11 10 9 8 8 7 6 6 5

GEFSGL_500_meanwind_222.txt.gz
Wind_Speed
38 37 37 37 36 36 35 35 35 35 35 35 35 36 36 36 36 37 38 38 39 40 41 41 42 43 43 44 46 47 48 49 49 47 48 48 50 51 52 52 52 52 51
38 38 37 37 37 36 35 36 35 35 36 36 36 36 37 37 37 38 39 40 40 41 42 42 42 43 44 45 46 47 48 49 49 48 48 48 50 51 52 52 51 50 49
38 38 38 37 37 36 36 36 36 36 36 36 36 36 37 38 38 39 40 41 41 42 42 42 43 44 45 46 47 48 48 48 49 48 48 49 50 51 51 50 48 47 46
38 38 38 38 37 37 37 37 37 37 36 37 37 37 38 39 39 40 41 41 41 42 42 42 43 44 45 46 47 48 48 48 48 48 48 49 49 49 48 46 45 44 43
38 39 39 39 38 38 38 38 38 37 37 37 37 38 39 39 40 40 41 41 42 41 41 42 43 44 45 46 46 47 47 47 47 48 48 48 48 46 45 44 43 40 39
38 39 39 39 39 39 38 39 38 38 38 38 38 39 39 39 40 41 41 41 41 41 42 43 43 44 45 45 45 46 47 47 47 47 47 47 45 43 42 42 40 37 35
38 38 39 39 39 39 38 38 39 39 39 38 38 39 39 40 40 41 41 41 41 42 42 43 43 44 44 45 45 45 46 46 46 46 46 44 42 41 40 39 37 35 33
38 38 38 38 38 39 38 38 38 38 38 39 39 39 40 40 41 41 41 41 42 42 42 43 43 43 43 44 44 44 45 45 44 44 42 41 40 40 39 37 34 32 32
37 37 38 38 38 38 38 38 38 38 38 39 39 39 40 41 41 41 41 41 41 41 42 42 42 42 42 42 43 43 43 42 42 41 39 39 39 38 37 34 32 31 30
36 37 37 37 38 38 38 38 38 38 38 38 39 39 39 40 41 41 41 41 41 41 41 41 41 41 41 41 41 41 41 40 39 38 38 38 37 36 33 31 30 29 29
35 35 36 37 37 38 38 38 38 38 38 38 38 39 39 39 40 40 40 40 40 39 40 40 40 40 40 39 39 38 37 36 36 36 35 35 34 32 30 28 29 28 27
33 34 35 36 36 36 37 37 37 37 38 38 38 38 38 39 39 39 39 38 38 37 37 37 37 38 37 36 35 35 34 35 34 33 33 31 30 28 27 27 27 26 25
33 33 33 35 35 36 36 36 36 36 36 37 37 37 38 38 38 38 37 36 36 35 35 34 34 35 34 34 34 33 34 34 33 32 30 29 27 26 25 25 25 24 23
32 32 33 33 34 35 35 35 35 35 35 36 36 37 37 37 36 36 35 34 34 33 32 32 32 32 32 32 32 32 32 32 31 30 29 27 25 24 23 23 22 23 22
32 32 32 32 33 33 34 34 34 35 35 35 35 35 35 35 34 33 32 32 31 31 31 31 30 30 30 31 31 30 30 30 29 28 26 24 22 22 21 21 22 22 21
32 32 32 32 32 32 33 33 33 33 33 34 34 33 33 32 31 31 30 30 29 29 29 29 28 28 29 29 29 28 28 28 28 26 23 21 20 20 20 21 21 21 20
31 31 32 31 31 31 31 31 31 31 32 32 31 31 30 29 29 28 28 27 27 27 27 27 27 27 27 28 27 27 27 26 25 22 20 20 20 20 20 20 20 20 19
30 30 30 30 30 30 30 29 29 29 28 28 28 28 28 27 27 26 26 25 25 25 25 25 25 26 25 25 25 25 25 24 22 20 20 19 19 19 19 19 19 18 16
28 28 28 28 28 28 28 27 27 26 26 25 26 26 25 25 24 24 23 23 23 24 24 24 24 24 24 24 24 24 23 22 20 19 18 18 18 18 18 18 17 16 15
26 26 26 26 27 27 26 26 25 24 24 23 23 23 22 22 22 22 22 22 22 23 23 23 23 22 23 24 23 22 21 20 19 18 17 17 17 17 16 16 16 15 14
25 25 25 26 26 25 25 25 24 24 23 22 21 20 20 20 20 21 21 21 21 22 22 22 21 22 22 22 21 21 20 19 18 17 17 16 16 16 15 15 15 15 14
24 24 24 23 24 24 24 23 23 22 22 21 20 20 20 20 20 21 20 21 21 21 21 20 20 21 21 21 19 19 18 18 17 16 16 16 15 15 15 14 14 13 12
23 22 22 22 22 22 22 22 21 21 20 20 20 20 20 20 20 20 20 20 20 19 19 19 19 20 20 19 18 18 18 17 17 16 16 15 14 14 14 14 13 12 11
22 21 21 21 21 21 20 20 20 20 20 20 21 21 20 20 20 20 20 20 20 19 19 19 18 18 18 18 17 17 17 17 16 15 14 14 14 14 13 13 12 11 10
20 20 20 20 20 20 20 20 19 20 20 20 20 20 20 20 20 20 20 19 19 18 18 18 18 18 18 18 17 17 16 16 16 15 13 13 13 13 12 11 10 9 8
19 19 18 18 19 19 19 19 19 19 19 20 20 20 20 20 19 19 19 19 18 18 18 17 17 18 18 17 17 16 16 15 15 14 13 13 12 11 10 10 9 8 6

GEFSGL_500_meanwind_228.txt.gz
Wind_Speed
39 39 39 39 39 40 40 39 38 37 36 36 36 36 36 36 36 37 37 37 37 38 38 39 40 41 43 44 45 46 47 48 48 49 50 51 52 52 52 52 52 52 51
39 39 39 39 39 40 40 39 39 38 37 37 37 37 37 36 37 38 38 38 38 38 39 40 41 42 44 44 45 47 48 49 50 50 50 50 51 52 51 50 50 50 49
39 39 39 39 39 39 39 39 39 38 37 37 37 37 37 37 38 38 38 38 38 39 40 41 42 43 44 45 46 47 48 49 50 50 50 50 50 49 49 48 48 47 46
39 39 39 39 39 39 39 39 39 39 38 37 38 37 37 38 38 38 38 38 39 39 40 42 43 44 44 45 46 47 48 49 50 49 49 48 47 46 46 46 45 44 42
39 39 38 38 38 38 38 38 38 38 38 38 37 37 37 38 38 38 38 38 39 40 40 42 43 44 45 46 47 47 48 49 49 48 47 45 45 44 44 44 42 40 38
38 38 38 38 38 38 38 38 38 38 38 39 38 38 38 38 38 37 38 39 39 40 40 42 42 43 44 45 46 46 47 47 46 45 44 44 43 43 43 42 40 38 35
37 37 37 38 38 39 39 38 38 38 38 38 38 38 38 38 38 38 38 39 39 40 40 41 42 43 43 44 44 45 46 45 44 43 43 43 43 42 42 40 39 38 35
37 37 37 37 37 37 37 37 37 37 38 38 38 38 38 38 38 39 39 39 39 39 40 41 42 42 42 43 43 44 43 42 42 42 43 43 42 41 39 38 37 36 34
36 36 36 36 36 37 37 37 36 37 37 37 37 37 37 37 38 38 38 38 38 39 39 40 41 41 42 42 42 42 41 41 41 42 42 42 40 38 37 37 35 33 31
34 34 34 35 35 35 36 36 36 36 36 36 36 36 37 37 37 37 38 38 38 38 39 39 40 41 41 40 40 39 40 40 40 40 40 39 38 36 35 34 33 31 30
33 33 34 34 34 35 35 35 35 35 35 36 36 36 36 37 37 37 37 37 38 38 38 39 39 39 38 38 38 38 39 39 39 39 38 36 35 34 33 32 31 30 29
33 34 34 34 34 34 34 34 35 35 35 36 36 36 36 36 36 36 36 36 37 37 38 38 38 37 37 37 37 38 38 38 38 37 35 34 32 31 31 30 29 28 28
33 33 32 32 33 33 33 34 34 34 35 35 35 35 35 35 35 35 36 36 36 37 37 37 36 36 36 36 36 37 37 36 36 34 32 31 30 30 29 28 27 27 26
32 32 32 32 32 32 32 33 33 34 34 35 35 34 34 34 35 35 35 35 35 36 35 35 34 34 34 34 34 34 34 33 32 30 29 29 28 27 26 26 25 25 24
32 32 32 32 32 31 31 31 32 33 33 34 34 34 34 34 34 34 34 34 34 33 33 32 32 32 32 31 31 31 31 29 28 28 28 27 26 25 25 24 24 23 23
32 32 32 31 31 31 31 31 32 32 33 33 33 33 33 33 33 33 33 32 32 31 30 29 29 29 29 29 29 28 28 27 26 27 27 26 25 24 24 23 23 22 22
31 31 31 31 31 31 31 31 31 31 31 31 31 31 31 31 31 31 31 30 29 28 28 27 27 27 27 27 26 26 26 25 25 25 25 24 23 23 23 22 21 20 20
29 29 29 29 29 29 30 30 30 30 29 29 29 29 29 28 28 28 28 28 27 26 26 25 26 26 26 25 25 25 25 24 24 24 24 22 22 22 21 20 20 19 19
29 28 28 28 28 28 28 29 28 28 27 26 27 27 27 25 25 25 25 25 25 24 24 24 25 25 24 24 24 24 24 23 23 23 22 21 21 20 19 19 19 19 18
28 27 27 26 27 26 26 26 26 25 25 24 25 25 24 23 23 23 23 23 23 23 23 24 24 23 23 24 23 23 23 22 22 21 21 20 19 19 18 17 17 17 17
27 27 26 26 25 25 24 24 23 23 23 23 23 22 22 22 22 22 22 22 23 23 23 23 22 22 22 22 22 21 21 21 20 20 19 19 18 17 16 16 16 16 17
27 26 25 25 25 24 24 23 23 22 22 21 21 21 21 21 21 22 22 22 22 22 22 21 22 22 21 21 21 20 20 19 18 18 18 17 16 16 15 14 15 16 16
25 25 25 24 24 24 23 23 22 21 20 20 21 21 21 21 21 21 21 21 21 21 21 20 20 21 20 20 20 19 18 17 17 17 17 16 15 15 14 14 14 15 15
24 25 25 24 24 23 23 22 22 22 21 21 21 21 20 21 21 21 21 21 20 20 20 20 20 20 20 19 18 18 17 17 17 16 16 15 15 14 14 13 13 13 13
24 25 25 24 23 23 22 22 23 22 22 22 21 21 21 22 22 21 20 19 19 19 19 19 19 19 18 18 17 17 16 17 17 16 15 15 15 14 13 12 12 12 12
24 24 25 24 23 22 22 22 22 22 22 22 22 22 22 22 21 20 19 18 18 18 18 17 17 17 17 16 16 16 15 15 16 15 14 14 13 13 12 12 11 11 11

GEFSGL_500_meanwind_234.txt.gz
Wind_Speed
41 40 39 40 40 38 38 38 38 37 37 37 36 35 35 36 36 35 35 35 35 36 36 37 37 37 38 39 40 41 43 44 45 46 48 50 51 52 52 52 51 49 48
41 40 40 40 40 39 38 38 37 37 37 37 36 35 34 35 35 35 35 36 36 36 37 37 37 37 39 40 41 42 43 44 46 47 49 50 51 50 50 50 49 47 47
40 40 40 40 39 39 38 38 37 36 36 37 36 35 34 35 35 35 35 36 37 37 37 37 37 38 40 41 41 42 43 45 47 48 49 49 49 49 48 47 46 46 46
39 39 39 39 39 38 38 38 38 38 37 37 36 36 35 34 34 35 35 36 36 36 37 37 38 39 40 41 42 43 44 45 47 48 48 48 48 47 46 45 44 44 44
39 39 39 39 39 38 38 38 39 39 39 37 36 36 35 35 35 35 35 35 35 36 37 37 38 40 41 42 43 43 44 46 47 48 47 46 46 45 44 43 43 42 42
39 39 39 39 39 39 39 39 40 40 39 39 38 37 36 35 36 36 36 36 36 37 37 38 39 40 41 42 43 44 45 45 46 46 45 44 43 42 42 42 42 42 41
38 39 40 40 39 39 38 39 39 39 39 38 38 37 36 36 36 36 36 36 37 37 38 39 39 40 41 41 42 43 44 44 44 44 43 43 42 41 41 42 42 41 40
37 37 38 38 38 38 38 37 38 38 38 38 38 37 37 37 37 36 36 36 37 38 38 39 39 40 40 41 41 41 42 43 43 42 42 42 41 41 42 42 41 40 38
37 36 37 37 37 37 38 37 37 37 37 37 37 37 37 37 37 37 36 36 37 37 38 39 39 39 39 40 40 41 41 41 41 41 41 41 41 41 41 40 39 37 35
35 36 36 36 36 36 37 36 36 36 36 36 36 36 36 37 37 37 36 36 36 37 37 38 38 38 39 39 40 40 39 39 40 40 39 39 39 39 38 37 36 34 32
35 35 35 35 35 35 35 36 36 36 36 36 36 36 36 37 37 37 36 36 36 36 36 37 37 37 38 39 39 38 38 38 38 38 37 36 35 35 34 33 32 31 29
34 34 34 34 34 34 34 34 35 35 35 35 35 36 36 36 36 36 36 36 36 35 36 36 36 36 37 37 37 36 37 37 36 34 33 32 31 31 31 30 30 28 27
33 33 33 34 33 33 33 34 34 34 34 34 34 34 34 34 34 35 35 35 35 35 35 35 35 35 35 35 35 35 35 33 32 31 29 29 29 29 29 28 27 26 25
32 32 33 33 33 33 33 33 34 34 35 35 34 34 34 33 33 33 34 34 33 33 33 33 34 34 34 33 32 32 31 29 28 27 26 27 27 28 27 26 25 24 23
31 32 32 32 32 32 32 32 32 33 33 34 34 33 33 33 33 32 32 32 32 33 33 33 32 32 31 30 29 29 27 26 26 25 25 25 26 26 26 25 23 21 21
31 31 31 31 31 31 31 32 32 32 32 32 32 32 32 32 32 32 31 31 32 32 32 31 30 29 28 27 27 26 25 24 24 24 24 25 25 24 23 22 20 20 19
31 31 31 31 31 30 30 31 31 31 31 30 30 30 30 30 30 30 30 30 30 30 29 28 27 26 26 26 25 24 23 22 22 23 23 23 23 22 21 19 19 18 17
30 31 31 31 31 30 30 30 30 30 29 29 29 28 27 28 28 28 29 29 28 27 26 25 25 24 24 24 24 22 21 21 22 22 22 22 21 20 19 18 17 17 16
29 29 30 30 30 29 29 29 28 28 29 29 28 27 26 26 26 27 27 26 25 25 24 24 23 23 23 23 22 21 20 20 21 21 21 21 20 18 17 16 17 16 15
29 29 29 29 29 28 28 28 27 27 27 27 26 26 25 25 25 25 24 24 24 23 23 22 22 22 22 21 20 19 19 19 19 19 19 18 17 16 16 16 16 16 15
28 28 28 28 28 28 28 27 27 26 25 25 24 24 24 23 23 23 23 23 22 22 21 21 21 20 20 19 18 18 18 18 18 17 17 16 15 15 15 16 16 16 16
28 28 28 28 27 27 27 26 26 25 25 24 24 24 24 23 22 22 22 21 21 20 20 20 19 19 19 18 17 17 17 16 16 16 15 15 15 14 14 15 16 16 15
28 27 27 27 27 27 27 26 26 26 25 25 25 24 23 22 22 22 21 21 20 20 19 19 19 18 18 17 16 16 15 15 15 14 15 15 14 14 14 15 15 15 14
27 27 27 27 27 26 25 25 25 25 25 25 24 23 22 22 21 22 21 21 20 20 19 19 19 18 17 17 16 15 15 14 14 14 14 14 14 14 14 14 14 13 13
27 27 27 27 27 26 25 25 25 24 24 24 23 23 22 22 21 21 21 21 20 20 19 19 18 18 17 16 15 15 14 14 14 14 14 14 14 13 13 13 12 12 12
25 26 26 25 25 25 25 25 24 23 23 22 22 22 22 22 21 21 20 20 19 19 19 19 18 17 16 16 15 15 14 14 14 14 14 13 13 13 13 12 12 12 11